<?xml version="1.0" encoding="UTF-8" standalone="no" ?>
<gpx xmlns="http://www.topografix.com/GPX/1/1" xmlns:xsi="http://www.w3.org/2001/XMLSchema-instance" xsi:schemaLocation="http://www.topografix.com/GPX/1/1 http://www.topografix.com/GPX/1/1/gpx.xsd" version="1.1" creator="VisuGPX - https://www.visugpx.com">
  <metadata>
    <name>Vélo voie verte sud Ardennes</name>
  </metadata>
  <trk>
    <name><![CDATA[Vélo voie verte sud Ardennes_1]]></name>
    <trkseg>
      <trkpt lat="49.7348" lon="4.84626">
        <ele>170</ele>
        <time>2025-06-20T07:28:18Z</time>
      </trkpt>
      <trkpt lat="49.73487" lon="4.84641">
        <ele>169.4</ele>
        <time>2025-06-20T07:28:22Z</time>
      </trkpt>
      <trkpt lat="49.73495" lon="4.84661">
        <ele>168.7</ele>
        <time>2025-06-20T07:28:26Z</time>
      </trkpt>
      <trkpt lat="49.73506" lon="4.84683">
        <ele>168.1</ele>
        <time>2025-06-20T07:28:30Z</time>
      </trkpt>
      <trkpt lat="49.73517" lon="4.84707">
        <ele>167.8</ele>
        <time>2025-06-20T07:28:34Z</time>
      </trkpt>
      <trkpt lat="49.73529" lon="4.84734">
        <ele>167.6</ele>
        <time>2025-06-20T07:28:38Z</time>
      </trkpt>
      <trkpt lat="49.73542" lon="4.84762">
        <ele>167.1</ele>
        <time>2025-06-20T07:28:42Z</time>
      </trkpt>
      <trkpt lat="49.73552" lon="4.84793">
        <ele>166.9</ele>
        <time>2025-06-20T07:28:46Z</time>
      </trkpt>
      <trkpt lat="49.73562" lon="4.84827">
        <ele>167.1</ele>
        <time>2025-06-20T07:28:50Z</time>
      </trkpt>
      <trkpt lat="49.73573" lon="4.84861">
        <ele>166.6</ele>
        <time>2025-06-20T07:28:54Z</time>
      </trkpt>
      <trkpt lat="49.73581" lon="4.84894">
        <ele>165.9</ele>
        <time>2025-06-20T07:28:58Z</time>
      </trkpt>
      <trkpt lat="49.73591" lon="4.84925">
        <ele>166.7</ele>
        <time>2025-06-20T07:29:02Z</time>
      </trkpt>
      <trkpt lat="49.73604" lon="4.84952">
        <ele>166.2</ele>
        <time>2025-06-20T07:29:06Z</time>
      </trkpt>
      <trkpt lat="49.73616" lon="4.84979">
        <ele>165.4</ele>
        <time>2025-06-20T07:29:10Z</time>
      </trkpt>
      <trkpt lat="49.7363" lon="4.85007">
        <ele>165.3</ele>
        <time>2025-06-20T07:29:14Z</time>
      </trkpt>
      <trkpt lat="49.73642" lon="4.85037">
        <ele>164.2</ele>
        <time>2025-06-20T07:29:18Z</time>
      </trkpt>
      <trkpt lat="49.73649" lon="4.85071">
        <ele>164.2</ele>
        <time>2025-06-20T07:29:22Z</time>
      </trkpt>
      <trkpt lat="49.73651" lon="4.85107">
        <ele>163.5</ele>
        <time>2025-06-20T07:29:26Z</time>
      </trkpt>
      <trkpt lat="49.7365" lon="4.85143">
        <ele>163.3</ele>
        <time>2025-06-20T07:29:30Z</time>
      </trkpt>
      <trkpt lat="49.73652" lon="4.85177">
        <ele>163</ele>
        <time>2025-06-20T07:29:34Z</time>
      </trkpt>
      <trkpt lat="49.73658" lon="4.85212">
        <ele>163</ele>
        <time>2025-06-20T07:29:38Z</time>
      </trkpt>
      <trkpt lat="49.73665" lon="4.85245">
        <ele>163</ele>
        <time>2025-06-20T07:29:42Z</time>
      </trkpt>
      <trkpt lat="49.73673" lon="4.85277">
        <ele>163</ele>
        <time>2025-06-20T07:29:46Z</time>
      </trkpt>
      <trkpt lat="49.73684" lon="4.85308">
        <ele>163</ele>
        <time>2025-06-20T07:29:50Z</time>
      </trkpt>
      <trkpt lat="49.73694" lon="4.85338">
        <ele>163</ele>
        <time>2025-06-20T07:29:54Z</time>
      </trkpt>
      <trkpt lat="49.73704" lon="4.85364">
        <ele>162.9</ele>
        <time>2025-06-20T07:29:58Z</time>
      </trkpt>
      <trkpt lat="49.73713" lon="4.85392">
        <ele>162.7</ele>
        <time>2025-06-20T07:30:02Z</time>
      </trkpt>
      <trkpt lat="49.73709" lon="4.85416">
        <ele>162.5</ele>
        <time>2025-06-20T07:30:06Z</time>
      </trkpt>
      <trkpt lat="49.73701" lon="4.8544">
        <ele>162.2</ele>
        <time>2025-06-20T07:30:10Z</time>
      </trkpt>
      <trkpt lat="49.7369" lon="4.85466">
        <ele>162</ele>
        <time>2025-06-20T07:30:14Z</time>
      </trkpt>
      <trkpt lat="49.73679" lon="4.85491">
        <ele>162</ele>
        <time>2025-06-20T07:30:18Z</time>
      </trkpt>
      <trkpt lat="49.73668" lon="4.85508">
        <ele>162</ele>
        <time>2025-06-20T07:30:22Z</time>
      </trkpt>
      <trkpt lat="49.73657" lon="4.85529">
        <ele>162</ele>
        <time>2025-06-20T07:30:26Z</time>
      </trkpt>
      <trkpt lat="49.73647" lon="4.85557">
        <ele>162</ele>
        <time>2025-06-20T07:30:30Z</time>
      </trkpt>
      <trkpt lat="49.73636" lon="4.85583">
        <ele>162.1</ele>
        <time>2025-06-20T07:30:34Z</time>
      </trkpt>
      <trkpt lat="49.73624" lon="4.85606">
        <ele>162.9</ele>
        <time>2025-06-20T07:30:38Z</time>
      </trkpt>
      <trkpt lat="49.73612" lon="4.85623">
        <ele>163.4</ele>
        <time>2025-06-20T07:30:42Z</time>
      </trkpt>
      <trkpt lat="49.736" lon="4.85644">
        <ele>164.8</ele>
        <time>2025-06-20T07:30:46Z</time>
      </trkpt>
      <trkpt lat="49.73589" lon="4.85667">
        <ele>165</ele>
        <time>2025-06-20T07:30:50Z</time>
      </trkpt>
      <trkpt lat="49.73585" lon="4.8568">
        <ele>165.5</ele>
        <time>2025-06-20T07:30:54Z</time>
      </trkpt>
      <trkpt lat="49.7358" lon="4.85682">
        <ele>165.7</ele>
        <time>2025-06-20T07:30:58Z</time>
      </trkpt>
      <trkpt lat="49.73568" lon="4.85677">
        <ele>166.3</ele>
        <time>2025-06-20T07:31:02Z</time>
      </trkpt>
      <trkpt lat="49.73551" lon="4.85666">
        <ele>167.2</ele>
        <time>2025-06-20T07:31:06Z</time>
      </trkpt>
      <trkpt lat="49.73539" lon="4.8565">
        <ele>167.2</ele>
        <time>2025-06-20T07:31:10Z</time>
      </trkpt>
      <trkpt lat="49.73523" lon="4.85634">
        <ele>166.8</ele>
        <time>2025-06-20T07:31:14Z</time>
      </trkpt>
      <trkpt lat="49.73506" lon="4.85618">
        <ele>166.2</ele>
        <time>2025-06-20T07:31:18Z</time>
      </trkpt>
      <trkpt lat="49.73488" lon="4.85611">
        <ele>166.4</ele>
        <time>2025-06-20T07:31:22Z</time>
      </trkpt>
      <trkpt lat="49.73463" lon="4.856">
        <ele>166.6</ele>
        <time>2025-06-20T07:31:26Z</time>
      </trkpt>
      <trkpt lat="49.73443" lon="4.85585">
        <ele>166.1</ele>
        <time>2025-06-20T07:31:30Z</time>
      </trkpt>
      <trkpt lat="49.73422" lon="4.85579">
        <ele>165.7</ele>
        <time>2025-06-20T07:31:34Z</time>
      </trkpt>
      <trkpt lat="49.73402" lon="4.85572">
        <ele>165.7</ele>
        <time>2025-06-20T07:31:38Z</time>
      </trkpt>
      <trkpt lat="49.73381" lon="4.85566">
        <ele>165.8</ele>
        <time>2025-06-20T07:31:42Z</time>
      </trkpt>
      <trkpt lat="49.73361" lon="4.85559">
        <ele>165.3</ele>
        <time>2025-06-20T07:31:46Z</time>
      </trkpt>
      <trkpt lat="49.73342" lon="4.85552">
        <ele>165.5</ele>
        <time>2025-06-20T07:31:50Z</time>
      </trkpt>
      <trkpt lat="49.73322" lon="4.85546">
        <ele>165.3</ele>
        <time>2025-06-20T07:31:54Z</time>
      </trkpt>
      <trkpt lat="49.73302" lon="4.85539">
        <ele>165</ele>
        <time>2025-06-20T07:31:58Z</time>
      </trkpt>
      <trkpt lat="49.73283" lon="4.85534">
        <ele>165.4</ele>
        <time>2025-06-20T07:32:02Z</time>
      </trkpt>
      <trkpt lat="49.73264" lon="4.85528">
        <ele>165.5</ele>
        <time>2025-06-20T07:32:06Z</time>
      </trkpt>
      <trkpt lat="49.73244" lon="4.85527">
        <ele>166.4</ele>
        <time>2025-06-20T07:32:10Z</time>
      </trkpt>
      <trkpt lat="49.73224" lon="4.85526">
        <ele>167.7</ele>
        <time>2025-06-20T07:32:14Z</time>
      </trkpt>
      <trkpt lat="49.73206" lon="4.85527">
        <ele>168.6</ele>
        <time>2025-06-20T07:32:18Z</time>
      </trkpt>
      <trkpt lat="49.7319" lon="4.85531">
        <ele>169.5</ele>
        <time>2025-06-20T07:32:22Z</time>
      </trkpt>
      <trkpt lat="49.73173" lon="4.85533">
        <ele>170.8</ele>
        <time>2025-06-20T07:32:26Z</time>
      </trkpt>
      <trkpt lat="49.73158" lon="4.85536">
        <ele>171.3</ele>
        <time>2025-06-20T07:32:30Z</time>
      </trkpt>
      <trkpt lat="49.73141" lon="4.85539">
        <ele>171.4</ele>
        <time>2025-06-20T07:32:34Z</time>
      </trkpt>
      <trkpt lat="49.73125" lon="4.85539">
        <ele>171.6</ele>
        <time>2025-06-20T07:32:38Z</time>
      </trkpt>
      <trkpt lat="49.73108" lon="4.85534">
        <ele>171.6</ele>
        <time>2025-06-20T07:32:42Z</time>
      </trkpt>
      <trkpt lat="49.73092" lon="4.85526">
        <ele>171.6</ele>
        <time>2025-06-20T07:32:46Z</time>
      </trkpt>
      <trkpt lat="49.73076" lon="4.85518">
        <ele>171.7</ele>
        <time>2025-06-20T07:32:50Z</time>
      </trkpt>
      <trkpt lat="49.73057" lon="4.85509">
        <ele>172.2</ele>
        <time>2025-06-20T07:32:54Z</time>
      </trkpt>
      <trkpt lat="49.73036" lon="4.85503">
        <ele>172</ele>
        <time>2025-06-20T07:32:58Z</time>
      </trkpt>
      <trkpt lat="49.73013" lon="4.85495">
        <ele>171</ele>
        <time>2025-06-20T07:33:02Z</time>
      </trkpt>
      <trkpt lat="49.72986" lon="4.85489">
        <ele>170.2</ele>
        <time>2025-06-20T07:33:06Z</time>
      </trkpt>
      <trkpt lat="49.72958" lon="4.85483">
        <ele>169</ele>
        <time>2025-06-20T07:33:10Z</time>
      </trkpt>
      <trkpt lat="49.72929" lon="4.85473">
        <ele>167.4</ele>
        <time>2025-06-20T07:33:14Z</time>
      </trkpt>
      <trkpt lat="49.729" lon="4.85462">
        <ele>166.4</ele>
        <time>2025-06-20T07:33:18Z</time>
      </trkpt>
      <trkpt lat="49.72871" lon="4.85452">
        <ele>166</ele>
        <time>2025-06-20T07:33:22Z</time>
      </trkpt>
      <trkpt lat="49.72844" lon="4.85438">
        <ele>165.9</ele>
        <time>2025-06-20T07:33:26Z</time>
      </trkpt>
      <trkpt lat="49.72821" lon="4.85425">
        <ele>166.1</ele>
        <time>2025-06-20T07:33:30Z</time>
      </trkpt>
      <trkpt lat="49.72801" lon="4.85415">
        <ele>166.4</ele>
        <time>2025-06-20T07:33:34Z</time>
      </trkpt>
      <trkpt lat="49.72785" lon="4.85406">
        <ele>168.2</ele>
        <time>2025-06-20T07:33:38Z</time>
      </trkpt>
      <trkpt lat="49.72776" lon="4.854">
        <ele>169.2</ele>
        <time>2025-06-20T07:33:42Z</time>
      </trkpt>
      <trkpt lat="49.72761" lon="4.85398">
        <ele>169.3</ele>
        <time>2025-06-20T07:33:46Z</time>
      </trkpt>
      <trkpt lat="49.72733" lon="4.85404">
        <ele>169.5</ele>
        <time>2025-06-20T07:33:50Z</time>
      </trkpt>
      <trkpt lat="49.72712" lon="4.85404">
        <ele>169.2</ele>
        <time>2025-06-20T07:33:54Z</time>
      </trkpt>
      <trkpt lat="49.7269" lon="4.85402">
        <ele>168.3</ele>
        <time>2025-06-20T07:33:58Z</time>
      </trkpt>
      <trkpt lat="49.72664" lon="4.85398">
        <ele>167.2</ele>
        <time>2025-06-20T07:34:02Z</time>
      </trkpt>
      <trkpt lat="49.72636" lon="4.85399">
        <ele>166.2</ele>
        <time>2025-06-20T07:34:06Z</time>
      </trkpt>
      <trkpt lat="49.72605" lon="4.85401">
        <ele>164.8</ele>
        <time>2025-06-20T07:34:10Z</time>
      </trkpt>
      <trkpt lat="49.72574" lon="4.85406">
        <ele>163.9</ele>
        <time>2025-06-20T07:34:14Z</time>
      </trkpt>
      <trkpt lat="49.72545" lon="4.8541">
        <ele>163.4</ele>
        <time>2025-06-20T07:34:18Z</time>
      </trkpt>
      <trkpt lat="49.72516" lon="4.8541">
        <ele>163.2</ele>
        <time>2025-06-20T07:34:22Z</time>
      </trkpt>
      <trkpt lat="49.7249" lon="4.85405">
        <ele>163.6</ele>
        <time>2025-06-20T07:34:26Z</time>
      </trkpt>
      <trkpt lat="49.72465" lon="4.85396">
        <ele>163.1</ele>
        <time>2025-06-20T07:34:30Z</time>
      </trkpt>
      <trkpt lat="49.7244" lon="4.85381">
        <ele>161.7</ele>
        <time>2025-06-20T07:34:34Z</time>
      </trkpt>
      <trkpt lat="49.72414" lon="4.85364">
        <ele>160.1</ele>
        <time>2025-06-20T07:34:38Z</time>
      </trkpt>
      <trkpt lat="49.72386" lon="4.85345">
        <ele>158.5</ele>
        <time>2025-06-20T07:34:42Z</time>
      </trkpt>
      <trkpt lat="49.72355" lon="4.85333">
        <ele>158.2</ele>
        <time>2025-06-20T07:34:46Z</time>
      </trkpt>
      <trkpt lat="49.72325" lon="4.85321">
        <ele>160.1</ele>
        <time>2025-06-20T07:34:50Z</time>
      </trkpt>
      <trkpt lat="49.72298" lon="4.85311">
        <ele>158.2</ele>
        <time>2025-06-20T07:34:54Z</time>
      </trkpt>
      <trkpt lat="49.72271" lon="4.85304">
        <ele>157.2</ele>
        <time>2025-06-20T07:34:58Z</time>
      </trkpt>
      <trkpt lat="49.72249" lon="4.85304">
        <ele>157.9</ele>
        <time>2025-06-20T07:35:02Z</time>
      </trkpt>
      <trkpt lat="49.72229" lon="4.85309">
        <ele>157.3</ele>
        <time>2025-06-20T07:35:06Z</time>
      </trkpt>
      <trkpt lat="49.7221" lon="4.85319">
        <ele>157.5</ele>
        <time>2025-06-20T07:35:10Z</time>
      </trkpt>
      <trkpt lat="49.72192" lon="4.85329">
        <ele>157.9</ele>
        <time>2025-06-20T07:35:14Z</time>
      </trkpt>
      <trkpt lat="49.72173" lon="4.8534">
        <ele>158.8</ele>
        <time>2025-06-20T07:35:18Z</time>
      </trkpt>
      <trkpt lat="49.72155" lon="4.85351">
        <ele>158.8</ele>
        <time>2025-06-20T07:35:22Z</time>
      </trkpt>
      <trkpt lat="49.72137" lon="4.85363">
        <ele>158.9</ele>
        <time>2025-06-20T07:35:26Z</time>
      </trkpt>
      <trkpt lat="49.72118" lon="4.85376">
        <ele>158.7</ele>
        <time>2025-06-20T07:35:30Z</time>
      </trkpt>
      <trkpt lat="49.721" lon="4.8539">
        <ele>158.6</ele>
        <time>2025-06-20T07:35:34Z</time>
      </trkpt>
      <trkpt lat="49.72082" lon="4.85405">
        <ele>158.6</ele>
        <time>2025-06-20T07:35:38Z</time>
      </trkpt>
      <trkpt lat="49.72064" lon="4.85421">
        <ele>159</ele>
        <time>2025-06-20T07:35:42Z</time>
      </trkpt>
      <trkpt lat="49.72047" lon="4.85437">
        <ele>158.9</ele>
        <time>2025-06-20T07:35:46Z</time>
      </trkpt>
      <trkpt lat="49.72029" lon="4.85451">
        <ele>159</ele>
        <time>2025-06-20T07:35:50Z</time>
      </trkpt>
      <trkpt lat="49.72009" lon="4.85459">
        <ele>159.4</ele>
        <time>2025-06-20T07:35:54Z</time>
      </trkpt>
      <trkpt lat="49.7199" lon="4.85461">
        <ele>160</ele>
        <time>2025-06-20T07:35:58Z</time>
      </trkpt>
      <trkpt lat="49.71971" lon="4.85463">
        <ele>160.7</ele>
        <time>2025-06-20T07:36:02Z</time>
      </trkpt>
      <trkpt lat="49.71952" lon="4.85464">
        <ele>160.9</ele>
        <time>2025-06-20T07:36:06Z</time>
      </trkpt>
      <trkpt lat="49.71933" lon="4.85467">
        <ele>161.5</ele>
        <time>2025-06-20T07:36:10Z</time>
      </trkpt>
      <trkpt lat="49.71915" lon="4.8547">
        <ele>162.1</ele>
        <time>2025-06-20T07:36:14Z</time>
      </trkpt>
      <trkpt lat="49.71899" lon="4.85472">
        <ele>162.6</ele>
        <time>2025-06-20T07:36:18Z</time>
      </trkpt>
      <trkpt lat="49.71882" lon="4.85476">
        <ele>163.5</ele>
        <time>2025-06-20T07:36:22Z</time>
      </trkpt>
      <trkpt lat="49.71866" lon="4.85482">
        <ele>164.2</ele>
        <time>2025-06-20T07:36:26Z</time>
      </trkpt>
      <trkpt lat="49.7185" lon="4.85493">
        <ele>164.4</ele>
        <time>2025-06-20T07:36:30Z</time>
      </trkpt>
      <trkpt lat="49.71836" lon="4.85506">
        <ele>164.3</ele>
        <time>2025-06-20T07:36:34Z</time>
      </trkpt>
      <trkpt lat="49.71823" lon="4.85521">
        <ele>164.8</ele>
        <time>2025-06-20T07:36:38Z</time>
      </trkpt>
      <trkpt lat="49.71809" lon="4.85536">
        <ele>165.3</ele>
        <time>2025-06-20T07:36:42Z</time>
      </trkpt>
      <trkpt lat="49.71795" lon="4.85552">
        <ele>165.5</ele>
        <time>2025-06-20T07:36:46Z</time>
      </trkpt>
      <trkpt lat="49.71781" lon="4.85569">
        <ele>165.5</ele>
        <time>2025-06-20T07:36:50Z</time>
      </trkpt>
      <trkpt lat="49.71767" lon="4.85586">
        <ele>165.7</ele>
        <time>2025-06-20T07:36:54Z</time>
      </trkpt>
      <trkpt lat="49.71752" lon="4.85604">
        <ele>165.8</ele>
        <time>2025-06-20T07:36:58Z</time>
      </trkpt>
      <trkpt lat="49.71735" lon="4.85622">
        <ele>165.7</ele>
        <time>2025-06-20T07:37:02Z</time>
      </trkpt>
      <trkpt lat="49.71716" lon="4.85635">
        <ele>165.6</ele>
        <time>2025-06-20T07:37:06Z</time>
      </trkpt>
      <trkpt lat="49.71697" lon="4.85644">
        <ele>165.3</ele>
        <time>2025-06-20T07:37:10Z</time>
      </trkpt>
      <trkpt lat="49.71678" lon="4.85649">
        <ele>165.4</ele>
        <time>2025-06-20T07:37:14Z</time>
      </trkpt>
      <trkpt lat="49.71659" lon="4.85651">
        <ele>165.4</ele>
        <time>2025-06-20T07:37:18Z</time>
      </trkpt>
      <trkpt lat="49.7164" lon="4.85652">
        <ele>165.5</ele>
        <time>2025-06-20T07:37:22Z</time>
      </trkpt>
      <trkpt lat="49.7162" lon="4.85651">
        <ele>165.4</ele>
        <time>2025-06-20T07:37:26Z</time>
      </trkpt>
      <trkpt lat="49.716" lon="4.85651">
        <ele>165.8</ele>
        <time>2025-06-20T07:37:30Z</time>
      </trkpt>
      <trkpt lat="49.71583" lon="4.85651">
        <ele>166.4</ele>
        <time>2025-06-20T07:37:34Z</time>
      </trkpt>
      <trkpt lat="49.71566" lon="4.85652">
        <ele>166.8</ele>
        <time>2025-06-20T07:37:38Z</time>
      </trkpt>
      <trkpt lat="49.71548" lon="4.85657">
        <ele>166.9</ele>
        <time>2025-06-20T07:37:42Z</time>
      </trkpt>
      <trkpt lat="49.7153" lon="4.85664">
        <ele>166.9</ele>
        <time>2025-06-20T07:37:46Z</time>
      </trkpt>
      <trkpt lat="49.71512" lon="4.85675">
        <ele>166.4</ele>
        <time>2025-06-20T07:37:50Z</time>
      </trkpt>
      <trkpt lat="49.71494" lon="4.85684">
        <ele>165.8</ele>
        <time>2025-06-20T07:37:54Z</time>
      </trkpt>
      <trkpt lat="49.71474" lon="4.85697">
        <ele>165</ele>
        <time>2025-06-20T07:37:58Z</time>
      </trkpt>
      <trkpt lat="49.71454" lon="4.8571">
        <ele>164.2</ele>
        <time>2025-06-20T07:38:02Z</time>
      </trkpt>
      <trkpt lat="49.71435" lon="4.85724">
        <ele>164.6</ele>
        <time>2025-06-20T07:38:06Z</time>
      </trkpt>
      <trkpt lat="49.71417" lon="4.85738">
        <ele>164.6</ele>
        <time>2025-06-20T07:38:10Z</time>
      </trkpt>
      <trkpt lat="49.71399" lon="4.85751">
        <ele>165</ele>
        <time>2025-06-20T07:38:14Z</time>
      </trkpt>
      <trkpt lat="49.71382" lon="4.85763">
        <ele>165.1</ele>
        <time>2025-06-20T07:38:18Z</time>
      </trkpt>
      <trkpt lat="49.71365" lon="4.85777">
        <ele>165.8</ele>
        <time>2025-06-20T07:38:22Z</time>
      </trkpt>
      <trkpt lat="49.7135" lon="4.85791">
        <ele>166.5</ele>
        <time>2025-06-20T07:38:26Z</time>
      </trkpt>
      <trkpt lat="49.71334" lon="4.85804">
        <ele>166.9</ele>
        <time>2025-06-20T07:38:30Z</time>
      </trkpt>
      <trkpt lat="49.71316" lon="4.85815">
        <ele>166.6</ele>
        <time>2025-06-20T07:38:34Z</time>
      </trkpt>
      <trkpt lat="49.71299" lon="4.85828">
        <ele>166.8</ele>
        <time>2025-06-20T07:38:38Z</time>
      </trkpt>
      <trkpt lat="49.71282" lon="4.85841">
        <ele>167</ele>
        <time>2025-06-20T07:38:42Z</time>
      </trkpt>
      <trkpt lat="49.71264" lon="4.85855">
        <ele>166.5</ele>
        <time>2025-06-20T07:38:46Z</time>
      </trkpt>
      <trkpt lat="49.71244" lon="4.8587">
        <ele>165.5</ele>
        <time>2025-06-20T07:38:50Z</time>
      </trkpt>
      <trkpt lat="49.71225" lon="4.85891">
        <ele>164.9</ele>
        <time>2025-06-20T07:38:54Z</time>
      </trkpt>
      <trkpt lat="49.71206" lon="4.85918">
        <ele>163.4</ele>
        <time>2025-06-20T07:38:58Z</time>
      </trkpt>
      <trkpt lat="49.7119" lon="4.85945">
        <ele>163.8</ele>
        <time>2025-06-20T07:39:02Z</time>
      </trkpt>
      <trkpt lat="49.71176" lon="4.8597">
        <ele>163.9</ele>
        <time>2025-06-20T07:39:06Z</time>
      </trkpt>
      <trkpt lat="49.7116" lon="4.85993">
        <ele>164</ele>
        <time>2025-06-20T07:39:10Z</time>
      </trkpt>
      <trkpt lat="49.71143" lon="4.86015">
        <ele>164.5</ele>
        <time>2025-06-20T07:39:14Z</time>
      </trkpt>
      <trkpt lat="49.71126" lon="4.86035">
        <ele>165.6</ele>
        <time>2025-06-20T07:39:18Z</time>
      </trkpt>
      <trkpt lat="49.71111" lon="4.86052">
        <ele>166</ele>
        <time>2025-06-20T07:39:22Z</time>
      </trkpt>
      <trkpt lat="49.71095" lon="4.86069">
        <ele>166.7</ele>
        <time>2025-06-20T07:39:26Z</time>
      </trkpt>
      <trkpt lat="49.71079" lon="4.86087">
        <ele>166.1</ele>
        <time>2025-06-20T07:39:30Z</time>
      </trkpt>
      <trkpt lat="49.71061" lon="4.86103">
        <ele>166.1</ele>
        <time>2025-06-20T07:39:34Z</time>
      </trkpt>
      <trkpt lat="49.71041" lon="4.86119">
        <ele>165.5</ele>
        <time>2025-06-20T07:39:38Z</time>
      </trkpt>
      <trkpt lat="49.7102" lon="4.86136">
        <ele>164.5</ele>
        <time>2025-06-20T07:39:42Z</time>
      </trkpt>
      <trkpt lat="49.70997" lon="4.86154">
        <ele>162.9</ele>
        <time>2025-06-20T07:39:46Z</time>
      </trkpt>
      <trkpt lat="49.70971" lon="4.8617">
        <ele>161.8</ele>
        <time>2025-06-20T07:39:50Z</time>
      </trkpt>
      <trkpt lat="49.70941" lon="4.86185">
        <ele>159.9</ele>
        <time>2025-06-20T07:39:54Z</time>
      </trkpt>
      <trkpt lat="49.7091" lon="4.86202">
        <ele>158.8</ele>
        <time>2025-06-20T07:39:58Z</time>
      </trkpt>
      <trkpt lat="49.70883" lon="4.86222">
        <ele>158</ele>
        <time>2025-06-20T07:40:02Z</time>
      </trkpt>
      <trkpt lat="49.7086" lon="4.86246">
        <ele>158</ele>
        <time>2025-06-20T07:40:06Z</time>
      </trkpt>
      <trkpt lat="49.70841" lon="4.86273">
        <ele>158</ele>
        <time>2025-06-20T07:40:10Z</time>
      </trkpt>
      <trkpt lat="49.70826" lon="4.86303">
        <ele>158</ele>
        <time>2025-06-20T07:40:14Z</time>
      </trkpt>
      <trkpt lat="49.70814" lon="4.86334">
        <ele>158</ele>
        <time>2025-06-20T07:40:18Z</time>
      </trkpt>
      <trkpt lat="49.70804" lon="4.86366">
        <ele>158.1</ele>
        <time>2025-06-20T07:40:22Z</time>
      </trkpt>
      <trkpt lat="49.70794" lon="4.86396">
        <ele>158.4</ele>
        <time>2025-06-20T07:40:26Z</time>
      </trkpt>
      <trkpt lat="49.70785" lon="4.86427">
        <ele>158.8</ele>
        <time>2025-06-20T07:40:30Z</time>
      </trkpt>
      <trkpt lat="49.70776" lon="4.86457">
        <ele>159.1</ele>
        <time>2025-06-20T07:40:34Z</time>
      </trkpt>
      <trkpt lat="49.70766" lon="4.86487">
        <ele>160.2</ele>
        <time>2025-06-20T07:40:38Z</time>
      </trkpt>
      <trkpt lat="49.70757" lon="4.86517">
        <ele>160.7</ele>
        <time>2025-06-20T07:40:42Z</time>
      </trkpt>
      <trkpt lat="49.70748" lon="4.86548">
        <ele>160.4</ele>
        <time>2025-06-20T07:40:46Z</time>
      </trkpt>
      <trkpt lat="49.70739" lon="4.86578">
        <ele>161.3</ele>
        <time>2025-06-20T07:40:50Z</time>
      </trkpt>
      <trkpt lat="49.7073" lon="4.86607">
        <ele>161.3</ele>
        <time>2025-06-20T07:40:54Z</time>
      </trkpt>
      <trkpt lat="49.70721" lon="4.86636">
        <ele>161</ele>
        <time>2025-06-20T07:40:58Z</time>
      </trkpt>
      <trkpt lat="49.70712" lon="4.86664">
        <ele>161.6</ele>
        <time>2025-06-20T07:41:02Z</time>
      </trkpt>
      <trkpt lat="49.70704" lon="4.86692">
        <ele>161.3</ele>
        <time>2025-06-20T07:41:06Z</time>
      </trkpt>
      <trkpt lat="49.70696" lon="4.86721">
        <ele>161.1</ele>
        <time>2025-06-20T07:41:10Z</time>
      </trkpt>
      <trkpt lat="49.70687" lon="4.86749">
        <ele>160.7</ele>
        <time>2025-06-20T07:41:14Z</time>
      </trkpt>
      <trkpt lat="49.70678" lon="4.86777">
        <ele>161</ele>
        <time>2025-06-20T07:41:18Z</time>
      </trkpt>
      <trkpt lat="49.7067" lon="4.86806">
        <ele>161.9</ele>
        <time>2025-06-20T07:41:22Z</time>
      </trkpt>
      <trkpt lat="49.70661" lon="4.86836">
        <ele>162</ele>
        <time>2025-06-20T07:41:26Z</time>
      </trkpt>
      <trkpt lat="49.70652" lon="4.86864">
        <ele>162.5</ele>
        <time>2025-06-20T07:41:30Z</time>
      </trkpt>
      <trkpt lat="49.70642" lon="4.86891">
        <ele>162.9</ele>
        <time>2025-06-20T07:41:34Z</time>
      </trkpt>
      <trkpt lat="49.7063" lon="4.86915">
        <ele>163</ele>
        <time>2025-06-20T07:41:38Z</time>
      </trkpt>
      <trkpt lat="49.70618" lon="4.86935">
        <ele>163.2</ele>
        <time>2025-06-20T07:41:42Z</time>
      </trkpt>
      <trkpt lat="49.70605" lon="4.86953">
        <ele>163</ele>
        <time>2025-06-20T07:41:46Z</time>
      </trkpt>
      <trkpt lat="49.70589" lon="4.86971">
        <ele>162.4</ele>
        <time>2025-06-20T07:41:50Z</time>
      </trkpt>
      <trkpt lat="49.70572" lon="4.86986">
        <ele>161.6</ele>
        <time>2025-06-20T07:41:54Z</time>
      </trkpt>
      <trkpt lat="49.70552" lon="4.87002">
        <ele>160.9</ele>
        <time>2025-06-20T07:41:58Z</time>
      </trkpt>
      <trkpt lat="49.70529" lon="4.8702">
        <ele>160</ele>
        <time>2025-06-20T07:42:02Z</time>
      </trkpt>
      <trkpt lat="49.70505" lon="4.87039">
        <ele>159.2</ele>
        <time>2025-06-20T07:42:06Z</time>
      </trkpt>
      <trkpt lat="49.7048" lon="4.87058">
        <ele>158.3</ele>
        <time>2025-06-20T07:42:10Z</time>
      </trkpt>
      <trkpt lat="49.70455" lon="4.87079">
        <ele>157.5</ele>
        <time>2025-06-20T07:42:14Z</time>
      </trkpt>
      <trkpt lat="49.70431" lon="4.871">
        <ele>157.2</ele>
        <time>2025-06-20T07:42:18Z</time>
      </trkpt>
      <trkpt lat="49.70408" lon="4.87121">
        <ele>156.3</ele>
        <time>2025-06-20T07:42:22Z</time>
      </trkpt>
      <trkpt lat="49.70385" lon="4.87143">
        <ele>155</ele>
        <time>2025-06-20T07:42:26Z</time>
      </trkpt>
      <trkpt lat="49.70362" lon="4.87164">
        <ele>155</ele>
        <time>2025-06-20T07:42:30Z</time>
      </trkpt>
      <trkpt lat="49.70337" lon="4.87179">
        <ele>154.1</ele>
        <time>2025-06-20T07:42:34Z</time>
      </trkpt>
      <trkpt lat="49.7031" lon="4.87177">
        <ele>153.2</ele>
        <time>2025-06-20T07:42:38Z</time>
      </trkpt>
      <trkpt lat="49.70286" lon="4.87168">
        <ele>153</ele>
        <time>2025-06-20T07:42:42Z</time>
      </trkpt>
      <trkpt lat="49.70263" lon="4.87164">
        <ele>153</ele>
        <time>2025-06-20T07:42:46Z</time>
      </trkpt>
      <trkpt lat="49.7024" lon="4.87166">
        <ele>153</ele>
        <time>2025-06-20T07:42:50Z</time>
      </trkpt>
      <trkpt lat="49.70218" lon="4.87172">
        <ele>153</ele>
        <time>2025-06-20T07:42:54Z</time>
      </trkpt>
      <trkpt lat="49.70196" lon="4.87178">
        <ele>153</ele>
        <time>2025-06-20T07:42:58Z</time>
      </trkpt>
      <trkpt lat="49.70179" lon="4.87192">
        <ele>153</ele>
        <time>2025-06-20T07:43:02Z</time>
      </trkpt>
      <trkpt lat="49.7016" lon="4.87202">
        <ele>153</ele>
        <time>2025-06-20T07:43:06Z</time>
      </trkpt>
      <trkpt lat="49.70141" lon="4.87218">
        <ele>153</ele>
        <time>2025-06-20T07:43:10Z</time>
      </trkpt>
      <trkpt lat="49.70119" lon="4.87222">
        <ele>152.3</ele>
        <time>2025-06-20T07:43:14Z</time>
      </trkpt>
      <trkpt lat="49.70096" lon="4.87216">
        <ele>152.1</ele>
        <time>2025-06-20T07:43:18Z</time>
      </trkpt>
      <trkpt lat="49.70073" lon="4.87208">
        <ele>152</ele>
        <time>2025-06-20T07:43:22Z</time>
      </trkpt>
      <trkpt lat="49.7005" lon="4.872">
        <ele>152</ele>
        <time>2025-06-20T07:43:26Z</time>
      </trkpt>
      <trkpt lat="49.70027" lon="4.87187">
        <ele>152</ele>
        <time>2025-06-20T07:43:30Z</time>
      </trkpt>
      <trkpt lat="49.70006" lon="4.87168">
        <ele>152</ele>
        <time>2025-06-20T07:43:34Z</time>
      </trkpt>
      <trkpt lat="49.69987" lon="4.87147">
        <ele>151.5</ele>
        <time>2025-06-20T07:43:38Z</time>
      </trkpt>
      <trkpt lat="49.69969" lon="4.87127">
        <ele>151.7</ele>
        <time>2025-06-20T07:43:42Z</time>
      </trkpt>
      <trkpt lat="49.69953" lon="4.8711">
        <ele>153</ele>
        <time>2025-06-20T07:43:46Z</time>
      </trkpt>
      <trkpt lat="49.69936" lon="4.87096">
        <ele>153.9</ele>
        <time>2025-06-20T07:43:50Z</time>
      </trkpt>
      <trkpt lat="49.69919" lon="4.87087">
        <ele>155.7</ele>
        <time>2025-06-20T07:43:54Z</time>
      </trkpt>
      <trkpt lat="49.69902" lon="4.87079">
        <ele>153.3</ele>
        <time>2025-06-20T07:43:58Z</time>
      </trkpt>
      <trkpt lat="49.69884" lon="4.87074">
        <ele>151.5</ele>
        <time>2025-06-20T07:44:02Z</time>
      </trkpt>
      <trkpt lat="49.69864" lon="4.87068">
        <ele>153.8</ele>
        <time>2025-06-20T07:44:06Z</time>
      </trkpt>
      <trkpt lat="49.69842" lon="4.87064">
        <ele>153.5</ele>
        <time>2025-06-20T07:44:10Z</time>
      </trkpt>
      <trkpt lat="49.69816" lon="4.87072">
        <ele>152.3</ele>
        <time>2025-06-20T07:44:14Z</time>
      </trkpt>
      <trkpt lat="49.69789" lon="4.87096">
        <ele>152.1</ele>
        <time>2025-06-20T07:44:18Z</time>
      </trkpt>
      <trkpt lat="49.69769" lon="4.87137">
        <ele>150.1</ele>
        <time>2025-06-20T07:44:22Z</time>
      </trkpt>
      <trkpt lat="49.69757" lon="4.87186">
        <ele>150</ele>
        <time>2025-06-20T07:44:26Z</time>
      </trkpt>
      <trkpt lat="49.69749" lon="4.87231">
        <ele>150</ele>
        <time>2025-06-20T07:44:30Z</time>
      </trkpt>
      <trkpt lat="49.69747" lon="4.87271">
        <ele>150</ele>
        <time>2025-06-20T07:44:34Z</time>
      </trkpt>
      <trkpt lat="49.69747" lon="4.87309">
        <ele>150</ele>
        <time>2025-06-20T07:44:38Z</time>
      </trkpt>
      <trkpt lat="49.69748" lon="4.87346">
        <ele>150</ele>
        <time>2025-06-20T07:44:42Z</time>
      </trkpt>
      <trkpt lat="49.69749" lon="4.87382">
        <ele>150</ele>
        <time>2025-06-20T07:44:46Z</time>
      </trkpt>
      <trkpt lat="49.69749" lon="4.87418">
        <ele>150</ele>
        <time>2025-06-20T07:44:50Z</time>
      </trkpt>
      <trkpt lat="49.69739" lon="4.87447">
        <ele>150.5</ele>
        <time>2025-06-20T07:44:54Z</time>
      </trkpt>
      <trkpt lat="49.69725" lon="4.87473">
        <ele>151</ele>
        <time>2025-06-20T07:44:58Z</time>
      </trkpt>
      <trkpt lat="49.69705" lon="4.87487">
        <ele>151</ele>
        <time>2025-06-20T07:45:02Z</time>
      </trkpt>
      <trkpt lat="49.69681" lon="4.87489">
        <ele>151</ele>
        <time>2025-06-20T07:45:06Z</time>
      </trkpt>
      <trkpt lat="49.69659" lon="4.87487">
        <ele>151</ele>
        <time>2025-06-20T07:45:10Z</time>
      </trkpt>
      <trkpt lat="49.69637" lon="4.87483">
        <ele>151</ele>
        <time>2025-06-20T07:45:14Z</time>
      </trkpt>
      <trkpt lat="49.69615" lon="4.8748">
        <ele>151</ele>
        <time>2025-06-20T07:45:18Z</time>
      </trkpt>
      <trkpt lat="49.69593" lon="4.87478">
        <ele>151</ele>
        <time>2025-06-20T07:45:22Z</time>
      </trkpt>
      <trkpt lat="49.69571" lon="4.87476">
        <ele>151</ele>
        <time>2025-06-20T07:45:26Z</time>
      </trkpt>
      <trkpt lat="49.6955" lon="4.87473">
        <ele>151</ele>
        <time>2025-06-20T07:45:30Z</time>
      </trkpt>
      <trkpt lat="49.69528" lon="4.87471">
        <ele>151</ele>
        <time>2025-06-20T07:45:34Z</time>
      </trkpt>
      <trkpt lat="49.69507" lon="4.87468">
        <ele>151</ele>
        <time>2025-06-20T07:45:38Z</time>
      </trkpt>
      <trkpt lat="49.69485" lon="4.87466">
        <ele>150.9</ele>
        <time>2025-06-20T07:45:42Z</time>
      </trkpt>
      <trkpt lat="49.69462" lon="4.87465">
        <ele>150.7</ele>
        <time>2025-06-20T07:45:46Z</time>
      </trkpt>
      <trkpt lat="49.69439" lon="4.87465">
        <ele>150.7</ele>
        <time>2025-06-20T07:45:50Z</time>
      </trkpt>
      <trkpt lat="49.69416" lon="4.87466">
        <ele>150.7</ele>
        <time>2025-06-20T07:45:54Z</time>
      </trkpt>
      <trkpt lat="49.69396" lon="4.87466">
        <ele>149.3</ele>
        <time>2025-06-20T07:45:58Z</time>
      </trkpt>
      <trkpt lat="49.69376" lon="4.87464">
        <ele>147.9</ele>
        <time>2025-06-20T07:46:02Z</time>
      </trkpt>
      <trkpt lat="49.69355" lon="4.87463">
        <ele>147</ele>
        <time>2025-06-20T07:46:06Z</time>
      </trkpt>
      <trkpt lat="49.69334" lon="4.87462">
        <ele>147</ele>
        <time>2025-06-20T07:46:10Z</time>
      </trkpt>
      <trkpt lat="49.69313" lon="4.87462">
        <ele>146.7</ele>
        <time>2025-06-20T07:46:14Z</time>
      </trkpt>
      <trkpt lat="49.69291" lon="4.87461">
        <ele>149.4</ele>
        <time>2025-06-20T07:46:18Z</time>
      </trkpt>
      <trkpt lat="49.6927" lon="4.8746">
        <ele>152.3</ele>
        <time>2025-06-20T07:46:22Z</time>
      </trkpt>
      <trkpt lat="49.6925" lon="4.87459">
        <ele>153</ele>
        <time>2025-06-20T07:46:26Z</time>
      </trkpt>
      <trkpt lat="49.69235" lon="4.87457">
        <ele>150.3</ele>
        <time>2025-06-20T07:46:30Z</time>
      </trkpt>
      <trkpt lat="49.6922" lon="4.87456">
        <ele>148.5</ele>
        <time>2025-06-20T07:46:34Z</time>
      </trkpt>
      <trkpt lat="49.69206" lon="4.87451">
        <ele>151.5</ele>
        <time>2025-06-20T07:46:38Z</time>
      </trkpt>
      <trkpt lat="49.69199" lon="4.8743">
        <ele>153.1</ele>
        <time>2025-06-20T07:46:42Z</time>
      </trkpt>
      <trkpt lat="49.69199" lon="4.87401">
        <ele>152.7</ele>
        <time>2025-06-20T07:46:46Z</time>
      </trkpt>
      <trkpt lat="49.69199" lon="4.87367">
        <ele>152.5</ele>
        <time>2025-06-20T07:46:50Z</time>
      </trkpt>
      <trkpt lat="49.69199" lon="4.87331">
        <ele>152.7</ele>
        <time>2025-06-20T07:46:54Z</time>
      </trkpt>
      <trkpt lat="49.69199" lon="4.87297">
        <ele>152.7</ele>
        <time>2025-06-20T07:46:58Z</time>
      </trkpt>
      <trkpt lat="49.69202" lon="4.87263">
        <ele>152.6</ele>
        <time>2025-06-20T07:47:02Z</time>
      </trkpt>
      <trkpt lat="49.69204" lon="4.87228">
        <ele>152.3</ele>
        <time>2025-06-20T07:47:06Z</time>
      </trkpt>
      <trkpt lat="49.69207" lon="4.87193">
        <ele>152.1</ele>
        <time>2025-06-20T07:47:10Z</time>
      </trkpt>
      <trkpt lat="49.6921" lon="4.87159">
        <ele>152.3</ele>
        <time>2025-06-20T07:47:14Z</time>
      </trkpt>
      <trkpt lat="49.69213" lon="4.87124">
        <ele>152</ele>
        <time>2025-06-20T07:47:18Z</time>
      </trkpt>
      <trkpt lat="49.69216" lon="4.8709">
        <ele>152.4</ele>
        <time>2025-06-20T07:47:22Z</time>
      </trkpt>
      <trkpt lat="49.69218" lon="4.87056">
        <ele>153.3</ele>
        <time>2025-06-20T07:47:26Z</time>
      </trkpt>
      <trkpt lat="49.69221" lon="4.87021">
        <ele>153.1</ele>
        <time>2025-06-20T07:47:30Z</time>
      </trkpt>
      <trkpt lat="49.69224" lon="4.86987">
        <ele>152.8</ele>
        <time>2025-06-20T07:47:34Z</time>
      </trkpt>
      <trkpt lat="49.69226" lon="4.86953">
        <ele>152.6</ele>
        <time>2025-06-20T07:47:38Z</time>
      </trkpt>
      <trkpt lat="49.69229" lon="4.86918">
        <ele>153.2</ele>
        <time>2025-06-20T07:47:42Z</time>
      </trkpt>
      <trkpt lat="49.69231" lon="4.86887">
        <ele>153.3</ele>
        <time>2025-06-20T07:47:46Z</time>
      </trkpt>
      <trkpt lat="49.69244" lon="4.86866">
        <ele>151.8</ele>
        <time>2025-06-20T07:47:50Z</time>
      </trkpt>
      <trkpt lat="49.69272" lon="4.86859">
        <ele>150.2</ele>
        <time>2025-06-20T07:47:54Z</time>
      </trkpt>
      <trkpt lat="49.69296" lon="4.86852">
        <ele>149.1</ele>
        <time>2025-06-20T07:47:58Z</time>
      </trkpt>
      <trkpt lat="49.69303" lon="4.86824">
        <ele>148.2</ele>
        <time>2025-06-20T07:48:02Z</time>
      </trkpt>
      <trkpt lat="49.69302" lon="4.86787">
        <ele>148.1</ele>
        <time>2025-06-20T07:48:06Z</time>
      </trkpt>
      <trkpt lat="49.69302" lon="4.86751">
        <ele>148.1</ele>
        <time>2025-06-20T07:48:10Z</time>
      </trkpt>
      <trkpt lat="49.69303" lon="4.86714">
        <ele>148.1</ele>
        <time>2025-06-20T07:48:14Z</time>
      </trkpt>
      <trkpt lat="49.69304" lon="4.86677">
        <ele>148.1</ele>
        <time>2025-06-20T07:48:18Z</time>
      </trkpt>
      <trkpt lat="49.69303" lon="4.86641">
        <ele>147.3</ele>
        <time>2025-06-20T07:48:22Z</time>
      </trkpt>
      <trkpt lat="49.69299" lon="4.86605">
        <ele>147.5</ele>
        <time>2025-06-20T07:48:26Z</time>
      </trkpt>
      <trkpt lat="49.69297" lon="4.8657">
        <ele>147.9</ele>
        <time>2025-06-20T07:48:30Z</time>
      </trkpt>
      <trkpt lat="49.69296" lon="4.86534">
        <ele>148.3</ele>
        <time>2025-06-20T07:48:34Z</time>
      </trkpt>
      <trkpt lat="49.69296" lon="4.86498">
        <ele>148.4</ele>
        <time>2025-06-20T07:48:38Z</time>
      </trkpt>
      <trkpt lat="49.69296" lon="4.86463">
        <ele>148.5</ele>
        <time>2025-06-20T07:48:42Z</time>
      </trkpt>
      <trkpt lat="49.69299" lon="4.8643">
        <ele>148.2</ele>
        <time>2025-06-20T07:48:46Z</time>
      </trkpt>
      <trkpt lat="49.69303" lon="4.86394">
        <ele>147.5</ele>
        <time>2025-06-20T07:48:50Z</time>
      </trkpt>
      <trkpt lat="49.69307" lon="4.86359">
        <ele>148</ele>
        <time>2025-06-20T07:48:54Z</time>
      </trkpt>
      <trkpt lat="49.69312" lon="4.86325">
        <ele>148.8</ele>
        <time>2025-06-20T07:48:58Z</time>
      </trkpt>
      <trkpt lat="49.69318" lon="4.8629">
        <ele>148.7</ele>
        <time>2025-06-20T07:49:02Z</time>
      </trkpt>
      <trkpt lat="49.69325" lon="4.86256">
        <ele>147.9</ele>
        <time>2025-06-20T07:49:06Z</time>
      </trkpt>
      <trkpt lat="49.69335" lon="4.86224">
        <ele>147.9</ele>
        <time>2025-06-20T07:49:10Z</time>
      </trkpt>
      <trkpt lat="49.69346" lon="4.86192">
        <ele>148.1</ele>
        <time>2025-06-20T07:49:14Z</time>
      </trkpt>
      <trkpt lat="49.69359" lon="4.86161">
        <ele>148.1</ele>
        <time>2025-06-20T07:49:18Z</time>
      </trkpt>
      <trkpt lat="49.69373" lon="4.86132">
        <ele>147.6</ele>
        <time>2025-06-20T07:49:22Z</time>
      </trkpt>
      <trkpt lat="49.69387" lon="4.86102">
        <ele>147.4</ele>
        <time>2025-06-20T07:49:26Z</time>
      </trkpt>
      <trkpt lat="49.69401" lon="4.86074">
        <ele>147.3</ele>
        <time>2025-06-20T07:49:30Z</time>
      </trkpt>
      <trkpt lat="49.69416" lon="4.86049">
        <ele>147.3</ele>
        <time>2025-06-20T07:49:34Z</time>
      </trkpt>
      <trkpt lat="49.69432" lon="4.86023">
        <ele>147.5</ele>
        <time>2025-06-20T07:49:38Z</time>
      </trkpt>
      <trkpt lat="49.6945" lon="4.86">
        <ele>147.6</ele>
        <time>2025-06-20T07:49:42Z</time>
      </trkpt>
      <trkpt lat="49.6947" lon="4.85981">
        <ele>147.4</ele>
        <time>2025-06-20T07:49:46Z</time>
      </trkpt>
      <trkpt lat="49.69489" lon="4.85961">
        <ele>147.3</ele>
        <time>2025-06-20T07:49:50Z</time>
      </trkpt>
      <trkpt lat="49.69507" lon="4.8594">
        <ele>147.7</ele>
        <time>2025-06-20T07:49:54Z</time>
      </trkpt>
      <trkpt lat="49.69522" lon="4.85916">
        <ele>147.2</ele>
        <time>2025-06-20T07:49:58Z</time>
      </trkpt>
      <trkpt lat="49.69539" lon="4.85893">
        <ele>147.5</ele>
        <time>2025-06-20T07:50:02Z</time>
      </trkpt>
      <trkpt lat="49.69556" lon="4.85873">
        <ele>147.6</ele>
        <time>2025-06-20T07:50:06Z</time>
      </trkpt>
      <trkpt lat="49.69575" lon="4.85853">
        <ele>147.5</ele>
        <time>2025-06-20T07:50:10Z</time>
      </trkpt>
      <trkpt lat="49.69597" lon="4.85836">
        <ele>147.4</ele>
        <time>2025-06-20T07:50:14Z</time>
      </trkpt>
      <trkpt lat="49.69619" lon="4.85821">
        <ele>147.3</ele>
        <time>2025-06-20T07:50:18Z</time>
      </trkpt>
      <trkpt lat="49.6964" lon="4.85808">
        <ele>147.8</ele>
        <time>2025-06-20T07:50:22Z</time>
      </trkpt>
      <trkpt lat="49.69661" lon="4.85793">
        <ele>147</ele>
        <time>2025-06-20T07:50:26Z</time>
      </trkpt>
      <trkpt lat="49.69682" lon="4.85778">
        <ele>147.4</ele>
        <time>2025-06-20T07:50:30Z</time>
      </trkpt>
      <trkpt lat="49.69703" lon="4.85763">
        <ele>147.5</ele>
        <time>2025-06-20T07:50:34Z</time>
      </trkpt>
      <trkpt lat="49.69725" lon="4.85748">
        <ele>147.9</ele>
        <time>2025-06-20T07:50:38Z</time>
      </trkpt>
      <trkpt lat="49.69747" lon="4.85732">
        <ele>147.7</ele>
        <time>2025-06-20T07:50:42Z</time>
      </trkpt>
      <trkpt lat="49.69768" lon="4.85713">
        <ele>147.6</ele>
        <time>2025-06-20T07:50:46Z</time>
      </trkpt>
      <trkpt lat="49.69787" lon="4.85689">
        <ele>147.7</ele>
        <time>2025-06-20T07:50:50Z</time>
      </trkpt>
      <trkpt lat="49.69804" lon="4.85662">
        <ele>147.1</ele>
        <time>2025-06-20T07:50:54Z</time>
      </trkpt>
      <trkpt lat="49.69818" lon="4.85632">
        <ele>147.1</ele>
        <time>2025-06-20T07:50:58Z</time>
      </trkpt>
      <trkpt lat="49.69829" lon="4.85601">
        <ele>147.5</ele>
        <time>2025-06-20T07:51:02Z</time>
      </trkpt>
      <trkpt lat="49.69839" lon="4.85568">
        <ele>147.4</ele>
        <time>2025-06-20T07:51:06Z</time>
      </trkpt>
      <trkpt lat="49.69844" lon="4.85533">
        <ele>147</ele>
        <time>2025-06-20T07:51:10Z</time>
      </trkpt>
      <trkpt lat="49.69847" lon="4.85498">
        <ele>147</ele>
        <time>2025-06-20T07:51:14Z</time>
      </trkpt>
      <trkpt lat="49.69845" lon="4.85462">
        <ele>147</ele>
        <time>2025-06-20T07:51:18Z</time>
      </trkpt>
      <trkpt lat="49.69841" lon="4.8543">
        <ele>147.2</ele>
        <time>2025-06-20T07:51:22Z</time>
      </trkpt>
      <trkpt lat="49.69835" lon="4.85401">
        <ele>147.3</ele>
        <time>2025-06-20T07:51:26Z</time>
      </trkpt>
      <trkpt lat="49.69826" lon="4.85369">
        <ele>146.7</ele>
        <time>2025-06-20T07:51:30Z</time>
      </trkpt>
      <trkpt lat="49.69816" lon="4.85337">
        <ele>147.2</ele>
        <time>2025-06-20T07:51:34Z</time>
      </trkpt>
      <trkpt lat="49.69806" lon="4.85304">
        <ele>146.9</ele>
        <time>2025-06-20T07:51:38Z</time>
      </trkpt>
      <trkpt lat="49.69796" lon="4.85271">
        <ele>146.5</ele>
        <time>2025-06-20T07:51:42Z</time>
      </trkpt>
      <trkpt lat="49.69786" lon="4.85241">
        <ele>146.9</ele>
        <time>2025-06-20T07:51:46Z</time>
      </trkpt>
      <trkpt lat="49.69775" lon="4.85215">
        <ele>146.8</ele>
        <time>2025-06-20T07:51:50Z</time>
      </trkpt>
      <trkpt lat="49.69767" lon="4.85192">
        <ele>146.7</ele>
        <time>2025-06-20T07:51:54Z</time>
      </trkpt>
      <trkpt lat="49.69756" lon="4.85165">
        <ele>146.7</ele>
        <time>2025-06-20T07:51:58Z</time>
      </trkpt>
      <trkpt lat="49.69745" lon="4.85138">
        <ele>146.4</ele>
        <time>2025-06-20T07:52:02Z</time>
      </trkpt>
      <trkpt lat="49.69735" lon="4.85108">
        <ele>147</ele>
        <time>2025-06-20T07:52:06Z</time>
      </trkpt>
      <trkpt lat="49.6973" lon="4.85077">
        <ele>146.8</ele>
        <time>2025-06-20T07:52:10Z</time>
      </trkpt>
      <trkpt lat="49.69723" lon="4.85038">
        <ele>147</ele>
        <time>2025-06-20T07:52:14Z</time>
      </trkpt>
      <trkpt lat="49.69718" lon="4.84998">
        <ele>147</ele>
        <time>2025-06-20T07:52:18Z</time>
      </trkpt>
      <trkpt lat="49.69716" lon="4.84959">
        <ele>146.9</ele>
        <time>2025-06-20T07:52:22Z</time>
      </trkpt>
      <trkpt lat="49.69714" lon="4.84921">
        <ele>147.2</ele>
        <time>2025-06-20T07:52:26Z</time>
      </trkpt>
      <trkpt lat="49.69712" lon="4.84883">
        <ele>147.2</ele>
        <time>2025-06-20T07:52:30Z</time>
      </trkpt>
      <trkpt lat="49.69713" lon="4.84846">
        <ele>146.7</ele>
        <time>2025-06-20T07:52:34Z</time>
      </trkpt>
      <trkpt lat="49.69714" lon="4.84807">
        <ele>146.3</ele>
        <time>2025-06-20T07:52:38Z</time>
      </trkpt>
      <trkpt lat="49.69716" lon="4.84769">
        <ele>147</ele>
        <time>2025-06-20T07:52:42Z</time>
      </trkpt>
      <trkpt lat="49.6972" lon="4.84733">
        <ele>147.6</ele>
        <time>2025-06-20T07:52:46Z</time>
      </trkpt>
      <trkpt lat="49.69724" lon="4.84699">
        <ele>147.9</ele>
        <time>2025-06-20T07:52:50Z</time>
      </trkpt>
      <trkpt lat="49.69729" lon="4.84665">
        <ele>147.5</ele>
        <time>2025-06-20T07:52:54Z</time>
      </trkpt>
      <trkpt lat="49.69734" lon="4.8463">
        <ele>147.3</ele>
        <time>2025-06-20T07:52:58Z</time>
      </trkpt>
      <trkpt lat="49.69739" lon="4.84594">
        <ele>146.8</ele>
        <time>2025-06-20T07:53:02Z</time>
      </trkpt>
      <trkpt lat="49.69744" lon="4.8456">
        <ele>147</ele>
        <time>2025-06-20T07:53:06Z</time>
      </trkpt>
      <trkpt lat="49.69748" lon="4.84526">
        <ele>147.1</ele>
        <time>2025-06-20T07:53:10Z</time>
      </trkpt>
      <trkpt lat="49.69752" lon="4.84493">
        <ele>147.9</ele>
        <time>2025-06-20T07:53:14Z</time>
      </trkpt>
      <trkpt lat="49.69756" lon="4.84459">
        <ele>147.6</ele>
        <time>2025-06-20T07:53:18Z</time>
      </trkpt>
      <trkpt lat="49.69759" lon="4.84424">
        <ele>147.4</ele>
        <time>2025-06-20T07:53:22Z</time>
      </trkpt>
      <trkpt lat="49.6976" lon="4.84389">
        <ele>147.3</ele>
        <time>2025-06-20T07:53:26Z</time>
      </trkpt>
      <trkpt lat="49.69759" lon="4.84354">
        <ele>147.4</ele>
        <time>2025-06-20T07:53:30Z</time>
      </trkpt>
      <trkpt lat="49.69757" lon="4.84319">
        <ele>147.6</ele>
        <time>2025-06-20T07:53:34Z</time>
      </trkpt>
      <trkpt lat="49.69754" lon="4.84284">
        <ele>147.9</ele>
        <time>2025-06-20T07:53:38Z</time>
      </trkpt>
      <trkpt lat="49.69749" lon="4.84249">
        <ele>147</ele>
        <time>2025-06-20T07:53:42Z</time>
      </trkpt>
      <trkpt lat="49.69746" lon="4.84218">
        <ele>147.1</ele>
        <time>2025-06-20T07:53:46Z</time>
      </trkpt>
      <trkpt lat="49.69741" lon="4.84184">
        <ele>147.1</ele>
        <time>2025-06-20T07:53:50Z</time>
      </trkpt>
      <trkpt lat="49.69736" lon="4.84154">
        <ele>147.5</ele>
        <time>2025-06-20T07:53:54Z</time>
      </trkpt>
      <trkpt lat="49.69728" lon="4.84124">
        <ele>147.8</ele>
        <time>2025-06-20T07:53:58Z</time>
      </trkpt>
      <trkpt lat="49.69722" lon="4.84093">
        <ele>147.4</ele>
        <time>2025-06-20T07:54:02Z</time>
      </trkpt>
      <trkpt lat="49.6972" lon="4.84057">
        <ele>147</ele>
        <time>2025-06-20T07:54:06Z</time>
      </trkpt>
      <trkpt lat="49.6972" lon="4.84016">
        <ele>146.6</ele>
        <time>2025-06-20T07:54:10Z</time>
      </trkpt>
      <trkpt lat="49.69722" lon="4.83981">
        <ele>147</ele>
        <time>2025-06-20T07:54:14Z</time>
      </trkpt>
      <trkpt lat="49.69726" lon="4.83946">
        <ele>147.7</ele>
        <time>2025-06-20T07:54:18Z</time>
      </trkpt>
      <trkpt lat="49.69732" lon="4.83912">
        <ele>147.3</ele>
        <time>2025-06-20T07:54:22Z</time>
      </trkpt>
      <trkpt lat="49.6974" lon="4.83879">
        <ele>146.7</ele>
        <time>2025-06-20T07:54:26Z</time>
      </trkpt>
      <trkpt lat="49.69747" lon="4.83845">
        <ele>146.7</ele>
        <time>2025-06-20T07:54:30Z</time>
      </trkpt>
      <trkpt lat="49.69753" lon="4.83812">
        <ele>147</ele>
        <time>2025-06-20T07:54:34Z</time>
      </trkpt>
      <trkpt lat="49.69752" lon="4.83776">
        <ele>146.9</ele>
        <time>2025-06-20T07:54:38Z</time>
      </trkpt>
      <trkpt lat="49.69749" lon="4.83739">
        <ele>147</ele>
        <time>2025-06-20T07:54:42Z</time>
      </trkpt>
      <trkpt lat="49.69744" lon="4.83705">
        <ele>146.7</ele>
        <time>2025-06-20T07:54:46Z</time>
      </trkpt>
      <trkpt lat="49.69737" lon="4.83669">
        <ele>146.9</ele>
        <time>2025-06-20T07:54:50Z</time>
      </trkpt>
      <trkpt lat="49.69727" lon="4.83635">
        <ele>146.8</ele>
        <time>2025-06-20T07:54:54Z</time>
      </trkpt>
      <trkpt lat="49.69715" lon="4.83604">
        <ele>147.1</ele>
        <time>2025-06-20T07:54:58Z</time>
      </trkpt>
      <trkpt lat="49.69703" lon="4.83573">
        <ele>147.1</ele>
        <time>2025-06-20T07:55:02Z</time>
      </trkpt>
      <trkpt lat="49.69689" lon="4.83544">
        <ele>146.9</ele>
        <time>2025-06-20T07:55:06Z</time>
      </trkpt>
      <trkpt lat="49.69676" lon="4.83514">
        <ele>147.3</ele>
        <time>2025-06-20T07:55:10Z</time>
      </trkpt>
      <trkpt lat="49.69663" lon="4.83483">
        <ele>147.4</ele>
        <time>2025-06-20T07:55:14Z</time>
      </trkpt>
      <trkpt lat="49.69648" lon="4.83454">
        <ele>147.2</ele>
        <time>2025-06-20T07:55:18Z</time>
      </trkpt>
      <trkpt lat="49.69634" lon="4.83425">
        <ele>147</ele>
        <time>2025-06-20T07:55:22Z</time>
      </trkpt>
      <trkpt lat="49.69621" lon="4.83394">
        <ele>146.7</ele>
        <time>2025-06-20T07:55:26Z</time>
      </trkpt>
      <trkpt lat="49.69605" lon="4.83367">
        <ele>147</ele>
        <time>2025-06-20T07:55:30Z</time>
      </trkpt>
      <trkpt lat="49.69588" lon="4.8334">
        <ele>146.9</ele>
        <time>2025-06-20T07:55:34Z</time>
      </trkpt>
      <trkpt lat="49.69573" lon="4.83313">
        <ele>146.5</ele>
        <time>2025-06-20T07:55:38Z</time>
      </trkpt>
      <trkpt lat="49.69555" lon="4.83288">
        <ele>146.4</ele>
        <time>2025-06-20T07:55:42Z</time>
      </trkpt>
      <trkpt lat="49.69538" lon="4.83262">
        <ele>147</ele>
        <time>2025-06-20T07:55:46Z</time>
      </trkpt>
      <trkpt lat="49.69521" lon="4.83237">
        <ele>147.3</ele>
        <time>2025-06-20T07:55:50Z</time>
      </trkpt>
      <trkpt lat="49.69505" lon="4.83211">
        <ele>146.4</ele>
        <time>2025-06-20T07:55:54Z</time>
      </trkpt>
      <trkpt lat="49.69489" lon="4.83185">
        <ele>146.8</ele>
        <time>2025-06-20T07:55:58Z</time>
      </trkpt>
      <trkpt lat="49.69475" lon="4.83162">
        <ele>146.8</ele>
        <time>2025-06-20T07:56:02Z</time>
      </trkpt>
      <trkpt lat="49.69462" lon="4.8314">
        <ele>146.4</ele>
        <time>2025-06-20T07:56:06Z</time>
      </trkpt>
      <trkpt lat="49.69451" lon="4.83113">
        <ele>146.8</ele>
        <time>2025-06-20T07:56:10Z</time>
      </trkpt>
      <trkpt lat="49.6944" lon="4.83084">
        <ele>147</ele>
        <time>2025-06-20T07:56:14Z</time>
      </trkpt>
      <trkpt lat="49.69428" lon="4.83053">
        <ele>146.6</ele>
        <time>2025-06-20T07:56:18Z</time>
      </trkpt>
      <trkpt lat="49.69417" lon="4.83023">
        <ele>146.8</ele>
        <time>2025-06-20T07:56:22Z</time>
      </trkpt>
      <trkpt lat="49.69405" lon="4.82994">
        <ele>146.9</ele>
        <time>2025-06-20T07:56:26Z</time>
      </trkpt>
      <trkpt lat="49.69396" lon="4.82969">
        <ele>148.3</ele>
        <time>2025-06-20T07:56:30Z</time>
      </trkpt>
      <trkpt lat="49.69385" lon="4.82948">
        <ele>149.7</ele>
        <time>2025-06-20T07:56:34Z</time>
      </trkpt>
      <trkpt lat="49.69374" lon="4.82932">
        <ele>148.9</ele>
        <time>2025-06-20T07:56:38Z</time>
      </trkpt>
      <trkpt lat="49.69362" lon="4.82925">
        <ele>149.6</ele>
        <time>2025-06-20T07:56:42Z</time>
      </trkpt>
      <trkpt lat="49.69352" lon="4.82941">
        <ele>149.1</ele>
        <time>2025-06-20T07:56:46Z</time>
      </trkpt>
      <trkpt lat="49.69345" lon="4.82972">
        <ele>148.4</ele>
        <time>2025-06-20T07:56:50Z</time>
      </trkpt>
      <trkpt lat="49.69339" lon="4.83003">
        <ele>149.9</ele>
        <time>2025-06-20T07:56:54Z</time>
      </trkpt>
      <trkpt lat="49.69334" lon="4.83032">
        <ele>150.8</ele>
        <time>2025-06-20T07:56:58Z</time>
      </trkpt>
      <trkpt lat="49.69327" lon="4.83063">
        <ele>149.3</ele>
        <time>2025-06-20T07:57:02Z</time>
      </trkpt>
      <trkpt lat="49.69321" lon="4.83095">
        <ele>148.8</ele>
        <time>2025-06-20T07:57:06Z</time>
      </trkpt>
      <trkpt lat="49.69315" lon="4.83127">
        <ele>149.1</ele>
        <time>2025-06-20T07:57:10Z</time>
      </trkpt>
      <trkpt lat="49.69307" lon="4.8316">
        <ele>149.8</ele>
        <time>2025-06-20T07:57:14Z</time>
      </trkpt>
      <trkpt lat="49.69301" lon="4.83191">
        <ele>149.5</ele>
        <time>2025-06-20T07:57:18Z</time>
      </trkpt>
      <trkpt lat="49.69295" lon="4.83222">
        <ele>148.9</ele>
        <time>2025-06-20T07:57:22Z</time>
      </trkpt>
      <trkpt lat="49.69289" lon="4.83254">
        <ele>148.9</ele>
        <time>2025-06-20T07:57:26Z</time>
      </trkpt>
      <trkpt lat="49.69282" lon="4.83285">
        <ele>149.3</ele>
        <time>2025-06-20T07:57:30Z</time>
      </trkpt>
      <trkpt lat="49.69275" lon="4.83315">
        <ele>149.7</ele>
        <time>2025-06-20T07:57:34Z</time>
      </trkpt>
      <trkpt lat="49.69269" lon="4.83347">
        <ele>149.2</ele>
        <time>2025-06-20T07:57:38Z</time>
      </trkpt>
      <trkpt lat="49.69262" lon="4.83378">
        <ele>149.2</ele>
        <time>2025-06-20T07:57:42Z</time>
      </trkpt>
      <trkpt lat="49.69256" lon="4.83409">
        <ele>149.2</ele>
        <time>2025-06-20T07:57:46Z</time>
      </trkpt>
      <trkpt lat="49.6925" lon="4.8344">
        <ele>149.8</ele>
        <time>2025-06-20T07:57:50Z</time>
      </trkpt>
      <trkpt lat="49.69243" lon="4.83471">
        <ele>149.2</ele>
        <time>2025-06-20T07:57:54Z</time>
      </trkpt>
      <trkpt lat="49.69237" lon="4.83502">
        <ele>148.6</ele>
        <time>2025-06-20T07:57:58Z</time>
      </trkpt>
      <trkpt lat="49.69231" lon="4.83532">
        <ele>149.5</ele>
        <time>2025-06-20T07:58:02Z</time>
      </trkpt>
      <trkpt lat="49.69223" lon="4.83562">
        <ele>150</ele>
        <time>2025-06-20T07:58:06Z</time>
      </trkpt>
      <trkpt lat="49.69217" lon="4.83593">
        <ele>149.4</ele>
        <time>2025-06-20T07:58:10Z</time>
      </trkpt>
      <trkpt lat="49.69211" lon="4.83623">
        <ele>148.7</ele>
        <time>2025-06-20T07:58:14Z</time>
      </trkpt>
      <trkpt lat="49.69205" lon="4.83652">
        <ele>148.9</ele>
        <time>2025-06-20T07:58:18Z</time>
      </trkpt>
      <trkpt lat="49.69199" lon="4.83682">
        <ele>149.7</ele>
        <time>2025-06-20T07:58:22Z</time>
      </trkpt>
      <trkpt lat="49.69193" lon="4.83712">
        <ele>149.8</ele>
        <time>2025-06-20T07:58:26Z</time>
      </trkpt>
      <trkpt lat="49.69187" lon="4.83743">
        <ele>148.6</ele>
        <time>2025-06-20T07:58:30Z</time>
      </trkpt>
      <trkpt lat="49.6918" lon="4.83774">
        <ele>148.4</ele>
        <time>2025-06-20T07:58:34Z</time>
      </trkpt>
      <trkpt lat="49.69174" lon="4.83805">
        <ele>150</ele>
        <time>2025-06-20T07:58:38Z</time>
      </trkpt>
      <trkpt lat="49.69167" lon="4.83836">
        <ele>149.9</ele>
        <time>2025-06-20T07:58:42Z</time>
      </trkpt>
      <trkpt lat="49.6916" lon="4.83864">
        <ele>149</ele>
        <time>2025-06-20T07:58:46Z</time>
      </trkpt>
      <trkpt lat="49.69148" lon="4.83888">
        <ele>149.7</ele>
        <time>2025-06-20T07:58:50Z</time>
      </trkpt>
      <trkpt lat="49.6913" lon="4.83904">
        <ele>149.6</ele>
        <time>2025-06-20T07:58:54Z</time>
      </trkpt>
      <trkpt lat="49.69109" lon="4.83912">
        <ele>150</ele>
        <time>2025-06-20T07:58:58Z</time>
      </trkpt>
      <trkpt lat="49.69089" lon="4.83914">
        <ele>150</ele>
        <time>2025-06-20T07:59:02Z</time>
      </trkpt>
      <trkpt lat="49.69072" lon="4.83915">
        <ele>150.4</ele>
        <time>2025-06-20T07:59:06Z</time>
      </trkpt>
      <trkpt lat="49.69058" lon="4.83914">
        <ele>151</ele>
        <time>2025-06-20T07:59:10Z</time>
      </trkpt>
      <trkpt lat="49.69045" lon="4.83919">
        <ele>151.6</ele>
        <time>2025-06-20T07:59:14Z</time>
      </trkpt>
      <trkpt lat="49.69041" lon="4.83929">
        <ele>151.4</ele>
        <time>2025-06-20T07:59:18Z</time>
      </trkpt>
      <trkpt lat="49.69038" lon="4.83931">
        <ele>151.6</ele>
        <time>2025-06-20T07:59:22Z</time>
      </trkpt>
      <trkpt lat="49.69031" lon="4.83935">
        <ele>152</ele>
        <time>2025-06-20T07:59:26Z</time>
      </trkpt>
      <trkpt lat="49.69017" lon="4.83938">
        <ele>152.1</ele>
        <time>2025-06-20T07:59:30Z</time>
      </trkpt>
      <trkpt lat="49.69" lon="4.83942">
        <ele>151.9</ele>
        <time>2025-06-20T07:59:34Z</time>
      </trkpt>
      <trkpt lat="49.68983" lon="4.83941">
        <ele>152</ele>
        <time>2025-06-20T07:59:38Z</time>
      </trkpt>
      <trkpt lat="49.68965" lon="4.83943">
        <ele>152.3</ele>
        <time>2025-06-20T07:59:42Z</time>
      </trkpt>
      <trkpt lat="49.68947" lon="4.83944">
        <ele>152.9</ele>
        <time>2025-06-20T07:59:46Z</time>
      </trkpt>
      <trkpt lat="49.68928" lon="4.83949">
        <ele>153.3</ele>
        <time>2025-06-20T07:59:50Z</time>
      </trkpt>
      <trkpt lat="49.68908" lon="4.83953">
        <ele>153.6</ele>
        <time>2025-06-20T07:59:54Z</time>
      </trkpt>
      <trkpt lat="49.68888" lon="4.83955">
        <ele>153.9</ele>
        <time>2025-06-20T07:59:58Z</time>
      </trkpt>
      <trkpt lat="49.68867" lon="4.83958">
        <ele>153.5</ele>
        <time>2025-06-20T08:00:02Z</time>
      </trkpt>
      <trkpt lat="49.68846" lon="4.83961">
        <ele>153.2</ele>
        <time>2025-06-20T08:00:06Z</time>
      </trkpt>
      <trkpt lat="49.68825" lon="4.83964">
        <ele>153</ele>
        <time>2025-06-20T08:00:10Z</time>
      </trkpt>
      <trkpt lat="49.68804" lon="4.83967">
        <ele>153.2</ele>
        <time>2025-06-20T08:00:14Z</time>
      </trkpt>
      <trkpt lat="49.68782" lon="4.8397">
        <ele>153.1</ele>
        <time>2025-06-20T08:00:18Z</time>
      </trkpt>
      <trkpt lat="49.68761" lon="4.83973">
        <ele>153</ele>
        <time>2025-06-20T08:00:22Z</time>
      </trkpt>
      <trkpt lat="49.6874" lon="4.83976">
        <ele>152.9</ele>
        <time>2025-06-20T08:00:26Z</time>
      </trkpt>
      <trkpt lat="49.68719" lon="4.8398">
        <ele>152.6</ele>
        <time>2025-06-20T08:00:30Z</time>
      </trkpt>
      <trkpt lat="49.68697" lon="4.83984">
        <ele>152.1</ele>
        <time>2025-06-20T08:00:34Z</time>
      </trkpt>
      <trkpt lat="49.68676" lon="4.83986">
        <ele>151.7</ele>
        <time>2025-06-20T08:00:38Z</time>
      </trkpt>
      <trkpt lat="49.68655" lon="4.83986">
        <ele>151.5</ele>
        <time>2025-06-20T08:00:42Z</time>
      </trkpt>
      <trkpt lat="49.68633" lon="4.83988">
        <ele>151.5</ele>
        <time>2025-06-20T08:00:46Z</time>
      </trkpt>
      <trkpt lat="49.68612" lon="4.83988">
        <ele>151.1</ele>
        <time>2025-06-20T08:00:50Z</time>
      </trkpt>
      <trkpt lat="49.68589" lon="4.83986">
        <ele>151</ele>
        <time>2025-06-20T08:00:54Z</time>
      </trkpt>
      <trkpt lat="49.68566" lon="4.83983">
        <ele>150.8</ele>
        <time>2025-06-20T08:00:58Z</time>
      </trkpt>
      <trkpt lat="49.68544" lon="4.83978">
        <ele>151.1</ele>
        <time>2025-06-20T08:01:02Z</time>
      </trkpt>
      <trkpt lat="49.68523" lon="4.83972">
        <ele>152</ele>
        <time>2025-06-20T08:01:06Z</time>
      </trkpt>
      <trkpt lat="49.68501" lon="4.83966">
        <ele>151.6</ele>
        <time>2025-06-20T08:01:10Z</time>
      </trkpt>
      <trkpt lat="49.68479" lon="4.83958">
        <ele>151</ele>
        <time>2025-06-20T08:01:14Z</time>
      </trkpt>
      <trkpt lat="49.68457" lon="4.83947">
        <ele>151.2</ele>
        <time>2025-06-20T08:01:18Z</time>
      </trkpt>
      <trkpt lat="49.68436" lon="4.83934">
        <ele>152</ele>
        <time>2025-06-20T08:01:22Z</time>
      </trkpt>
      <trkpt lat="49.68415" lon="4.8392">
        <ele>150.3</ele>
        <time>2025-06-20T08:01:26Z</time>
      </trkpt>
      <trkpt lat="49.68396" lon="4.83904">
        <ele>152.3</ele>
        <time>2025-06-20T08:01:30Z</time>
      </trkpt>
      <trkpt lat="49.68377" lon="4.83888">
        <ele>152.6</ele>
        <time>2025-06-20T08:01:34Z</time>
      </trkpt>
      <trkpt lat="49.68357" lon="4.83872">
        <ele>153</ele>
        <time>2025-06-20T08:01:38Z</time>
      </trkpt>
      <trkpt lat="49.68338" lon="4.83855">
        <ele>152.8</ele>
        <time>2025-06-20T08:01:42Z</time>
      </trkpt>
      <trkpt lat="49.68321" lon="4.83836">
        <ele>153</ele>
        <time>2025-06-20T08:01:46Z</time>
      </trkpt>
      <trkpt lat="49.68304" lon="4.83815">
        <ele>154.5</ele>
        <time>2025-06-20T08:01:50Z</time>
      </trkpt>
      <trkpt lat="49.68287" lon="4.83797">
        <ele>153.9</ele>
        <time>2025-06-20T08:01:54Z</time>
      </trkpt>
      <trkpt lat="49.68271" lon="4.8378">
        <ele>153.4</ele>
        <time>2025-06-20T08:01:58Z</time>
      </trkpt>
      <trkpt lat="49.68254" lon="4.83761">
        <ele>153.6</ele>
        <time>2025-06-20T08:02:02Z</time>
      </trkpt>
      <trkpt lat="49.68238" lon="4.83744">
        <ele>153.7</ele>
        <time>2025-06-20T08:02:06Z</time>
      </trkpt>
      <trkpt lat="49.68222" lon="4.83727">
        <ele>153.6</ele>
        <time>2025-06-20T08:02:10Z</time>
      </trkpt>
      <trkpt lat="49.68205" lon="4.83708">
        <ele>153.9</ele>
        <time>2025-06-20T08:02:14Z</time>
      </trkpt>
      <trkpt lat="49.68187" lon="4.83686">
        <ele>153.7</ele>
        <time>2025-06-20T08:02:18Z</time>
      </trkpt>
      <trkpt lat="49.68167" lon="4.83667">
        <ele>153</ele>
        <time>2025-06-20T08:02:22Z</time>
      </trkpt>
      <trkpt lat="49.68147" lon="4.83651">
        <ele>153.2</ele>
        <time>2025-06-20T08:02:26Z</time>
      </trkpt>
      <trkpt lat="49.68127" lon="4.83635">
        <ele>152.7</ele>
        <time>2025-06-20T08:02:30Z</time>
      </trkpt>
      <trkpt lat="49.68106" lon="4.83621">
        <ele>152</ele>
        <time>2025-06-20T08:02:34Z</time>
      </trkpt>
      <trkpt lat="49.68085" lon="4.8361">
        <ele>152.1</ele>
        <time>2025-06-20T08:02:38Z</time>
      </trkpt>
      <trkpt lat="49.68063" lon="4.83601">
        <ele>152.7</ele>
        <time>2025-06-20T08:02:42Z</time>
      </trkpt>
      <trkpt lat="49.68041" lon="4.83593">
        <ele>152.3</ele>
        <time>2025-06-20T08:02:46Z</time>
      </trkpt>
      <trkpt lat="49.68019" lon="4.83589">
        <ele>151.2</ele>
        <time>2025-06-20T08:02:50Z</time>
      </trkpt>
      <trkpt lat="49.67998" lon="4.83583">
        <ele>151.1</ele>
        <time>2025-06-20T08:02:54Z</time>
      </trkpt>
      <trkpt lat="49.67976" lon="4.83578">
        <ele>151.7</ele>
        <time>2025-06-20T08:02:58Z</time>
      </trkpt>
      <trkpt lat="49.67954" lon="4.83573">
        <ele>151.9</ele>
        <time>2025-06-20T08:03:02Z</time>
      </trkpt>
      <trkpt lat="49.67932" lon="4.8357">
        <ele>152</ele>
        <time>2025-06-20T08:03:06Z</time>
      </trkpt>
      <trkpt lat="49.6791" lon="4.83566">
        <ele>152</ele>
        <time>2025-06-20T08:03:10Z</time>
      </trkpt>
      <trkpt lat="49.67888" lon="4.83564">
        <ele>152</ele>
        <time>2025-06-20T08:03:14Z</time>
      </trkpt>
      <trkpt lat="49.67866" lon="4.83563">
        <ele>152</ele>
        <time>2025-06-20T08:03:18Z</time>
      </trkpt>
      <trkpt lat="49.67845" lon="4.83563">
        <ele>152.4</ele>
        <time>2025-06-20T08:03:22Z</time>
      </trkpt>
      <trkpt lat="49.67824" lon="4.83561">
        <ele>153.3</ele>
        <time>2025-06-20T08:03:26Z</time>
      </trkpt>
      <trkpt lat="49.67805" lon="4.83558">
        <ele>154.7</ele>
        <time>2025-06-20T08:03:30Z</time>
      </trkpt>
      <trkpt lat="49.67785" lon="4.8356">
        <ele>153.9</ele>
        <time>2025-06-20T08:03:34Z</time>
      </trkpt>
      <trkpt lat="49.67763" lon="4.83566">
        <ele>153.2</ele>
        <time>2025-06-20T08:03:38Z</time>
      </trkpt>
      <trkpt lat="49.67742" lon="4.83574">
        <ele>152.9</ele>
        <time>2025-06-20T08:03:42Z</time>
      </trkpt>
      <trkpt lat="49.67721" lon="4.83582">
        <ele>153</ele>
        <time>2025-06-20T08:03:46Z</time>
      </trkpt>
      <trkpt lat="49.67701" lon="4.83588">
        <ele>152.8</ele>
        <time>2025-06-20T08:03:50Z</time>
      </trkpt>
      <trkpt lat="49.67678" lon="4.83596">
        <ele>152.9</ele>
        <time>2025-06-20T08:03:54Z</time>
      </trkpt>
      <trkpt lat="49.67656" lon="4.83603">
        <ele>152.5</ele>
        <time>2025-06-20T08:03:58Z</time>
      </trkpt>
      <trkpt lat="49.67633" lon="4.83613">
        <ele>152.2</ele>
        <time>2025-06-20T08:04:02Z</time>
      </trkpt>
      <trkpt lat="49.67611" lon="4.83622">
        <ele>152.6</ele>
        <time>2025-06-20T08:04:06Z</time>
      </trkpt>
      <trkpt lat="49.67589" lon="4.8363">
        <ele>152.1</ele>
        <time>2025-06-20T08:04:10Z</time>
      </trkpt>
      <trkpt lat="49.67568" lon="4.83638">
        <ele>152</ele>
        <time>2025-06-20T08:04:14Z</time>
      </trkpt>
      <trkpt lat="49.67546" lon="4.83646">
        <ele>152</ele>
        <time>2025-06-20T08:04:18Z</time>
      </trkpt>
      <trkpt lat="49.67525" lon="4.83655">
        <ele>152</ele>
        <time>2025-06-20T08:04:22Z</time>
      </trkpt>
      <trkpt lat="49.67503" lon="4.83663">
        <ele>152</ele>
        <time>2025-06-20T08:04:26Z</time>
      </trkpt>
      <trkpt lat="49.67481" lon="4.83672">
        <ele>152</ele>
        <time>2025-06-20T08:04:30Z</time>
      </trkpt>
      <trkpt lat="49.67458" lon="4.8368">
        <ele>152</ele>
        <time>2025-06-20T08:04:34Z</time>
      </trkpt>
      <trkpt lat="49.67436" lon="4.83685">
        <ele>152</ele>
        <time>2025-06-20T08:04:38Z</time>
      </trkpt>
      <trkpt lat="49.67413" lon="4.8369">
        <ele>152</ele>
        <time>2025-06-20T08:04:42Z</time>
      </trkpt>
      <trkpt lat="49.6739" lon="4.83694">
        <ele>152</ele>
        <time>2025-06-20T08:04:46Z</time>
      </trkpt>
      <trkpt lat="49.67367" lon="4.83695">
        <ele>152</ele>
        <time>2025-06-20T08:04:50Z</time>
      </trkpt>
      <trkpt lat="49.67345" lon="4.83696">
        <ele>152</ele>
        <time>2025-06-20T08:04:54Z</time>
      </trkpt>
      <trkpt lat="49.67324" lon="4.83694">
        <ele>152</ele>
        <time>2025-06-20T08:04:58Z</time>
      </trkpt>
      <trkpt lat="49.67302" lon="4.83691">
        <ele>151.9</ele>
        <time>2025-06-20T08:05:02Z</time>
      </trkpt>
      <trkpt lat="49.6728" lon="4.83687">
        <ele>151.7</ele>
        <time>2025-06-20T08:05:06Z</time>
      </trkpt>
      <trkpt lat="49.67258" lon="4.8368">
        <ele>151.5</ele>
        <time>2025-06-20T08:05:10Z</time>
      </trkpt>
      <trkpt lat="49.67236" lon="4.83674">
        <ele>152</ele>
        <time>2025-06-20T08:05:14Z</time>
      </trkpt>
      <trkpt lat="49.67215" lon="4.83671">
        <ele>152.8</ele>
        <time>2025-06-20T08:05:18Z</time>
      </trkpt>
      <trkpt lat="49.67195" lon="4.83665">
        <ele>153.1</ele>
        <time>2025-06-20T08:05:22Z</time>
      </trkpt>
      <trkpt lat="49.67174" lon="4.83655">
        <ele>152.5</ele>
        <time>2025-06-20T08:05:26Z</time>
      </trkpt>
      <trkpt lat="49.67153" lon="4.83643">
        <ele>152</ele>
        <time>2025-06-20T08:05:30Z</time>
      </trkpt>
      <trkpt lat="49.67133" lon="4.83632">
        <ele>151.8</ele>
        <time>2025-06-20T08:05:34Z</time>
      </trkpt>
      <trkpt lat="49.67113" lon="4.83621">
        <ele>151.4</ele>
        <time>2025-06-20T08:05:38Z</time>
      </trkpt>
      <trkpt lat="49.67091" lon="4.83612">
        <ele>151.7</ele>
        <time>2025-06-20T08:05:42Z</time>
      </trkpt>
      <trkpt lat="49.6707" lon="4.83603">
        <ele>151.7</ele>
        <time>2025-06-20T08:05:46Z</time>
      </trkpt>
      <trkpt lat="49.67049" lon="4.83593">
        <ele>151.3</ele>
        <time>2025-06-20T08:05:50Z</time>
      </trkpt>
      <trkpt lat="49.67028" lon="4.83583">
        <ele>151</ele>
        <time>2025-06-20T08:05:54Z</time>
      </trkpt>
      <trkpt lat="49.67007" lon="4.83573">
        <ele>151.2</ele>
        <time>2025-06-20T08:05:58Z</time>
      </trkpt>
      <trkpt lat="49.66985" lon="4.83564">
        <ele>151</ele>
        <time>2025-06-20T08:06:02Z</time>
      </trkpt>
      <trkpt lat="49.66963" lon="4.83553">
        <ele>151.3</ele>
        <time>2025-06-20T08:06:06Z</time>
      </trkpt>
      <trkpt lat="49.66942" lon="4.83544">
        <ele>151.2</ele>
        <time>2025-06-20T08:06:10Z</time>
      </trkpt>
      <trkpt lat="49.66921" lon="4.83537">
        <ele>151.8</ele>
        <time>2025-06-20T08:06:14Z</time>
      </trkpt>
      <trkpt lat="49.669" lon="4.83529">
        <ele>152</ele>
        <time>2025-06-20T08:06:18Z</time>
      </trkpt>
      <trkpt lat="49.6688" lon="4.83517">
        <ele>151.2</ele>
        <time>2025-06-20T08:06:22Z</time>
      </trkpt>
      <trkpt lat="49.66859" lon="4.83506">
        <ele>150.6</ele>
        <time>2025-06-20T08:06:26Z</time>
      </trkpt>
      <trkpt lat="49.66839" lon="4.83496">
        <ele>151.4</ele>
        <time>2025-06-20T08:06:30Z</time>
      </trkpt>
      <trkpt lat="49.66818" lon="4.83485">
        <ele>150.9</ele>
        <time>2025-06-20T08:06:34Z</time>
      </trkpt>
      <trkpt lat="49.66796" lon="4.83474">
        <ele>150.7</ele>
        <time>2025-06-20T08:06:38Z</time>
      </trkpt>
      <trkpt lat="49.66774" lon="4.83466">
        <ele>151.4</ele>
        <time>2025-06-20T08:06:42Z</time>
      </trkpt>
      <trkpt lat="49.66753" lon="4.83454">
        <ele>150.6</ele>
        <time>2025-06-20T08:06:46Z</time>
      </trkpt>
      <trkpt lat="49.66732" lon="4.83444">
        <ele>151.3</ele>
        <time>2025-06-20T08:06:50Z</time>
      </trkpt>
      <trkpt lat="49.66711" lon="4.83433">
        <ele>151.3</ele>
        <time>2025-06-20T08:06:54Z</time>
      </trkpt>
      <trkpt lat="49.66689" lon="4.83424">
        <ele>151.4</ele>
        <time>2025-06-20T08:06:58Z</time>
      </trkpt>
      <trkpt lat="49.66669" lon="4.83415">
        <ele>151.9</ele>
        <time>2025-06-20T08:07:02Z</time>
      </trkpt>
      <trkpt lat="49.66647" lon="4.83405">
        <ele>151.3</ele>
        <time>2025-06-20T08:07:06Z</time>
      </trkpt>
      <trkpt lat="49.66626" lon="4.83395">
        <ele>150.8</ele>
        <time>2025-06-20T08:07:10Z</time>
      </trkpt>
      <trkpt lat="49.66604" lon="4.83384">
        <ele>151.2</ele>
        <time>2025-06-20T08:07:14Z</time>
      </trkpt>
      <trkpt lat="49.66581" lon="4.83374">
        <ele>151</ele>
        <time>2025-06-20T08:07:18Z</time>
      </trkpt>
      <trkpt lat="49.66559" lon="4.83364">
        <ele>151.8</ele>
        <time>2025-06-20T08:07:22Z</time>
      </trkpt>
      <trkpt lat="49.66536" lon="4.83353">
        <ele>151.7</ele>
        <time>2025-06-20T08:07:26Z</time>
      </trkpt>
      <trkpt lat="49.66513" lon="4.83342">
        <ele>151.7</ele>
        <time>2025-06-20T08:07:30Z</time>
      </trkpt>
      <trkpt lat="49.6649" lon="4.83331">
        <ele>151.9</ele>
        <time>2025-06-20T08:07:34Z</time>
      </trkpt>
      <trkpt lat="49.66467" lon="4.83321">
        <ele>151.6</ele>
        <time>2025-06-20T08:07:38Z</time>
      </trkpt>
      <trkpt lat="49.66444" lon="4.83311">
        <ele>151.2</ele>
        <time>2025-06-20T08:07:42Z</time>
      </trkpt>
      <trkpt lat="49.6642" lon="4.83301">
        <ele>151.7</ele>
        <time>2025-06-20T08:07:46Z</time>
      </trkpt>
      <trkpt lat="49.66397" lon="4.8329">
        <ele>151</ele>
        <time>2025-06-20T08:07:50Z</time>
      </trkpt>
      <trkpt lat="49.66374" lon="4.8328">
        <ele>151.1</ele>
        <time>2025-06-20T08:07:54Z</time>
      </trkpt>
      <trkpt lat="49.66352" lon="4.8327">
        <ele>151.7</ele>
        <time>2025-06-20T08:07:58Z</time>
      </trkpt>
      <trkpt lat="49.66329" lon="4.83259">
        <ele>151.4</ele>
        <time>2025-06-20T08:08:02Z</time>
      </trkpt>
      <trkpt lat="49.66307" lon="4.83249">
        <ele>151.9</ele>
        <time>2025-06-20T08:08:06Z</time>
      </trkpt>
      <trkpt lat="49.66286" lon="4.83238">
        <ele>151.9</ele>
        <time>2025-06-20T08:08:10Z</time>
      </trkpt>
      <trkpt lat="49.66266" lon="4.83228">
        <ele>152</ele>
        <time>2025-06-20T08:08:14Z</time>
      </trkpt>
      <trkpt lat="49.66245" lon="4.83218">
        <ele>151.8</ele>
        <time>2025-06-20T08:08:18Z</time>
      </trkpt>
      <trkpt lat="49.66223" lon="4.83208">
        <ele>151.5</ele>
        <time>2025-06-20T08:08:22Z</time>
      </trkpt>
      <trkpt lat="49.66201" lon="4.83197">
        <ele>151.8</ele>
        <time>2025-06-20T08:08:26Z</time>
      </trkpt>
      <trkpt lat="49.66179" lon="4.83185">
        <ele>151.7</ele>
        <time>2025-06-20T08:08:30Z</time>
      </trkpt>
      <trkpt lat="49.66156" lon="4.83174">
        <ele>151.5</ele>
        <time>2025-06-20T08:08:34Z</time>
      </trkpt>
      <trkpt lat="49.66134" lon="4.83162">
        <ele>152</ele>
        <time>2025-06-20T08:08:38Z</time>
      </trkpt>
      <trkpt lat="49.66112" lon="4.83152">
        <ele>152</ele>
        <time>2025-06-20T08:08:42Z</time>
      </trkpt>
      <trkpt lat="49.66089" lon="4.83143">
        <ele>151.3</ele>
        <time>2025-06-20T08:08:46Z</time>
      </trkpt>
      <trkpt lat="49.66068" lon="4.83135">
        <ele>151.5</ele>
        <time>2025-06-20T08:08:50Z</time>
      </trkpt>
      <trkpt lat="49.66045" lon="4.83129">
        <ele>151.5</ele>
        <time>2025-06-20T08:08:54Z</time>
      </trkpt>
      <trkpt lat="49.66023" lon="4.83123">
        <ele>150.9</ele>
        <time>2025-06-20T08:08:58Z</time>
      </trkpt>
      <trkpt lat="49.66" lon="4.8312">
        <ele>150.6</ele>
        <time>2025-06-20T08:09:02Z</time>
      </trkpt>
      <trkpt lat="49.65978" lon="4.83117">
        <ele>151</ele>
        <time>2025-06-20T08:09:06Z</time>
      </trkpt>
      <trkpt lat="49.65955" lon="4.83115">
        <ele>151.1</ele>
        <time>2025-06-20T08:09:10Z</time>
      </trkpt>
      <trkpt lat="49.65932" lon="4.83114">
        <ele>151.1</ele>
        <time>2025-06-20T08:09:14Z</time>
      </trkpt>
      <trkpt lat="49.65911" lon="4.83112">
        <ele>151</ele>
        <time>2025-06-20T08:09:18Z</time>
      </trkpt>
      <trkpt lat="49.65889" lon="4.83111">
        <ele>151</ele>
        <time>2025-06-20T08:09:22Z</time>
      </trkpt>
      <trkpt lat="49.65867" lon="4.83111">
        <ele>151</ele>
        <time>2025-06-20T08:09:26Z</time>
      </trkpt>
      <trkpt lat="49.65844" lon="4.83112">
        <ele>151</ele>
        <time>2025-06-20T08:09:30Z</time>
      </trkpt>
      <trkpt lat="49.65821" lon="4.83114">
        <ele>151.5</ele>
        <time>2025-06-20T08:09:34Z</time>
      </trkpt>
      <trkpt lat="49.65798" lon="4.83115">
        <ele>152</ele>
        <time>2025-06-20T08:09:38Z</time>
      </trkpt>
      <trkpt lat="49.65774" lon="4.83117">
        <ele>152</ele>
        <time>2025-06-20T08:09:42Z</time>
      </trkpt>
      <trkpt lat="49.65751" lon="4.83117">
        <ele>152</ele>
        <time>2025-06-20T08:09:46Z</time>
      </trkpt>
      <trkpt lat="49.65727" lon="4.83118">
        <ele>151.4</ele>
        <time>2025-06-20T08:09:50Z</time>
      </trkpt>
      <trkpt lat="49.65703" lon="4.83119">
        <ele>151.3</ele>
        <time>2025-06-20T08:09:54Z</time>
      </trkpt>
      <trkpt lat="49.65679" lon="4.83121">
        <ele>151.4</ele>
        <time>2025-06-20T08:09:58Z</time>
      </trkpt>
      <trkpt lat="49.65655" lon="4.83122">
        <ele>151.4</ele>
        <time>2025-06-20T08:10:02Z</time>
      </trkpt>
      <trkpt lat="49.65632" lon="4.83123">
        <ele>151.4</ele>
        <time>2025-06-20T08:10:06Z</time>
      </trkpt>
      <trkpt lat="49.65608" lon="4.83123">
        <ele>151.4</ele>
        <time>2025-06-20T08:10:10Z</time>
      </trkpt>
      <trkpt lat="49.65585" lon="4.83124">
        <ele>151.5</ele>
        <time>2025-06-20T08:10:14Z</time>
      </trkpt>
      <trkpt lat="49.65562" lon="4.83125">
        <ele>151.5</ele>
        <time>2025-06-20T08:10:18Z</time>
      </trkpt>
      <trkpt lat="49.65539" lon="4.83126">
        <ele>151.5</ele>
        <time>2025-06-20T08:10:22Z</time>
      </trkpt>
      <trkpt lat="49.65516" lon="4.83127">
        <ele>151.6</ele>
        <time>2025-06-20T08:10:26Z</time>
      </trkpt>
      <trkpt lat="49.65493" lon="4.83128">
        <ele>151.6</ele>
        <time>2025-06-20T08:10:30Z</time>
      </trkpt>
      <trkpt lat="49.65471" lon="4.83127">
        <ele>151.6</ele>
        <time>2025-06-20T08:10:34Z</time>
      </trkpt>
      <trkpt lat="49.65448" lon="4.83128">
        <ele>151.6</ele>
        <time>2025-06-20T08:10:38Z</time>
      </trkpt>
      <trkpt lat="49.65425" lon="4.83128">
        <ele>151.6</ele>
        <time>2025-06-20T08:10:42Z</time>
      </trkpt>
      <trkpt lat="49.65403" lon="4.83129">
        <ele>151.6</ele>
        <time>2025-06-20T08:10:46Z</time>
      </trkpt>
      <trkpt lat="49.6538" lon="4.8313">
        <ele>151.7</ele>
        <time>2025-06-20T08:10:50Z</time>
      </trkpt>
      <trkpt lat="49.65357" lon="4.83132">
        <ele>151.8</ele>
        <time>2025-06-20T08:10:54Z</time>
      </trkpt>
      <trkpt lat="49.65334" lon="4.83135">
        <ele>151.9</ele>
        <time>2025-06-20T08:10:58Z</time>
      </trkpt>
      <trkpt lat="49.65312" lon="4.83138">
        <ele>152</ele>
        <time>2025-06-20T08:11:02Z</time>
      </trkpt>
      <trkpt lat="49.6529" lon="4.83143">
        <ele>151.5</ele>
        <time>2025-06-20T08:11:06Z</time>
      </trkpt>
      <trkpt lat="49.65268" lon="4.8315">
        <ele>151.6</ele>
        <time>2025-06-20T08:11:10Z</time>
      </trkpt>
      <trkpt lat="49.65247" lon="4.83161">
        <ele>152</ele>
        <time>2025-06-20T08:11:14Z</time>
      </trkpt>
      <trkpt lat="49.65226" lon="4.83172">
        <ele>152</ele>
        <time>2025-06-20T08:11:18Z</time>
      </trkpt>
      <trkpt lat="49.65206" lon="4.83183">
        <ele>152</ele>
        <time>2025-06-20T08:11:22Z</time>
      </trkpt>
      <trkpt lat="49.65187" lon="4.83198">
        <ele>152</ele>
        <time>2025-06-20T08:11:26Z</time>
      </trkpt>
      <trkpt lat="49.65167" lon="4.83216">
        <ele>152</ele>
        <time>2025-06-20T08:11:30Z</time>
      </trkpt>
      <trkpt lat="49.65149" lon="4.83235">
        <ele>152</ele>
        <time>2025-06-20T08:11:34Z</time>
      </trkpt>
      <trkpt lat="49.65131" lon="4.83256">
        <ele>152</ele>
        <time>2025-06-20T08:11:38Z</time>
      </trkpt>
      <trkpt lat="49.65114" lon="4.83278">
        <ele>152</ele>
        <time>2025-06-20T08:11:42Z</time>
      </trkpt>
      <trkpt lat="49.65097" lon="4.83302">
        <ele>152</ele>
        <time>2025-06-20T08:11:46Z</time>
      </trkpt>
      <trkpt lat="49.6508" lon="4.83327">
        <ele>152</ele>
        <time>2025-06-20T08:11:50Z</time>
      </trkpt>
      <trkpt lat="49.65065" lon="4.83354">
        <ele>152</ele>
        <time>2025-06-20T08:11:54Z</time>
      </trkpt>
      <trkpt lat="49.65051" lon="4.83382">
        <ele>152</ele>
        <time>2025-06-20T08:11:58Z</time>
      </trkpt>
      <trkpt lat="49.65038" lon="4.83411">
        <ele>152</ele>
        <time>2025-06-20T08:12:02Z</time>
      </trkpt>
      <trkpt lat="49.65026" lon="4.83439">
        <ele>152</ele>
        <time>2025-06-20T08:12:06Z</time>
      </trkpt>
      <trkpt lat="49.65015" lon="4.8347">
        <ele>152</ele>
        <time>2025-06-20T08:12:10Z</time>
      </trkpt>
      <trkpt lat="49.65004" lon="4.83497">
        <ele>152</ele>
        <time>2025-06-20T08:12:14Z</time>
      </trkpt>
      <trkpt lat="49.64992" lon="4.83526">
        <ele>152</ele>
        <time>2025-06-20T08:12:18Z</time>
      </trkpt>
      <trkpt lat="49.64981" lon="4.83554">
        <ele>152</ele>
        <time>2025-06-20T08:12:22Z</time>
      </trkpt>
      <trkpt lat="49.6497" lon="4.83582">
        <ele>152</ele>
        <time>2025-06-20T08:12:26Z</time>
      </trkpt>
      <trkpt lat="49.6496" lon="4.83611">
        <ele>152</ele>
        <time>2025-06-20T08:12:30Z</time>
      </trkpt>
      <trkpt lat="49.6495" lon="4.83641">
        <ele>152</ele>
        <time>2025-06-20T08:12:34Z</time>
      </trkpt>
      <trkpt lat="49.64942" lon="4.83672">
        <ele>152</ele>
        <time>2025-06-20T08:12:38Z</time>
      </trkpt>
      <trkpt lat="49.64934" lon="4.83704">
        <ele>152</ele>
        <time>2025-06-20T08:12:42Z</time>
      </trkpt>
      <trkpt lat="49.64926" lon="4.83735">
        <ele>152</ele>
        <time>2025-06-20T08:12:46Z</time>
      </trkpt>
      <trkpt lat="49.64919" lon="4.83768">
        <ele>152</ele>
        <time>2025-06-20T08:12:50Z</time>
      </trkpt>
      <trkpt lat="49.64913" lon="4.83801">
        <ele>152</ele>
        <time>2025-06-20T08:12:54Z</time>
      </trkpt>
      <trkpt lat="49.64908" lon="4.83833">
        <ele>152</ele>
        <time>2025-06-20T08:12:58Z</time>
      </trkpt>
      <trkpt lat="49.64904" lon="4.83865">
        <ele>152</ele>
        <time>2025-06-20T08:13:02Z</time>
      </trkpt>
      <trkpt lat="49.64901" lon="4.83897">
        <ele>152</ele>
        <time>2025-06-20T08:13:06Z</time>
      </trkpt>
      <trkpt lat="49.64899" lon="4.8393">
        <ele>152</ele>
        <time>2025-06-20T08:13:10Z</time>
      </trkpt>
      <trkpt lat="49.64898" lon="4.83963">
        <ele>152.2</ele>
        <time>2025-06-20T08:13:14Z</time>
      </trkpt>
      <trkpt lat="49.64896" lon="4.83992">
        <ele>153</ele>
        <time>2025-06-20T08:13:18Z</time>
      </trkpt>
      <trkpt lat="49.64893" lon="4.84019">
        <ele>153.7</ele>
        <time>2025-06-20T08:13:22Z</time>
      </trkpt>
      <trkpt lat="49.64893" lon="4.84046">
        <ele>154</ele>
        <time>2025-06-20T08:13:26Z</time>
      </trkpt>
      <trkpt lat="49.6489" lon="4.84073">
        <ele>154.6</ele>
        <time>2025-06-20T08:13:30Z</time>
      </trkpt>
      <trkpt lat="49.64886" lon="4.84102">
        <ele>155.1</ele>
        <time>2025-06-20T08:13:34Z</time>
      </trkpt>
      <trkpt lat="49.64879" lon="4.8413">
        <ele>155.1</ele>
        <time>2025-06-20T08:13:38Z</time>
      </trkpt>
      <trkpt lat="49.64866" lon="4.8415">
        <ele>155</ele>
        <time>2025-06-20T08:13:42Z</time>
      </trkpt>
      <trkpt lat="49.64849" lon="4.84163">
        <ele>155.4</ele>
        <time>2025-06-20T08:13:46Z</time>
      </trkpt>
      <trkpt lat="49.64832" lon="4.84164">
        <ele>156.1</ele>
        <time>2025-06-20T08:13:50Z</time>
      </trkpt>
      <trkpt lat="49.6482" lon="4.84165">
        <ele>157</ele>
        <time>2025-06-20T08:13:54Z</time>
      </trkpt>
      <trkpt lat="49.64809" lon="4.84166">
        <ele>157.8</ele>
        <time>2025-06-20T08:13:58Z</time>
      </trkpt>
      <trkpt lat="49.64793" lon="4.84171">
        <ele>157.7</ele>
        <time>2025-06-20T08:14:02Z</time>
      </trkpt>
      <trkpt lat="49.64775" lon="4.84174">
        <ele>157.6</ele>
        <time>2025-06-20T08:14:06Z</time>
      </trkpt>
      <trkpt lat="49.64758" lon="4.84177">
        <ele>158.4</ele>
        <time>2025-06-20T08:14:10Z</time>
      </trkpt>
      <trkpt lat="49.64742" lon="4.84178">
        <ele>159.9</ele>
        <time>2025-06-20T08:14:14Z</time>
      </trkpt>
      <trkpt lat="49.64726" lon="4.84176">
        <ele>162.7</ele>
        <time>2025-06-20T08:14:18Z</time>
      </trkpt>
      <trkpt lat="49.64714" lon="4.84177">
        <ele>166.6</ele>
        <time>2025-06-20T08:14:22Z</time>
      </trkpt>
      <trkpt lat="49.64696" lon="4.8417">
        <ele>174.4</ele>
        <time>2025-06-20T08:14:26Z</time>
      </trkpt>
      <trkpt lat="49.64692" lon="4.8417">
        <ele>176</ele>
        <time>2025-06-20T08:14:30Z</time>
      </trkpt>
      <trkpt lat="49.64692" lon="4.8417">
        <ele>176</ele>
        <time>2025-06-20T08:14:54Z</time>
      </trkpt>
      <trkpt lat="49.64518" lon="4.84191">
        <ele>162.2</ele>
        <time>2025-06-20T08:14:58Z</time>
      </trkpt>
      <trkpt lat="49.64501" lon="4.8419">
        <ele>160.4</ele>
        <time>2025-06-20T08:15:02Z</time>
      </trkpt>
      <trkpt lat="49.64482" lon="4.84185">
        <ele>161.2</ele>
        <time>2025-06-20T08:15:06Z</time>
      </trkpt>
      <trkpt lat="49.64461" lon="4.84178">
        <ele>161.7</ele>
        <time>2025-06-20T08:15:10Z</time>
      </trkpt>
      <trkpt lat="49.6444" lon="4.84173">
        <ele>160.4</ele>
        <time>2025-06-20T08:15:14Z</time>
      </trkpt>
      <trkpt lat="49.64419" lon="4.84162">
        <ele>158.7</ele>
        <time>2025-06-20T08:15:18Z</time>
      </trkpt>
      <trkpt lat="49.64403" lon="4.84149">
        <ele>158.5</ele>
        <time>2025-06-20T08:15:22Z</time>
      </trkpt>
      <trkpt lat="49.64402" lon="4.84154">
        <ele>158.1</ele>
        <time>2025-06-20T08:15:26Z</time>
      </trkpt>
      <trkpt lat="49.64404" lon="4.8416">
        <ele>157.9</ele>
        <time>2025-06-20T08:15:30Z</time>
      </trkpt>
      <trkpt lat="49.64404" lon="4.8416">
        <ele>157.9</ele>
        <time>2025-06-20T08:15:34Z</time>
      </trkpt>
      <trkpt lat="49.64404" lon="4.8416">
        <ele>157.9</ele>
        <time>2025-06-20T08:15:38Z</time>
      </trkpt>
      <trkpt lat="49.64404" lon="4.8416">
        <ele>157.9</ele>
        <time>2025-06-20T08:15:42Z</time>
      </trkpt>
      <trkpt lat="49.64406" lon="4.84167">
        <ele>157.6</ele>
        <time>2025-06-20T08:15:46Z</time>
      </trkpt>
      <trkpt lat="49.644" lon="4.84167">
        <ele>157.4</ele>
        <time>2025-06-20T08:15:50Z</time>
      </trkpt>
      <trkpt lat="49.64393" lon="4.84161">
        <ele>157.4</ele>
        <time>2025-06-20T08:15:54Z</time>
      </trkpt>
      <trkpt lat="49.64385" lon="4.84152">
        <ele>157.5</ele>
        <time>2025-06-20T08:15:58Z</time>
      </trkpt>
      <trkpt lat="49.64375" lon="4.84136">
        <ele>157.6</ele>
        <time>2025-06-20T08:16:02Z</time>
      </trkpt>
      <trkpt lat="49.64366" lon="4.841">
        <ele>158</ele>
        <time>2025-06-20T08:16:06Z</time>
      </trkpt>
      <trkpt lat="49.64357" lon="4.84065">
        <ele>157.9</ele>
        <time>2025-06-20T08:16:10Z</time>
      </trkpt>
      <trkpt lat="49.64347" lon="4.8403">
        <ele>157</ele>
        <time>2025-06-20T08:16:14Z</time>
      </trkpt>
      <trkpt lat="49.64337" lon="4.83997">
        <ele>157.1</ele>
        <time>2025-06-20T08:16:18Z</time>
      </trkpt>
      <trkpt lat="49.64327" lon="4.83965">
        <ele>156.8</ele>
        <time>2025-06-20T08:16:22Z</time>
      </trkpt>
      <trkpt lat="49.64317" lon="4.83932">
        <ele>156.8</ele>
        <time>2025-06-20T08:16:26Z</time>
      </trkpt>
      <trkpt lat="49.64306" lon="4.839">
        <ele>157</ele>
        <time>2025-06-20T08:16:30Z</time>
      </trkpt>
      <trkpt lat="49.64296" lon="4.83868">
        <ele>156.5</ele>
        <time>2025-06-20T08:16:34Z</time>
      </trkpt>
      <trkpt lat="49.64286" lon="4.83836">
        <ele>157</ele>
        <time>2025-06-20T08:16:38Z</time>
      </trkpt>
      <trkpt lat="49.64275" lon="4.83804">
        <ele>157</ele>
        <time>2025-06-20T08:16:42Z</time>
      </trkpt>
      <trkpt lat="49.64263" lon="4.83773">
        <ele>157.1</ele>
        <time>2025-06-20T08:16:46Z</time>
      </trkpt>
      <trkpt lat="49.64251" lon="4.83741">
        <ele>157.1</ele>
        <time>2025-06-20T08:16:50Z</time>
      </trkpt>
      <trkpt lat="49.64238" lon="4.83713">
        <ele>157.2</ele>
        <time>2025-06-20T08:16:54Z</time>
      </trkpt>
      <trkpt lat="49.64225" lon="4.83686">
        <ele>157.2</ele>
        <time>2025-06-20T08:16:58Z</time>
      </trkpt>
      <trkpt lat="49.64211" lon="4.83659">
        <ele>157.2</ele>
        <time>2025-06-20T08:17:02Z</time>
      </trkpt>
      <trkpt lat="49.64196" lon="4.83633">
        <ele>156.9</ele>
        <time>2025-06-20T08:17:06Z</time>
      </trkpt>
      <trkpt lat="49.64178" lon="4.83606">
        <ele>156.7</ele>
        <time>2025-06-20T08:17:10Z</time>
      </trkpt>
      <trkpt lat="49.6416" lon="4.83581">
        <ele>157</ele>
        <time>2025-06-20T08:17:14Z</time>
      </trkpt>
      <trkpt lat="49.64141" lon="4.83557">
        <ele>157</ele>
        <time>2025-06-20T08:17:18Z</time>
      </trkpt>
      <trkpt lat="49.64122" lon="4.83534">
        <ele>157</ele>
        <time>2025-06-20T08:17:22Z</time>
      </trkpt>
      <trkpt lat="49.64105" lon="4.8351">
        <ele>157</ele>
        <time>2025-06-20T08:17:26Z</time>
      </trkpt>
      <trkpt lat="49.64085" lon="4.83487">
        <ele>156.6</ele>
        <time>2025-06-20T08:17:30Z</time>
      </trkpt>
      <trkpt lat="49.64066" lon="4.83465">
        <ele>156.6</ele>
        <time>2025-06-20T08:17:34Z</time>
      </trkpt>
      <trkpt lat="49.64047" lon="4.83443">
        <ele>156.3</ele>
        <time>2025-06-20T08:17:38Z</time>
      </trkpt>
      <trkpt lat="49.64028" lon="4.83424">
        <ele>156.3</ele>
        <time>2025-06-20T08:17:42Z</time>
      </trkpt>
      <trkpt lat="49.64009" lon="4.83404">
        <ele>156.5</ele>
        <time>2025-06-20T08:17:46Z</time>
      </trkpt>
      <trkpt lat="49.63992" lon="4.83381">
        <ele>156.8</ele>
        <time>2025-06-20T08:17:50Z</time>
      </trkpt>
      <trkpt lat="49.63974" lon="4.83359">
        <ele>156.9</ele>
        <time>2025-06-20T08:17:54Z</time>
      </trkpt>
      <trkpt lat="49.63955" lon="4.83338">
        <ele>156.7</ele>
        <time>2025-06-20T08:17:58Z</time>
      </trkpt>
      <trkpt lat="49.63936" lon="4.8332">
        <ele>156.7</ele>
        <time>2025-06-20T08:18:02Z</time>
      </trkpt>
      <trkpt lat="49.63916" lon="4.83301">
        <ele>157</ele>
        <time>2025-06-20T08:18:06Z</time>
      </trkpt>
      <trkpt lat="49.63896" lon="4.83283">
        <ele>157</ele>
        <time>2025-06-20T08:18:10Z</time>
      </trkpt>
      <trkpt lat="49.63874" lon="4.83267">
        <ele>157</ele>
        <time>2025-06-20T08:18:14Z</time>
      </trkpt>
      <trkpt lat="49.63852" lon="4.83251">
        <ele>157</ele>
        <time>2025-06-20T08:18:18Z</time>
      </trkpt>
      <trkpt lat="49.63831" lon="4.83237">
        <ele>157</ele>
        <time>2025-06-20T08:18:22Z</time>
      </trkpt>
      <trkpt lat="49.63809" lon="4.83225">
        <ele>157.8</ele>
        <time>2025-06-20T08:18:26Z</time>
      </trkpt>
      <trkpt lat="49.63786" lon="4.83214">
        <ele>157.3</ele>
        <time>2025-06-20T08:18:30Z</time>
      </trkpt>
      <trkpt lat="49.63764" lon="4.83205">
        <ele>157.3</ele>
        <time>2025-06-20T08:18:34Z</time>
      </trkpt>
      <trkpt lat="49.63742" lon="4.83196">
        <ele>157.7</ele>
        <time>2025-06-20T08:18:38Z</time>
      </trkpt>
      <trkpt lat="49.6372" lon="4.83188">
        <ele>157.2</ele>
        <time>2025-06-20T08:18:42Z</time>
      </trkpt>
      <trkpt lat="49.63698" lon="4.83182">
        <ele>157.4</ele>
        <time>2025-06-20T08:18:46Z</time>
      </trkpt>
      <trkpt lat="49.63674" lon="4.83177">
        <ele>157.2</ele>
        <time>2025-06-20T08:18:50Z</time>
      </trkpt>
      <trkpt lat="49.63651" lon="4.83173">
        <ele>157.4</ele>
        <time>2025-06-20T08:18:54Z</time>
      </trkpt>
      <trkpt lat="49.63627" lon="4.8317">
        <ele>157.9</ele>
        <time>2025-06-20T08:18:58Z</time>
      </trkpt>
      <trkpt lat="49.63604" lon="4.8317">
        <ele>157.9</ele>
        <time>2025-06-20T08:19:02Z</time>
      </trkpt>
      <trkpt lat="49.6358" lon="4.83171">
        <ele>157.7</ele>
        <time>2025-06-20T08:19:06Z</time>
      </trkpt>
      <trkpt lat="49.63557" lon="4.83174">
        <ele>157</ele>
        <time>2025-06-20T08:19:10Z</time>
      </trkpt>
      <trkpt lat="49.63534" lon="4.83175">
        <ele>157</ele>
        <time>2025-06-20T08:19:14Z</time>
      </trkpt>
      <trkpt lat="49.63513" lon="4.8318">
        <ele>157</ele>
        <time>2025-06-20T08:19:18Z</time>
      </trkpt>
      <trkpt lat="49.63491" lon="4.83186">
        <ele>157</ele>
        <time>2025-06-20T08:19:22Z</time>
      </trkpt>
      <trkpt lat="49.63472" lon="4.83192">
        <ele>157</ele>
        <time>2025-06-20T08:19:26Z</time>
      </trkpt>
      <trkpt lat="49.63451" lon="4.832">
        <ele>157</ele>
        <time>2025-06-20T08:19:30Z</time>
      </trkpt>
      <trkpt lat="49.6343" lon="4.83208">
        <ele>156.7</ele>
        <time>2025-06-20T08:19:34Z</time>
      </trkpt>
      <trkpt lat="49.63408" lon="4.83218">
        <ele>156.9</ele>
        <time>2025-06-20T08:19:38Z</time>
      </trkpt>
      <trkpt lat="49.63386" lon="4.83229">
        <ele>156.9</ele>
        <time>2025-06-20T08:19:42Z</time>
      </trkpt>
      <trkpt lat="49.63364" lon="4.8324">
        <ele>156.7</ele>
        <time>2025-06-20T08:19:46Z</time>
      </trkpt>
      <trkpt lat="49.63343" lon="4.83251">
        <ele>157</ele>
        <time>2025-06-20T08:19:50Z</time>
      </trkpt>
      <trkpt lat="49.63322" lon="4.83261">
        <ele>156.8</ele>
        <time>2025-06-20T08:19:54Z</time>
      </trkpt>
      <trkpt lat="49.633" lon="4.83271">
        <ele>156.8</ele>
        <time>2025-06-20T08:19:58Z</time>
      </trkpt>
      <trkpt lat="49.63278" lon="4.83283">
        <ele>157</ele>
        <time>2025-06-20T08:20:02Z</time>
      </trkpt>
      <trkpt lat="49.63255" lon="4.83294">
        <ele>157</ele>
        <time>2025-06-20T08:20:06Z</time>
      </trkpt>
      <trkpt lat="49.63234" lon="4.83304">
        <ele>157</ele>
        <time>2025-06-20T08:20:10Z</time>
      </trkpt>
      <trkpt lat="49.63212" lon="4.83314">
        <ele>157.4</ele>
        <time>2025-06-20T08:20:14Z</time>
      </trkpt>
      <trkpt lat="49.63194" lon="4.83322">
        <ele>158</ele>
        <time>2025-06-20T08:20:18Z</time>
      </trkpt>
      <trkpt lat="49.63185" lon="4.83322">
        <ele>158</ele>
        <time>2025-06-20T08:20:22Z</time>
      </trkpt>
      <trkpt lat="49.63181" lon="4.83297">
        <ele>158</ele>
        <time>2025-06-20T08:20:26Z</time>
      </trkpt>
      <trkpt lat="49.63184" lon="4.83259">
        <ele>158.3</ele>
        <time>2025-06-20T08:20:30Z</time>
      </trkpt>
      <trkpt lat="49.63185" lon="4.83225">
        <ele>158.9</ele>
        <time>2025-06-20T08:20:34Z</time>
      </trkpt>
      <trkpt lat="49.63183" lon="4.83195">
        <ele>160</ele>
        <time>2025-06-20T08:20:38Z</time>
      </trkpt>
      <trkpt lat="49.63182" lon="4.8317">
        <ele>160.9</ele>
        <time>2025-06-20T08:20:42Z</time>
      </trkpt>
      <trkpt lat="49.63172" lon="4.83161">
        <ele>161</ele>
        <time>2025-06-20T08:20:46Z</time>
      </trkpt>
      <trkpt lat="49.63152" lon="4.83159">
        <ele>161</ele>
        <time>2025-06-20T08:20:50Z</time>
      </trkpt>
      <trkpt lat="49.63132" lon="4.83157">
        <ele>160.8</ele>
        <time>2025-06-20T08:20:54Z</time>
      </trkpt>
      <trkpt lat="49.63109" lon="4.83154">
        <ele>160.5</ele>
        <time>2025-06-20T08:20:58Z</time>
      </trkpt>
      <trkpt lat="49.63086" lon="4.83153">
        <ele>161.4</ele>
        <time>2025-06-20T08:21:02Z</time>
      </trkpt>
      <trkpt lat="49.63064" lon="4.83155">
        <ele>161.7</ele>
        <time>2025-06-20T08:21:06Z</time>
      </trkpt>
      <trkpt lat="49.63042" lon="4.8316">
        <ele>162</ele>
        <time>2025-06-20T08:21:10Z</time>
      </trkpt>
      <trkpt lat="49.63024" lon="4.83168">
        <ele>162.1</ele>
        <time>2025-06-20T08:21:14Z</time>
      </trkpt>
      <trkpt lat="49.63008" lon="4.83179">
        <ele>162.4</ele>
        <time>2025-06-20T08:21:18Z</time>
      </trkpt>
      <trkpt lat="49.62989" lon="4.83187">
        <ele>162.7</ele>
        <time>2025-06-20T08:21:22Z</time>
      </trkpt>
      <trkpt lat="49.6297" lon="4.83196">
        <ele>162.9</ele>
        <time>2025-06-20T08:21:26Z</time>
      </trkpt>
      <trkpt lat="49.62949" lon="4.83204">
        <ele>162.3</ele>
        <time>2025-06-20T08:21:30Z</time>
      </trkpt>
      <trkpt lat="49.62926" lon="4.83216">
        <ele>161.6</ele>
        <time>2025-06-20T08:21:34Z</time>
      </trkpt>
      <trkpt lat="49.62906" lon="4.8324">
        <ele>160.9</ele>
        <time>2025-06-20T08:21:38Z</time>
      </trkpt>
      <trkpt lat="49.62895" lon="4.83278">
        <ele>160</ele>
        <time>2025-06-20T08:21:42Z</time>
      </trkpt>
      <trkpt lat="49.62897" lon="4.83321">
        <ele>158.2</ele>
        <time>2025-06-20T08:21:46Z</time>
      </trkpt>
      <trkpt lat="49.629" lon="4.83366">
        <ele>156.9</ele>
        <time>2025-06-20T08:21:50Z</time>
      </trkpt>
      <trkpt lat="49.62892" lon="4.83409">
        <ele>156.9</ele>
        <time>2025-06-20T08:21:54Z</time>
      </trkpt>
      <trkpt lat="49.62875" lon="4.83441">
        <ele>156.1</ele>
        <time>2025-06-20T08:21:58Z</time>
      </trkpt>
      <trkpt lat="49.62855" lon="4.83465">
        <ele>156.1</ele>
        <time>2025-06-20T08:22:02Z</time>
      </trkpt>
      <trkpt lat="49.62835" lon="4.83486">
        <ele>156</ele>
        <time>2025-06-20T08:22:06Z</time>
      </trkpt>
      <trkpt lat="49.62815" lon="4.83507">
        <ele>155.9</ele>
        <time>2025-06-20T08:22:10Z</time>
      </trkpt>
      <trkpt lat="49.62794" lon="4.83524">
        <ele>156.1</ele>
        <time>2025-06-20T08:22:14Z</time>
      </trkpt>
      <trkpt lat="49.62774" lon="4.83543">
        <ele>156.1</ele>
        <time>2025-06-20T08:22:18Z</time>
      </trkpt>
      <trkpt lat="49.62754" lon="4.83561">
        <ele>156.7</ele>
        <time>2025-06-20T08:22:22Z</time>
      </trkpt>
      <trkpt lat="49.62733" lon="4.83579">
        <ele>156.7</ele>
        <time>2025-06-20T08:22:26Z</time>
      </trkpt>
      <trkpt lat="49.62713" lon="4.83596">
        <ele>156.7</ele>
        <time>2025-06-20T08:22:30Z</time>
      </trkpt>
      <trkpt lat="49.62692" lon="4.83612">
        <ele>157</ele>
        <time>2025-06-20T08:22:34Z</time>
      </trkpt>
      <trkpt lat="49.6267" lon="4.83627">
        <ele>156.4</ele>
        <time>2025-06-20T08:22:38Z</time>
      </trkpt>
      <trkpt lat="49.62649" lon="4.83641">
        <ele>156</ele>
        <time>2025-06-20T08:22:42Z</time>
      </trkpt>
      <trkpt lat="49.62628" lon="4.83656">
        <ele>156.2</ele>
        <time>2025-06-20T08:22:46Z</time>
      </trkpt>
      <trkpt lat="49.62606" lon="4.83668">
        <ele>157</ele>
        <time>2025-06-20T08:22:50Z</time>
      </trkpt>
      <trkpt lat="49.62583" lon="4.83678">
        <ele>156.6</ele>
        <time>2025-06-20T08:22:54Z</time>
      </trkpt>
      <trkpt lat="49.6256" lon="4.83685">
        <ele>156.1</ele>
        <time>2025-06-20T08:22:58Z</time>
      </trkpt>
      <trkpt lat="49.62536" lon="4.83692">
        <ele>156.7</ele>
        <time>2025-06-20T08:23:02Z</time>
      </trkpt>
      <trkpt lat="49.62513" lon="4.83698">
        <ele>156.9</ele>
        <time>2025-06-20T08:23:06Z</time>
      </trkpt>
      <trkpt lat="49.6249" lon="4.83705">
        <ele>156.8</ele>
        <time>2025-06-20T08:23:10Z</time>
      </trkpt>
      <trkpt lat="49.62468" lon="4.83716">
        <ele>157</ele>
        <time>2025-06-20T08:23:14Z</time>
      </trkpt>
      <trkpt lat="49.62446" lon="4.83731">
        <ele>156.7</ele>
        <time>2025-06-20T08:23:18Z</time>
      </trkpt>
      <trkpt lat="49.62425" lon="4.83747">
        <ele>156.7</ele>
        <time>2025-06-20T08:23:22Z</time>
      </trkpt>
      <trkpt lat="49.62404" lon="4.83761">
        <ele>156.8</ele>
        <time>2025-06-20T08:23:26Z</time>
      </trkpt>
      <trkpt lat="49.62384" lon="4.83777">
        <ele>157</ele>
        <time>2025-06-20T08:23:30Z</time>
      </trkpt>
      <trkpt lat="49.62364" lon="4.83791">
        <ele>157</ele>
        <time>2025-06-20T08:23:34Z</time>
      </trkpt>
      <trkpt lat="49.62343" lon="4.83803">
        <ele>157</ele>
        <time>2025-06-20T08:23:38Z</time>
      </trkpt>
      <trkpt lat="49.62322" lon="4.83814">
        <ele>157</ele>
        <time>2025-06-20T08:23:42Z</time>
      </trkpt>
      <trkpt lat="49.62301" lon="4.83824">
        <ele>157</ele>
        <time>2025-06-20T08:23:46Z</time>
      </trkpt>
      <trkpt lat="49.6228" lon="4.83835">
        <ele>157</ele>
        <time>2025-06-20T08:23:50Z</time>
      </trkpt>
      <trkpt lat="49.62259" lon="4.83845">
        <ele>157</ele>
        <time>2025-06-20T08:23:54Z</time>
      </trkpt>
      <trkpt lat="49.62238" lon="4.83854">
        <ele>157.1</ele>
        <time>2025-06-20T08:23:58Z</time>
      </trkpt>
      <trkpt lat="49.62216" lon="4.83864">
        <ele>157.2</ele>
        <time>2025-06-20T08:24:02Z</time>
      </trkpt>
      <trkpt lat="49.62193" lon="4.83874">
        <ele>157.6</ele>
        <time>2025-06-20T08:24:06Z</time>
      </trkpt>
      <trkpt lat="49.62172" lon="4.83885">
        <ele>157.8</ele>
        <time>2025-06-20T08:24:10Z</time>
      </trkpt>
      <trkpt lat="49.6215" lon="4.83899">
        <ele>157.9</ele>
        <time>2025-06-20T08:24:14Z</time>
      </trkpt>
      <trkpt lat="49.62129" lon="4.83914">
        <ele>158</ele>
        <time>2025-06-20T08:24:18Z</time>
      </trkpt>
      <trkpt lat="49.62109" lon="4.83932">
        <ele>157.5</ele>
        <time>2025-06-20T08:24:22Z</time>
      </trkpt>
      <trkpt lat="49.6209" lon="4.8395">
        <ele>158.4</ele>
        <time>2025-06-20T08:24:26Z</time>
      </trkpt>
      <trkpt lat="49.6207" lon="4.83967">
        <ele>158.6</ele>
        <time>2025-06-20T08:24:30Z</time>
      </trkpt>
      <trkpt lat="49.62052" lon="4.83983">
        <ele>159.2</ele>
        <time>2025-06-20T08:24:34Z</time>
      </trkpt>
      <trkpt lat="49.62034" lon="4.84">
        <ele>159.8</ele>
        <time>2025-06-20T08:24:38Z</time>
      </trkpt>
      <trkpt lat="49.62016" lon="4.84016">
        <ele>160.9</ele>
        <time>2025-06-20T08:24:42Z</time>
      </trkpt>
      <trkpt lat="49.61999" lon="4.84032">
        <ele>161.1</ele>
        <time>2025-06-20T08:24:46Z</time>
      </trkpt>
      <trkpt lat="49.61982" lon="4.84049">
        <ele>161.8</ele>
        <time>2025-06-20T08:24:50Z</time>
      </trkpt>
      <trkpt lat="49.61965" lon="4.84067">
        <ele>162.3</ele>
        <time>2025-06-20T08:24:54Z</time>
      </trkpt>
      <trkpt lat="49.61948" lon="4.84087">
        <ele>162.7</ele>
        <time>2025-06-20T08:24:58Z</time>
      </trkpt>
      <trkpt lat="49.61931" lon="4.84106">
        <ele>162.7</ele>
        <time>2025-06-20T08:25:02Z</time>
      </trkpt>
      <trkpt lat="49.61916" lon="4.84126">
        <ele>163</ele>
        <time>2025-06-20T08:25:06Z</time>
      </trkpt>
      <trkpt lat="49.619" lon="4.84145">
        <ele>163.4</ele>
        <time>2025-06-20T08:25:10Z</time>
      </trkpt>
      <trkpt lat="49.61883" lon="4.84165">
        <ele>163.3</ele>
        <time>2025-06-20T08:25:14Z</time>
      </trkpt>
      <trkpt lat="49.61865" lon="4.84185">
        <ele>163.2</ele>
        <time>2025-06-20T08:25:18Z</time>
      </trkpt>
      <trkpt lat="49.61847" lon="4.84204">
        <ele>163.2</ele>
        <time>2025-06-20T08:25:22Z</time>
      </trkpt>
      <trkpt lat="49.61829" lon="4.84222">
        <ele>163</ele>
        <time>2025-06-20T08:25:26Z</time>
      </trkpt>
      <trkpt lat="49.61809" lon="4.84239">
        <ele>162.4</ele>
        <time>2025-06-20T08:25:30Z</time>
      </trkpt>
      <trkpt lat="49.61789" lon="4.84255">
        <ele>162</ele>
        <time>2025-06-20T08:25:34Z</time>
      </trkpt>
      <trkpt lat="49.61769" lon="4.8427">
        <ele>161.9</ele>
        <time>2025-06-20T08:25:38Z</time>
      </trkpt>
      <trkpt lat="49.61749" lon="4.84286">
        <ele>161</ele>
        <time>2025-06-20T08:25:42Z</time>
      </trkpt>
      <trkpt lat="49.61728" lon="4.84301">
        <ele>161</ele>
        <time>2025-06-20T08:25:46Z</time>
      </trkpt>
      <trkpt lat="49.61707" lon="4.8432">
        <ele>160.2</ele>
        <time>2025-06-20T08:25:50Z</time>
      </trkpt>
      <trkpt lat="49.61686" lon="4.84338">
        <ele>159.9</ele>
        <time>2025-06-20T08:25:54Z</time>
      </trkpt>
      <trkpt lat="49.61667" lon="4.84357">
        <ele>159.2</ele>
        <time>2025-06-20T08:25:58Z</time>
      </trkpt>
      <trkpt lat="49.61648" lon="4.84376">
        <ele>159.3</ele>
        <time>2025-06-20T08:26:02Z</time>
      </trkpt>
      <trkpt lat="49.61629" lon="4.84395">
        <ele>159</ele>
        <time>2025-06-20T08:26:06Z</time>
      </trkpt>
      <trkpt lat="49.61609" lon="4.84415">
        <ele>159</ele>
        <time>2025-06-20T08:26:10Z</time>
      </trkpt>
      <trkpt lat="49.6159" lon="4.84434">
        <ele>159</ele>
        <time>2025-06-20T08:26:14Z</time>
      </trkpt>
      <trkpt lat="49.6157" lon="4.84454">
        <ele>159</ele>
        <time>2025-06-20T08:26:18Z</time>
      </trkpt>
      <trkpt lat="49.6155" lon="4.84474">
        <ele>159</ele>
        <time>2025-06-20T08:26:22Z</time>
      </trkpt>
      <trkpt lat="49.6153" lon="4.84493">
        <ele>159</ele>
        <time>2025-06-20T08:26:26Z</time>
      </trkpt>
      <trkpt lat="49.6151" lon="4.8451">
        <ele>158.9</ele>
        <time>2025-06-20T08:26:30Z</time>
      </trkpt>
      <trkpt lat="49.61489" lon="4.84525">
        <ele>159</ele>
        <time>2025-06-20T08:26:34Z</time>
      </trkpt>
      <trkpt lat="49.61468" lon="4.8454">
        <ele>159.2</ele>
        <time>2025-06-20T08:26:38Z</time>
      </trkpt>
      <trkpt lat="49.61447" lon="4.84554">
        <ele>159.9</ele>
        <time>2025-06-20T08:26:42Z</time>
      </trkpt>
      <trkpt lat="49.61426" lon="4.84568">
        <ele>159.8</ele>
        <time>2025-06-20T08:26:46Z</time>
      </trkpt>
      <trkpt lat="49.61404" lon="4.84581">
        <ele>160</ele>
        <time>2025-06-20T08:26:50Z</time>
      </trkpt>
      <trkpt lat="49.61383" lon="4.84593">
        <ele>160.5</ele>
        <time>2025-06-20T08:26:54Z</time>
      </trkpt>
      <trkpt lat="49.61361" lon="4.84606">
        <ele>161</ele>
        <time>2025-06-20T08:26:58Z</time>
      </trkpt>
      <trkpt lat="49.61341" lon="4.84618">
        <ele>161.5</ele>
        <time>2025-06-20T08:27:02Z</time>
      </trkpt>
      <trkpt lat="49.6132" lon="4.84629">
        <ele>161.7</ele>
        <time>2025-06-20T08:27:06Z</time>
      </trkpt>
      <trkpt lat="49.613" lon="4.8464">
        <ele>162.2</ele>
        <time>2025-06-20T08:27:10Z</time>
      </trkpt>
      <trkpt lat="49.6128" lon="4.84652">
        <ele>162.5</ele>
        <time>2025-06-20T08:27:14Z</time>
      </trkpt>
      <trkpt lat="49.61259" lon="4.84665">
        <ele>162.1</ele>
        <time>2025-06-20T08:27:18Z</time>
      </trkpt>
      <trkpt lat="49.61238" lon="4.84676">
        <ele>162.3</ele>
        <time>2025-06-20T08:27:22Z</time>
      </trkpt>
      <trkpt lat="49.61215" lon="4.84689">
        <ele>161.9</ele>
        <time>2025-06-20T08:27:26Z</time>
      </trkpt>
      <trkpt lat="49.61191" lon="4.84702">
        <ele>161</ele>
        <time>2025-06-20T08:27:30Z</time>
      </trkpt>
      <trkpt lat="49.61167" lon="4.84716">
        <ele>160.2</ele>
        <time>2025-06-20T08:27:34Z</time>
      </trkpt>
      <trkpt lat="49.61144" lon="4.8473">
        <ele>160</ele>
        <time>2025-06-20T08:27:38Z</time>
      </trkpt>
      <trkpt lat="49.61122" lon="4.84743">
        <ele>160</ele>
        <time>2025-06-20T08:27:42Z</time>
      </trkpt>
      <trkpt lat="49.61101" lon="4.84755">
        <ele>160</ele>
        <time>2025-06-20T08:27:46Z</time>
      </trkpt>
      <trkpt lat="49.61079" lon="4.84767">
        <ele>160.2</ele>
        <time>2025-06-20T08:27:50Z</time>
      </trkpt>
      <trkpt lat="49.61058" lon="4.84778">
        <ele>160.9</ele>
        <time>2025-06-20T08:27:54Z</time>
      </trkpt>
      <trkpt lat="49.61036" lon="4.84784">
        <ele>161</ele>
        <time>2025-06-20T08:27:58Z</time>
      </trkpt>
      <trkpt lat="49.61015" lon="4.84789">
        <ele>161.2</ele>
        <time>2025-06-20T08:28:02Z</time>
      </trkpt>
      <trkpt lat="49.60994" lon="4.8479">
        <ele>161.8</ele>
        <time>2025-06-20T08:28:06Z</time>
      </trkpt>
      <trkpt lat="49.60972" lon="4.84794">
        <ele>163</ele>
        <time>2025-06-20T08:28:10Z</time>
      </trkpt>
      <trkpt lat="49.60952" lon="4.84796">
        <ele>163.3</ele>
        <time>2025-06-20T08:28:14Z</time>
      </trkpt>
      <trkpt lat="49.60934" lon="4.84799">
        <ele>163.2</ele>
        <time>2025-06-20T08:28:18Z</time>
      </trkpt>
      <trkpt lat="49.60914" lon="4.84801">
        <ele>163.2</ele>
        <time>2025-06-20T08:28:22Z</time>
      </trkpt>
      <trkpt lat="49.60894" lon="4.84804">
        <ele>163.8</ele>
        <time>2025-06-20T08:28:26Z</time>
      </trkpt>
      <trkpt lat="49.60873" lon="4.84808">
        <ele>163.4</ele>
        <time>2025-06-20T08:28:30Z</time>
      </trkpt>
      <trkpt lat="49.60852" lon="4.8481">
        <ele>163</ele>
        <time>2025-06-20T08:28:34Z</time>
      </trkpt>
      <trkpt lat="49.60831" lon="4.84815">
        <ele>163</ele>
        <time>2025-06-20T08:28:38Z</time>
      </trkpt>
      <trkpt lat="49.60811" lon="4.84822">
        <ele>163</ele>
        <time>2025-06-20T08:28:42Z</time>
      </trkpt>
      <trkpt lat="49.6079" lon="4.84833">
        <ele>162.4</ele>
        <time>2025-06-20T08:28:46Z</time>
      </trkpt>
      <trkpt lat="49.60768" lon="4.84845">
        <ele>162</ele>
        <time>2025-06-20T08:28:50Z</time>
      </trkpt>
      <trkpt lat="49.60746" lon="4.84858">
        <ele>161.9</ele>
        <time>2025-06-20T08:28:54Z</time>
      </trkpt>
      <trkpt lat="49.60724" lon="4.84871">
        <ele>161</ele>
        <time>2025-06-20T08:28:58Z</time>
      </trkpt>
      <trkpt lat="49.60702" lon="4.84884">
        <ele>161</ele>
        <time>2025-06-20T08:29:02Z</time>
      </trkpt>
      <trkpt lat="49.6068" lon="4.84897">
        <ele>161</ele>
        <time>2025-06-20T08:29:06Z</time>
      </trkpt>
      <trkpt lat="49.60658" lon="4.84909">
        <ele>161.3</ele>
        <time>2025-06-20T08:29:10Z</time>
      </trkpt>
      <trkpt lat="49.60637" lon="4.84921">
        <ele>161.9</ele>
        <time>2025-06-20T08:29:14Z</time>
      </trkpt>
      <trkpt lat="49.60617" lon="4.84933">
        <ele>162.2</ele>
        <time>2025-06-20T08:29:18Z</time>
      </trkpt>
      <trkpt lat="49.60597" lon="4.84947">
        <ele>162.5</ele>
        <time>2025-06-20T08:29:22Z</time>
      </trkpt>
      <trkpt lat="49.60577" lon="4.84962">
        <ele>162.5</ele>
        <time>2025-06-20T08:29:26Z</time>
      </trkpt>
      <trkpt lat="49.60557" lon="4.84977">
        <ele>162.9</ele>
        <time>2025-06-20T08:29:30Z</time>
      </trkpt>
      <trkpt lat="49.60537" lon="4.8499">
        <ele>163.2</ele>
        <time>2025-06-20T08:29:34Z</time>
      </trkpt>
      <trkpt lat="49.60516" lon="4.85">
        <ele>163.4</ele>
        <time>2025-06-20T08:29:38Z</time>
      </trkpt>
      <trkpt lat="49.60496" lon="4.8501">
        <ele>164.2</ele>
        <time>2025-06-20T08:29:42Z</time>
      </trkpt>
      <trkpt lat="49.60477" lon="4.85019">
        <ele>164.5</ele>
        <time>2025-06-20T08:29:46Z</time>
      </trkpt>
      <trkpt lat="49.60458" lon="4.85031">
        <ele>165</ele>
        <time>2025-06-20T08:29:50Z</time>
      </trkpt>
      <trkpt lat="49.6044" lon="4.85042">
        <ele>165.6</ele>
        <time>2025-06-20T08:29:54Z</time>
      </trkpt>
      <trkpt lat="49.60423" lon="4.85054">
        <ele>165.8</ele>
        <time>2025-06-20T08:29:58Z</time>
      </trkpt>
      <trkpt lat="49.60406" lon="4.85066">
        <ele>166</ele>
        <time>2025-06-20T08:30:02Z</time>
      </trkpt>
      <trkpt lat="49.60389" lon="4.85079">
        <ele>166</ele>
        <time>2025-06-20T08:30:06Z</time>
      </trkpt>
      <trkpt lat="49.60372" lon="4.85093">
        <ele>166</ele>
        <time>2025-06-20T08:30:10Z</time>
      </trkpt>
      <trkpt lat="49.60357" lon="4.85108">
        <ele>166</ele>
        <time>2025-06-20T08:30:14Z</time>
      </trkpt>
      <trkpt lat="49.60343" lon="4.85125">
        <ele>166</ele>
        <time>2025-06-20T08:30:18Z</time>
      </trkpt>
      <trkpt lat="49.60328" lon="4.85139">
        <ele>166</ele>
        <time>2025-06-20T08:30:22Z</time>
      </trkpt>
      <trkpt lat="49.60315" lon="4.85156">
        <ele>165.6</ele>
        <time>2025-06-20T08:30:26Z</time>
      </trkpt>
      <trkpt lat="49.60302" lon="4.85171">
        <ele>165</ele>
        <time>2025-06-20T08:30:30Z</time>
      </trkpt>
      <trkpt lat="49.60289" lon="4.85187">
        <ele>165</ele>
        <time>2025-06-20T08:30:34Z</time>
      </trkpt>
      <trkpt lat="49.60276" lon="4.85202">
        <ele>165</ele>
        <time>2025-06-20T08:30:38Z</time>
      </trkpt>
      <trkpt lat="49.60262" lon="4.8522">
        <ele>164.5</ele>
        <time>2025-06-20T08:30:42Z</time>
      </trkpt>
      <trkpt lat="49.60245" lon="4.85238">
        <ele>164.5</ele>
        <time>2025-06-20T08:30:46Z</time>
      </trkpt>
      <trkpt lat="49.60229" lon="4.85256">
        <ele>164.2</ele>
        <time>2025-06-20T08:30:50Z</time>
      </trkpt>
      <trkpt lat="49.60213" lon="4.85274">
        <ele>164</ele>
        <time>2025-06-20T08:30:54Z</time>
      </trkpt>
      <trkpt lat="49.60202" lon="4.85286">
        <ele>164</ele>
        <time>2025-06-20T08:30:58Z</time>
      </trkpt>
      <trkpt lat="49.60194" lon="4.85295">
        <ele>164</ele>
        <time>2025-06-20T08:31:02Z</time>
      </trkpt>
      <trkpt lat="49.60185" lon="4.85306">
        <ele>163.7</ele>
        <time>2025-06-20T08:31:06Z</time>
      </trkpt>
      <trkpt lat="49.60174" lon="4.85316">
        <ele>163</ele>
        <time>2025-06-20T08:31:10Z</time>
      </trkpt>
      <trkpt lat="49.60162" lon="4.85327">
        <ele>162.2</ele>
        <time>2025-06-20T08:31:14Z</time>
      </trkpt>
      <trkpt lat="49.60158" lon="4.85343">
        <ele>161.7</ele>
        <time>2025-06-20T08:31:18Z</time>
      </trkpt>
      <trkpt lat="49.60165" lon="4.85367">
        <ele>161</ele>
        <time>2025-06-20T08:31:22Z</time>
      </trkpt>
      <trkpt lat="49.60177" lon="4.85388">
        <ele>161</ele>
        <time>2025-06-20T08:31:26Z</time>
      </trkpt>
      <trkpt lat="49.60192" lon="4.85406">
        <ele>160.4</ele>
        <time>2025-06-20T08:31:30Z</time>
      </trkpt>
      <trkpt lat="49.6021" lon="4.85422">
        <ele>160</ele>
        <time>2025-06-20T08:31:34Z</time>
      </trkpt>
      <trkpt lat="49.60228" lon="4.8544">
        <ele>160</ele>
        <time>2025-06-20T08:31:38Z</time>
      </trkpt>
      <trkpt lat="49.60246" lon="4.8546">
        <ele>159.5</ele>
        <time>2025-06-20T08:31:42Z</time>
      </trkpt>
      <trkpt lat="49.60262" lon="4.85484">
        <ele>159.2</ele>
        <time>2025-06-20T08:31:46Z</time>
      </trkpt>
      <trkpt lat="49.60276" lon="4.8551">
        <ele>159</ele>
        <time>2025-06-20T08:31:50Z</time>
      </trkpt>
      <trkpt lat="49.60288" lon="4.85536">
        <ele>159.4</ele>
        <time>2025-06-20T08:31:54Z</time>
      </trkpt>
      <trkpt lat="49.60301" lon="4.85561">
        <ele>159.8</ele>
        <time>2025-06-20T08:31:58Z</time>
      </trkpt>
      <trkpt lat="49.60316" lon="4.85585">
        <ele>160</ele>
        <time>2025-06-20T08:32:02Z</time>
      </trkpt>
      <trkpt lat="49.60333" lon="4.85605">
        <ele>160</ele>
        <time>2025-06-20T08:32:06Z</time>
      </trkpt>
      <trkpt lat="49.60351" lon="4.85619">
        <ele>160.4</ele>
        <time>2025-06-20T08:32:10Z</time>
      </trkpt>
      <trkpt lat="49.60369" lon="4.85633">
        <ele>160.2</ele>
        <time>2025-06-20T08:32:14Z</time>
      </trkpt>
      <trkpt lat="49.6039" lon="4.85644">
        <ele>159.8</ele>
        <time>2025-06-20T08:32:18Z</time>
      </trkpt>
      <trkpt lat="49.60412" lon="4.85649">
        <ele>159.6</ele>
        <time>2025-06-20T08:32:22Z</time>
      </trkpt>
      <trkpt lat="49.60433" lon="4.85651">
        <ele>160.2</ele>
        <time>2025-06-20T08:32:26Z</time>
      </trkpt>
      <trkpt lat="49.60453" lon="4.85659">
        <ele>160.2</ele>
        <time>2025-06-20T08:32:30Z</time>
      </trkpt>
      <trkpt lat="49.60467" lon="4.85682">
        <ele>159.9</ele>
        <time>2025-06-20T08:32:34Z</time>
      </trkpt>
      <trkpt lat="49.60468" lon="4.85712">
        <ele>159.8</ele>
        <time>2025-06-20T08:32:38Z</time>
      </trkpt>
      <trkpt lat="49.6046" lon="4.8574">
        <ele>158.8</ele>
        <time>2025-06-20T08:32:42Z</time>
      </trkpt>
      <trkpt lat="49.60449" lon="4.85769">
        <ele>160.2</ele>
        <time>2025-06-20T08:32:46Z</time>
      </trkpt>
      <trkpt lat="49.60436" lon="4.85798">
        <ele>159.5</ele>
        <time>2025-06-20T08:32:50Z</time>
      </trkpt>
      <trkpt lat="49.60421" lon="4.85825">
        <ele>159.5</ele>
        <time>2025-06-20T08:32:54Z</time>
      </trkpt>
      <trkpt lat="49.60402" lon="4.85848">
        <ele>158.4</ele>
        <time>2025-06-20T08:32:58Z</time>
      </trkpt>
      <trkpt lat="49.60384" lon="4.85872">
        <ele>157.7</ele>
        <time>2025-06-20T08:33:02Z</time>
      </trkpt>
      <trkpt lat="49.60366" lon="4.85893">
        <ele>157.9</ele>
        <time>2025-06-20T08:33:06Z</time>
      </trkpt>
      <trkpt lat="49.60347" lon="4.85916">
        <ele>158</ele>
        <time>2025-06-20T08:33:10Z</time>
      </trkpt>
      <trkpt lat="49.60328" lon="4.8594">
        <ele>157.8</ele>
        <time>2025-06-20T08:33:14Z</time>
      </trkpt>
      <trkpt lat="49.60308" lon="4.85963">
        <ele>157.6</ele>
        <time>2025-06-20T08:33:18Z</time>
      </trkpt>
      <trkpt lat="49.6029" lon="4.85987">
        <ele>157.5</ele>
        <time>2025-06-20T08:33:22Z</time>
      </trkpt>
      <trkpt lat="49.60271" lon="4.8601">
        <ele>157.6</ele>
        <time>2025-06-20T08:33:26Z</time>
      </trkpt>
      <trkpt lat="49.60253" lon="4.86031">
        <ele>157.8</ele>
        <time>2025-06-20T08:33:30Z</time>
      </trkpt>
      <trkpt lat="49.60235" lon="4.86053">
        <ele>157.6</ele>
        <time>2025-06-20T08:33:34Z</time>
      </trkpt>
      <trkpt lat="49.60217" lon="4.86074">
        <ele>158</ele>
        <time>2025-06-20T08:33:38Z</time>
      </trkpt>
      <trkpt lat="49.602" lon="4.86096">
        <ele>158</ele>
        <time>2025-06-20T08:33:42Z</time>
      </trkpt>
      <trkpt lat="49.60182" lon="4.86118">
        <ele>158.1</ele>
        <time>2025-06-20T08:33:46Z</time>
      </trkpt>
      <trkpt lat="49.60166" lon="4.86139">
        <ele>159</ele>
        <time>2025-06-20T08:33:50Z</time>
      </trkpt>
      <trkpt lat="49.60148" lon="4.8616">
        <ele>158.8</ele>
        <time>2025-06-20T08:33:54Z</time>
      </trkpt>
      <trkpt lat="49.60131" lon="4.86181">
        <ele>158.9</ele>
        <time>2025-06-20T08:33:58Z</time>
      </trkpt>
      <trkpt lat="49.60114" lon="4.86202">
        <ele>159</ele>
        <time>2025-06-20T08:34:02Z</time>
      </trkpt>
      <trkpt lat="49.60098" lon="4.86223">
        <ele>159</ele>
        <time>2025-06-20T08:34:06Z</time>
      </trkpt>
      <trkpt lat="49.60084" lon="4.86246">
        <ele>159.8</ele>
        <time>2025-06-20T08:34:10Z</time>
      </trkpt>
      <trkpt lat="49.60074" lon="4.86271">
        <ele>159.2</ele>
        <time>2025-06-20T08:34:14Z</time>
      </trkpt>
      <trkpt lat="49.60065" lon="4.863">
        <ele>159</ele>
        <time>2025-06-20T08:34:18Z</time>
      </trkpt>
      <trkpt lat="49.60057" lon="4.86329">
        <ele>159</ele>
        <time>2025-06-20T08:34:22Z</time>
      </trkpt>
      <trkpt lat="49.60048" lon="4.86357">
        <ele>159.6</ele>
        <time>2025-06-20T08:34:26Z</time>
      </trkpt>
      <trkpt lat="49.60039" lon="4.86387">
        <ele>159</ele>
        <time>2025-06-20T08:34:30Z</time>
      </trkpt>
      <trkpt lat="49.60033" lon="4.86416">
        <ele>159.8</ele>
        <time>2025-06-20T08:34:34Z</time>
      </trkpt>
      <trkpt lat="49.60032" lon="4.86445">
        <ele>159</ele>
        <time>2025-06-20T08:34:38Z</time>
      </trkpt>
      <trkpt lat="49.60033" lon="4.86474">
        <ele>159.2</ele>
        <time>2025-06-20T08:34:42Z</time>
      </trkpt>
      <trkpt lat="49.60033" lon="4.86505">
        <ele>160</ele>
        <time>2025-06-20T08:34:46Z</time>
      </trkpt>
      <trkpt lat="49.60038" lon="4.86535">
        <ele>160.1</ele>
        <time>2025-06-20T08:34:50Z</time>
      </trkpt>
      <trkpt lat="49.6005" lon="4.86558">
        <ele>160.9</ele>
        <time>2025-06-20T08:34:54Z</time>
      </trkpt>
      <trkpt lat="49.60064" lon="4.86572">
        <ele>162.1</ele>
        <time>2025-06-20T08:34:58Z</time>
      </trkpt>
      <trkpt lat="49.60078" lon="4.86583">
        <ele>164.4</ele>
        <time>2025-06-20T08:35:02Z</time>
      </trkpt>
      <trkpt lat="49.60089" lon="4.86593">
        <ele>165.6</ele>
        <time>2025-06-20T08:35:06Z</time>
      </trkpt>
      <trkpt lat="49.60094" lon="4.86602">
        <ele>166.5</ele>
        <time>2025-06-20T08:35:10Z</time>
      </trkpt>
      <trkpt lat="49.60106" lon="4.8661">
        <ele>167.7</ele>
        <time>2025-06-20T08:35:14Z</time>
      </trkpt>
      <trkpt lat="49.60124" lon="4.86608">
        <ele>166.7</ele>
        <time>2025-06-20T08:35:18Z</time>
      </trkpt>
      <trkpt lat="49.60143" lon="4.86609">
        <ele>165.8</ele>
        <time>2025-06-20T08:35:22Z</time>
      </trkpt>
      <trkpt lat="49.60163" lon="4.86608">
        <ele>165.7</ele>
        <time>2025-06-20T08:35:26Z</time>
      </trkpt>
      <trkpt lat="49.60185" lon="4.86606">
        <ele>164.9</ele>
        <time>2025-06-20T08:35:30Z</time>
      </trkpt>
      <trkpt lat="49.60208" lon="4.86605">
        <ele>164.8</ele>
        <time>2025-06-20T08:35:34Z</time>
      </trkpt>
      <trkpt lat="49.60232" lon="4.86604">
        <ele>164.7</ele>
        <time>2025-06-20T08:35:38Z</time>
      </trkpt>
      <trkpt lat="49.60254" lon="4.86601">
        <ele>163.9</ele>
        <time>2025-06-20T08:35:42Z</time>
      </trkpt>
      <trkpt lat="49.60276" lon="4.86602">
        <ele>164</ele>
        <time>2025-06-20T08:35:46Z</time>
      </trkpt>
      <trkpt lat="49.60298" lon="4.866">
        <ele>163.8</ele>
        <time>2025-06-20T08:35:50Z</time>
      </trkpt>
      <trkpt lat="49.60319" lon="4.86598">
        <ele>163.6</ele>
        <time>2025-06-20T08:35:54Z</time>
      </trkpt>
      <trkpt lat="49.60341" lon="4.86596">
        <ele>163.5</ele>
        <time>2025-06-20T08:35:58Z</time>
      </trkpt>
      <trkpt lat="49.60364" lon="4.86596">
        <ele>163.5</ele>
        <time>2025-06-20T08:36:02Z</time>
      </trkpt>
      <trkpt lat="49.60387" lon="4.86595">
        <ele>163.4</ele>
        <time>2025-06-20T08:36:06Z</time>
      </trkpt>
      <trkpt lat="49.6041" lon="4.86596">
        <ele>162.7</ele>
        <time>2025-06-20T08:36:10Z</time>
      </trkpt>
      <trkpt lat="49.60433" lon="4.86598">
        <ele>162.5</ele>
        <time>2025-06-20T08:36:14Z</time>
      </trkpt>
      <trkpt lat="49.60454" lon="4.866">
        <ele>162.8</ele>
        <time>2025-06-20T08:36:18Z</time>
      </trkpt>
      <trkpt lat="49.60475" lon="4.86603">
        <ele>163.4</ele>
        <time>2025-06-20T08:36:22Z</time>
      </trkpt>
      <trkpt lat="49.60495" lon="4.86606">
        <ele>163.6</ele>
        <time>2025-06-20T08:36:26Z</time>
      </trkpt>
      <trkpt lat="49.60515" lon="4.8661">
        <ele>163.9</ele>
        <time>2025-06-20T08:36:30Z</time>
      </trkpt>
      <trkpt lat="49.60535" lon="4.86614">
        <ele>164.2</ele>
        <time>2025-06-20T08:36:34Z</time>
      </trkpt>
      <trkpt lat="49.60554" lon="4.86619">
        <ele>164.6</ele>
        <time>2025-06-20T08:36:38Z</time>
      </trkpt>
      <trkpt lat="49.60572" lon="4.86624">
        <ele>164.9</ele>
        <time>2025-06-20T08:36:42Z</time>
      </trkpt>
      <trkpt lat="49.60591" lon="4.86629">
        <ele>165.3</ele>
        <time>2025-06-20T08:36:46Z</time>
      </trkpt>
      <trkpt lat="49.60609" lon="4.86633">
        <ele>165.6</ele>
        <time>2025-06-20T08:36:50Z</time>
      </trkpt>
      <trkpt lat="49.60628" lon="4.86638">
        <ele>165.9</ele>
        <time>2025-06-20T08:36:54Z</time>
      </trkpt>
      <trkpt lat="49.60647" lon="4.86642">
        <ele>166.2</ele>
        <time>2025-06-20T08:36:58Z</time>
      </trkpt>
      <trkpt lat="49.60667" lon="4.86646">
        <ele>166.5</ele>
        <time>2025-06-20T08:37:02Z</time>
      </trkpt>
      <trkpt lat="49.60686" lon="4.86648">
        <ele>166.7</ele>
        <time>2025-06-20T08:37:06Z</time>
      </trkpt>
      <trkpt lat="49.60705" lon="4.86652">
        <ele>166.9</ele>
        <time>2025-06-20T08:37:10Z</time>
      </trkpt>
      <trkpt lat="49.60724" lon="4.86654">
        <ele>167.1</ele>
        <time>2025-06-20T08:37:14Z</time>
      </trkpt>
      <trkpt lat="49.60745" lon="4.86656">
        <ele>166.9</ele>
        <time>2025-06-20T08:37:18Z</time>
      </trkpt>
      <trkpt lat="49.60765" lon="4.86657">
        <ele>167</ele>
        <time>2025-06-20T08:37:22Z</time>
      </trkpt>
      <trkpt lat="49.60786" lon="4.86658">
        <ele>167.1</ele>
        <time>2025-06-20T08:37:26Z</time>
      </trkpt>
      <trkpt lat="49.60808" lon="4.86658">
        <ele>167.1</ele>
        <time>2025-06-20T08:37:30Z</time>
      </trkpt>
      <trkpt lat="49.6083" lon="4.86659">
        <ele>167.2</ele>
        <time>2025-06-20T08:37:34Z</time>
      </trkpt>
      <trkpt lat="49.60854" lon="4.86658">
        <ele>166.6</ele>
        <time>2025-06-20T08:37:38Z</time>
      </trkpt>
      <trkpt lat="49.60876" lon="4.86658">
        <ele>166.4</ele>
        <time>2025-06-20T08:37:42Z</time>
      </trkpt>
      <trkpt lat="49.60899" lon="4.86658">
        <ele>166.4</ele>
        <time>2025-06-20T08:37:46Z</time>
      </trkpt>
      <trkpt lat="49.60922" lon="4.86657">
        <ele>166.4</ele>
        <time>2025-06-20T08:37:50Z</time>
      </trkpt>
      <trkpt lat="49.60945" lon="4.86656">
        <ele>166.6</ele>
        <time>2025-06-20T08:37:54Z</time>
      </trkpt>
      <trkpt lat="49.60968" lon="4.86655">
        <ele>167.1</ele>
        <time>2025-06-20T08:37:58Z</time>
      </trkpt>
      <trkpt lat="49.60989" lon="4.8665">
        <ele>166.9</ele>
        <time>2025-06-20T08:38:02Z</time>
      </trkpt>
      <trkpt lat="49.6101" lon="4.86642">
        <ele>166.7</ele>
        <time>2025-06-20T08:38:06Z</time>
      </trkpt>
      <trkpt lat="49.61031" lon="4.86632">
        <ele>166.2</ele>
        <time>2025-06-20T08:38:10Z</time>
      </trkpt>
      <trkpt lat="49.61052" lon="4.86617">
        <ele>167.1</ele>
        <time>2025-06-20T08:38:14Z</time>
      </trkpt>
      <trkpt lat="49.61073" lon="4.86601">
        <ele>166.5</ele>
        <time>2025-06-20T08:38:18Z</time>
      </trkpt>
      <trkpt lat="49.61093" lon="4.86584">
        <ele>166</ele>
        <time>2025-06-20T08:38:22Z</time>
      </trkpt>
      <trkpt lat="49.61114" lon="4.86567">
        <ele>166.1</ele>
        <time>2025-06-20T08:38:26Z</time>
      </trkpt>
      <trkpt lat="49.61135" lon="4.8655">
        <ele>165.8</ele>
        <time>2025-06-20T08:38:30Z</time>
      </trkpt>
      <trkpt lat="49.61156" lon="4.86532">
        <ele>166</ele>
        <time>2025-06-20T08:38:34Z</time>
      </trkpt>
      <trkpt lat="49.61177" lon="4.86514">
        <ele>166.3</ele>
        <time>2025-06-20T08:38:38Z</time>
      </trkpt>
      <trkpt lat="49.61198" lon="4.86496">
        <ele>166.2</ele>
        <time>2025-06-20T08:38:42Z</time>
      </trkpt>
      <trkpt lat="49.61219" lon="4.86479">
        <ele>166.6</ele>
        <time>2025-06-20T08:38:46Z</time>
      </trkpt>
      <trkpt lat="49.6124" lon="4.86461">
        <ele>166.2</ele>
        <time>2025-06-20T08:38:50Z</time>
      </trkpt>
      <trkpt lat="49.61261" lon="4.86443">
        <ele>165.7</ele>
        <time>2025-06-20T08:38:54Z</time>
      </trkpt>
      <trkpt lat="49.61281" lon="4.86425">
        <ele>165.8</ele>
        <time>2025-06-20T08:38:58Z</time>
      </trkpt>
      <trkpt lat="49.61302" lon="4.86407">
        <ele>165.5</ele>
        <time>2025-06-20T08:39:02Z</time>
      </trkpt>
      <trkpt lat="49.61323" lon="4.8639">
        <ele>165.7</ele>
        <time>2025-06-20T08:39:06Z</time>
      </trkpt>
      <trkpt lat="49.61343" lon="4.86373">
        <ele>165.4</ele>
        <time>2025-06-20T08:39:10Z</time>
      </trkpt>
      <trkpt lat="49.61363" lon="4.86357">
        <ele>165.2</ele>
        <time>2025-06-20T08:39:14Z</time>
      </trkpt>
      <trkpt lat="49.61383" lon="4.8634">
        <ele>166.2</ele>
        <time>2025-06-20T08:39:18Z</time>
      </trkpt>
      <trkpt lat="49.61402" lon="4.86324">
        <ele>166.6</ele>
        <time>2025-06-20T08:39:22Z</time>
      </trkpt>
      <trkpt lat="49.61421" lon="4.86308">
        <ele>167.4</ele>
        <time>2025-06-20T08:39:26Z</time>
      </trkpt>
      <trkpt lat="49.6144" lon="4.86291">
        <ele>167.6</ele>
        <time>2025-06-20T08:39:30Z</time>
      </trkpt>
      <trkpt lat="49.6146" lon="4.86275">
        <ele>167.4</ele>
        <time>2025-06-20T08:39:34Z</time>
      </trkpt>
      <trkpt lat="49.61481" lon="4.86258">
        <ele>167.6</ele>
        <time>2025-06-20T08:39:38Z</time>
      </trkpt>
      <trkpt lat="49.615" lon="4.8624">
        <ele>167.6</ele>
        <time>2025-06-20T08:39:42Z</time>
      </trkpt>
      <trkpt lat="49.61519" lon="4.86222">
        <ele>168.4</ele>
        <time>2025-06-20T08:39:46Z</time>
      </trkpt>
      <trkpt lat="49.61537" lon="4.86204">
        <ele>168.5</ele>
        <time>2025-06-20T08:39:50Z</time>
      </trkpt>
      <trkpt lat="49.61554" lon="4.86185">
        <ele>168.2</ele>
        <time>2025-06-20T08:39:54Z</time>
      </trkpt>
      <trkpt lat="49.61572" lon="4.86168">
        <ele>168.3</ele>
        <time>2025-06-20T08:39:58Z</time>
      </trkpt>
      <trkpt lat="49.6159" lon="4.8615">
        <ele>168.5</ele>
        <time>2025-06-20T08:40:02Z</time>
      </trkpt>
      <trkpt lat="49.61608" lon="4.86132">
        <ele>168.3</ele>
        <time>2025-06-20T08:40:06Z</time>
      </trkpt>
      <trkpt lat="49.61626" lon="4.86113">
        <ele>168.8</ele>
        <time>2025-06-20T08:40:10Z</time>
      </trkpt>
      <trkpt lat="49.61645" lon="4.86095">
        <ele>169.4</ele>
        <time>2025-06-20T08:40:14Z</time>
      </trkpt>
      <trkpt lat="49.61661" lon="4.86077">
        <ele>169</ele>
        <time>2025-06-20T08:40:18Z</time>
      </trkpt>
      <trkpt lat="49.61675" lon="4.86061">
        <ele>169.7</ele>
        <time>2025-06-20T08:40:22Z</time>
      </trkpt>
      <trkpt lat="49.6169" lon="4.86048">
        <ele>170.5</ele>
        <time>2025-06-20T08:40:26Z</time>
      </trkpt>
      <trkpt lat="49.61706" lon="4.86033">
        <ele>171.5</ele>
        <time>2025-06-20T08:40:30Z</time>
      </trkpt>
      <trkpt lat="49.61718" lon="4.86014">
        <ele>171.3</ele>
        <time>2025-06-20T08:40:34Z</time>
      </trkpt>
      <trkpt lat="49.6173" lon="4.85997">
        <ele>171.6</ele>
        <time>2025-06-20T08:40:38Z</time>
      </trkpt>
      <trkpt lat="49.61746" lon="4.85969">
        <ele>169.8</ele>
        <time>2025-06-20T08:40:42Z</time>
      </trkpt>
      <trkpt lat="49.61763" lon="4.85931">
        <ele>167.9</ele>
        <time>2025-06-20T08:40:46Z</time>
      </trkpt>
      <trkpt lat="49.61781" lon="4.85886">
        <ele>165.1</ele>
        <time>2025-06-20T08:40:50Z</time>
      </trkpt>
      <trkpt lat="49.618" lon="4.85836">
        <ele>163.1</ele>
        <time>2025-06-20T08:40:54Z</time>
      </trkpt>
      <trkpt lat="49.61819" lon="4.85785">
        <ele>161.6</ele>
        <time>2025-06-20T08:40:58Z</time>
      </trkpt>
      <trkpt lat="49.6184" lon="4.85739">
        <ele>161.1</ele>
        <time>2025-06-20T08:41:02Z</time>
      </trkpt>
      <trkpt lat="49.61861" lon="4.857">
        <ele>160.4</ele>
        <time>2025-06-20T08:41:06Z</time>
      </trkpt>
      <trkpt lat="49.6188" lon="4.85664">
        <ele>160.9</ele>
        <time>2025-06-20T08:41:10Z</time>
      </trkpt>
      <trkpt lat="49.61898" lon="4.85632">
        <ele>160.8</ele>
        <time>2025-06-20T08:41:14Z</time>
      </trkpt>
      <trkpt lat="49.61913" lon="4.85604">
        <ele>161</ele>
        <time>2025-06-20T08:41:18Z</time>
      </trkpt>
      <trkpt lat="49.61927" lon="4.85578">
        <ele>161.4</ele>
        <time>2025-06-20T08:41:22Z</time>
      </trkpt>
      <trkpt lat="49.61942" lon="4.85555">
        <ele>161.6</ele>
        <time>2025-06-20T08:41:26Z</time>
      </trkpt>
      <trkpt lat="49.61958" lon="4.85534">
        <ele>162</ele>
        <time>2025-06-20T08:41:30Z</time>
      </trkpt>
      <trkpt lat="49.61975" lon="4.85514">
        <ele>161.9</ele>
        <time>2025-06-20T08:41:34Z</time>
      </trkpt>
      <trkpt lat="49.61994" lon="4.85492">
        <ele>162.4</ele>
        <time>2025-06-20T08:41:38Z</time>
      </trkpt>
      <trkpt lat="49.62012" lon="4.85471">
        <ele>162.2</ele>
        <time>2025-06-20T08:41:42Z</time>
      </trkpt>
      <trkpt lat="49.62031" lon="4.8545">
        <ele>161.9</ele>
        <time>2025-06-20T08:41:46Z</time>
      </trkpt>
      <trkpt lat="49.62049" lon="4.85427">
        <ele>162.2</ele>
        <time>2025-06-20T08:41:50Z</time>
      </trkpt>
      <trkpt lat="49.62066" lon="4.85403">
        <ele>162.1</ele>
        <time>2025-06-20T08:41:54Z</time>
      </trkpt>
      <trkpt lat="49.62083" lon="4.85381">
        <ele>161.7</ele>
        <time>2025-06-20T08:41:58Z</time>
      </trkpt>
      <trkpt lat="49.62101" lon="4.85358">
        <ele>162.7</ele>
        <time>2025-06-20T08:42:02Z</time>
      </trkpt>
      <trkpt lat="49.62118" lon="4.85336">
        <ele>162.9</ele>
        <time>2025-06-20T08:42:06Z</time>
      </trkpt>
      <trkpt lat="49.62135" lon="4.85315">
        <ele>163.4</ele>
        <time>2025-06-20T08:42:10Z</time>
      </trkpt>
      <trkpt lat="49.62152" lon="4.85295">
        <ele>163.9</ele>
        <time>2025-06-20T08:42:14Z</time>
      </trkpt>
      <trkpt lat="49.6217" lon="4.85277">
        <ele>164.2</ele>
        <time>2025-06-20T08:42:18Z</time>
      </trkpt>
      <trkpt lat="49.62188" lon="4.85261">
        <ele>164.5</ele>
        <time>2025-06-20T08:42:22Z</time>
      </trkpt>
      <trkpt lat="49.62205" lon="4.85246">
        <ele>164.6</ele>
        <time>2025-06-20T08:42:26Z</time>
      </trkpt>
      <trkpt lat="49.62222" lon="4.8523">
        <ele>165.3</ele>
        <time>2025-06-20T08:42:30Z</time>
      </trkpt>
      <trkpt lat="49.62238" lon="4.85217">
        <ele>165.4</ele>
        <time>2025-06-20T08:42:34Z</time>
      </trkpt>
      <trkpt lat="49.62254" lon="4.85205">
        <ele>165.7</ele>
        <time>2025-06-20T08:42:38Z</time>
      </trkpt>
      <trkpt lat="49.62269" lon="4.85192">
        <ele>166.3</ele>
        <time>2025-06-20T08:42:42Z</time>
      </trkpt>
      <trkpt lat="49.62284" lon="4.85179">
        <ele>166.7</ele>
        <time>2025-06-20T08:42:46Z</time>
      </trkpt>
      <trkpt lat="49.62298" lon="4.85163">
        <ele>166.6</ele>
        <time>2025-06-20T08:42:50Z</time>
      </trkpt>
      <trkpt lat="49.62312" lon="4.85141">
        <ele>166.3</ele>
        <time>2025-06-20T08:42:54Z</time>
      </trkpt>
      <trkpt lat="49.62325" lon="4.85118">
        <ele>166</ele>
        <time>2025-06-20T08:42:58Z</time>
      </trkpt>
      <trkpt lat="49.62338" lon="4.85094">
        <ele>166</ele>
        <time>2025-06-20T08:43:02Z</time>
      </trkpt>
      <trkpt lat="49.62352" lon="4.85071">
        <ele>166.2</ele>
        <time>2025-06-20T08:43:06Z</time>
      </trkpt>
      <trkpt lat="49.62366" lon="4.85049">
        <ele>167</ele>
        <time>2025-06-20T08:43:10Z</time>
      </trkpt>
      <trkpt lat="49.62381" lon="4.85029">
        <ele>167.4</ele>
        <time>2025-06-20T08:43:14Z</time>
      </trkpt>
      <trkpt lat="49.62398" lon="4.85008">
        <ele>166.8</ele>
        <time>2025-06-20T08:43:18Z</time>
      </trkpt>
      <trkpt lat="49.62415" lon="4.84988">
        <ele>167</ele>
        <time>2025-06-20T08:43:22Z</time>
      </trkpt>
      <trkpt lat="49.62433" lon="4.84972">
        <ele>167</ele>
        <time>2025-06-20T08:43:26Z</time>
      </trkpt>
      <trkpt lat="49.6245" lon="4.84956">
        <ele>166.5</ele>
        <time>2025-06-20T08:43:30Z</time>
      </trkpt>
      <trkpt lat="49.62467" lon="4.84943">
        <ele>166</ele>
        <time>2025-06-20T08:43:34Z</time>
      </trkpt>
      <trkpt lat="49.62487" lon="4.84936">
        <ele>166.9</ele>
        <time>2025-06-20T08:43:38Z</time>
      </trkpt>
      <trkpt lat="49.62506" lon="4.84934">
        <ele>167.7</ele>
        <time>2025-06-20T08:43:42Z</time>
      </trkpt>
      <trkpt lat="49.62523" lon="4.84944">
        <ele>168</ele>
        <time>2025-06-20T08:43:46Z</time>
      </trkpt>
      <trkpt lat="49.62538" lon="4.84957">
        <ele>169.1</ele>
        <time>2025-06-20T08:43:50Z</time>
      </trkpt>
      <trkpt lat="49.62551" lon="4.84973">
        <ele>169.2</ele>
        <time>2025-06-20T08:43:54Z</time>
      </trkpt>
      <trkpt lat="49.62567" lon="4.84978">
        <ele>169.6</ele>
        <time>2025-06-20T08:43:58Z</time>
      </trkpt>
      <trkpt lat="49.62584" lon="4.84961">
        <ele>170.4</ele>
        <time>2025-06-20T08:44:02Z</time>
      </trkpt>
      <trkpt lat="49.626" lon="4.84944">
        <ele>170.4</ele>
        <time>2025-06-20T08:44:06Z</time>
      </trkpt>
      <trkpt lat="49.62617" lon="4.84923">
        <ele>170</ele>
        <time>2025-06-20T08:44:10Z</time>
      </trkpt>
      <trkpt lat="49.62635" lon="4.84902">
        <ele>169.5</ele>
        <time>2025-06-20T08:44:14Z</time>
      </trkpt>
      <trkpt lat="49.62655" lon="4.84879">
        <ele>169.2</ele>
        <time>2025-06-20T08:44:18Z</time>
      </trkpt>
      <trkpt lat="49.62677" lon="4.8486">
        <ele>168.4</ele>
        <time>2025-06-20T08:44:22Z</time>
      </trkpt>
      <trkpt lat="49.62698" lon="4.84843">
        <ele>168.4</ele>
        <time>2025-06-20T08:44:26Z</time>
      </trkpt>
      <trkpt lat="49.62718" lon="4.84827">
        <ele>168.7</ele>
        <time>2025-06-20T08:44:30Z</time>
      </trkpt>
      <trkpt lat="49.62738" lon="4.84807">
        <ele>168.6</ele>
        <time>2025-06-20T08:44:34Z</time>
      </trkpt>
      <trkpt lat="49.62758" lon="4.84784">
        <ele>167.3</ele>
        <time>2025-06-20T08:44:38Z</time>
      </trkpt>
      <trkpt lat="49.62778" lon="4.84762">
        <ele>167.9</ele>
        <time>2025-06-20T08:44:42Z</time>
      </trkpt>
      <trkpt lat="49.62795" lon="4.84742">
        <ele>167.9</ele>
        <time>2025-06-20T08:44:46Z</time>
      </trkpt>
      <trkpt lat="49.6281" lon="4.84725">
        <ele>167.6</ele>
        <time>2025-06-20T08:44:50Z</time>
      </trkpt>
      <trkpt lat="49.62826" lon="4.84709">
        <ele>168.6</ele>
        <time>2025-06-20T08:44:54Z</time>
      </trkpt>
      <trkpt lat="49.62843" lon="4.84694">
        <ele>168.4</ele>
        <time>2025-06-20T08:44:58Z</time>
      </trkpt>
      <trkpt lat="49.62858" lon="4.84679">
        <ele>169.4</ele>
        <time>2025-06-20T08:45:02Z</time>
      </trkpt>
      <trkpt lat="49.62874" lon="4.84665">
        <ele>170.5</ele>
        <time>2025-06-20T08:45:06Z</time>
      </trkpt>
      <trkpt lat="49.62888" lon="4.84651">
        <ele>171</ele>
        <time>2025-06-20T08:45:10Z</time>
      </trkpt>
      <trkpt lat="49.62903" lon="4.84638">
        <ele>171</ele>
        <time>2025-06-20T08:45:14Z</time>
      </trkpt>
      <trkpt lat="49.62919" lon="4.84627">
        <ele>171</ele>
        <time>2025-06-20T08:45:18Z</time>
      </trkpt>
      <trkpt lat="49.62938" lon="4.84616">
        <ele>170.4</ele>
        <time>2025-06-20T08:45:22Z</time>
      </trkpt>
      <trkpt lat="49.62961" lon="4.84605">
        <ele>170</ele>
        <time>2025-06-20T08:45:26Z</time>
      </trkpt>
      <trkpt lat="49.62985" lon="4.84592">
        <ele>168.9</ele>
        <time>2025-06-20T08:45:30Z</time>
      </trkpt>
      <trkpt lat="49.6301" lon="4.84579">
        <ele>168</ele>
        <time>2025-06-20T08:45:34Z</time>
      </trkpt>
      <trkpt lat="49.63034" lon="4.84566">
        <ele>168.1</ele>
        <time>2025-06-20T08:45:38Z</time>
      </trkpt>
      <trkpt lat="49.63056" lon="4.84554">
        <ele>167.9</ele>
        <time>2025-06-20T08:45:42Z</time>
      </trkpt>
      <trkpt lat="49.63078" lon="4.84539">
        <ele>167.3</ele>
        <time>2025-06-20T08:45:46Z</time>
      </trkpt>
      <trkpt lat="49.63097" lon="4.84524">
        <ele>167.4</ele>
        <time>2025-06-20T08:45:50Z</time>
      </trkpt>
      <trkpt lat="49.63115" lon="4.84509">
        <ele>167.6</ele>
        <time>2025-06-20T08:45:54Z</time>
      </trkpt>
      <trkpt lat="49.63134" lon="4.84496">
        <ele>168.5</ele>
        <time>2025-06-20T08:45:58Z</time>
      </trkpt>
      <trkpt lat="49.63153" lon="4.84486">
        <ele>168.7</ele>
        <time>2025-06-20T08:46:02Z</time>
      </trkpt>
      <trkpt lat="49.63173" lon="4.84481">
        <ele>168.9</ele>
        <time>2025-06-20T08:46:06Z</time>
      </trkpt>
      <trkpt lat="49.63194" lon="4.84475">
        <ele>169.2</ele>
        <time>2025-06-20T08:46:10Z</time>
      </trkpt>
      <trkpt lat="49.63213" lon="4.84471">
        <ele>169.6</ele>
        <time>2025-06-20T08:46:14Z</time>
      </trkpt>
      <trkpt lat="49.63233" lon="4.84467">
        <ele>170.2</ele>
        <time>2025-06-20T08:46:18Z</time>
      </trkpt>
      <trkpt lat="49.63252" lon="4.84463">
        <ele>170.8</ele>
        <time>2025-06-20T08:46:22Z</time>
      </trkpt>
      <trkpt lat="49.63271" lon="4.84461">
        <ele>172.1</ele>
        <time>2025-06-20T08:46:26Z</time>
      </trkpt>
      <trkpt lat="49.63289" lon="4.84458">
        <ele>172.9</ele>
        <time>2025-06-20T08:46:30Z</time>
      </trkpt>
      <trkpt lat="49.63306" lon="4.84456">
        <ele>173.4</ele>
        <time>2025-06-20T08:46:34Z</time>
      </trkpt>
      <trkpt lat="49.63323" lon="4.84453">
        <ele>173.3</ele>
        <time>2025-06-20T08:46:38Z</time>
      </trkpt>
      <trkpt lat="49.63341" lon="4.84454">
        <ele>173.3</ele>
        <time>2025-06-20T08:46:42Z</time>
      </trkpt>
      <trkpt lat="49.63359" lon="4.84455">
        <ele>173.4</ele>
        <time>2025-06-20T08:46:46Z</time>
      </trkpt>
      <trkpt lat="49.63377" lon="4.84458">
        <ele>173.2</ele>
        <time>2025-06-20T08:46:50Z</time>
      </trkpt>
      <trkpt lat="49.63395" lon="4.84461">
        <ele>172.8</ele>
        <time>2025-06-20T08:46:54Z</time>
      </trkpt>
      <trkpt lat="49.63416" lon="4.84467">
        <ele>172</ele>
        <time>2025-06-20T08:46:58Z</time>
      </trkpt>
      <trkpt lat="49.63441" lon="4.84474">
        <ele>170.2</ele>
        <time>2025-06-20T08:47:02Z</time>
      </trkpt>
      <trkpt lat="49.6347" lon="4.84484">
        <ele>168.7</ele>
        <time>2025-06-20T08:47:06Z</time>
      </trkpt>
      <trkpt lat="49.63502" lon="4.84494">
        <ele>167.1</ele>
        <time>2025-06-20T08:47:10Z</time>
      </trkpt>
      <trkpt lat="49.63535" lon="4.845">
        <ele>165.7</ele>
        <time>2025-06-20T08:47:14Z</time>
      </trkpt>
      <trkpt lat="49.63563" lon="4.84505">
        <ele>164.9</ele>
        <time>2025-06-20T08:47:18Z</time>
      </trkpt>
      <trkpt lat="49.6358" lon="4.845">
        <ele>164.1</ele>
        <time>2025-06-20T08:47:22Z</time>
      </trkpt>
      <trkpt lat="49.63582" lon="4.84479">
        <ele>164</ele>
        <time>2025-06-20T08:47:26Z</time>
      </trkpt>
      <trkpt lat="49.63577" lon="4.84455">
        <ele>164.2</ele>
        <time>2025-06-20T08:47:30Z</time>
      </trkpt>
      <trkpt lat="49.6357" lon="4.84428">
        <ele>164.2</ele>
        <time>2025-06-20T08:47:34Z</time>
      </trkpt>
      <trkpt lat="49.63562" lon="4.84397">
        <ele>164</ele>
        <time>2025-06-20T08:47:38Z</time>
      </trkpt>
      <trkpt lat="49.63553" lon="4.84361">
        <ele>163.1</ele>
        <time>2025-06-20T08:47:42Z</time>
      </trkpt>
      <trkpt lat="49.63544" lon="4.84327">
        <ele>162.9</ele>
        <time>2025-06-20T08:47:46Z</time>
      </trkpt>
      <trkpt lat="49.63536" lon="4.84295">
        <ele>163.3</ele>
        <time>2025-06-20T08:47:50Z</time>
      </trkpt>
      <trkpt lat="49.63528" lon="4.84262">
        <ele>164</ele>
        <time>2025-06-20T08:47:54Z</time>
      </trkpt>
      <trkpt lat="49.63519" lon="4.84231">
        <ele>164.8</ele>
        <time>2025-06-20T08:47:58Z</time>
      </trkpt>
      <trkpt lat="49.63509" lon="4.84206">
        <ele>166</ele>
        <time>2025-06-20T08:48:02Z</time>
      </trkpt>
      <trkpt lat="49.63499" lon="4.84185">
        <ele>167</ele>
        <time>2025-06-20T08:48:06Z</time>
      </trkpt>
      <trkpt lat="49.63487" lon="4.84163">
        <ele>167.6</ele>
        <time>2025-06-20T08:48:10Z</time>
      </trkpt>
      <trkpt lat="49.63475" lon="4.84141">
        <ele>168.8</ele>
        <time>2025-06-20T08:48:14Z</time>
      </trkpt>
      <trkpt lat="49.63465" lon="4.84121">
        <ele>169.3</ele>
        <time>2025-06-20T08:48:18Z</time>
      </trkpt>
      <trkpt lat="49.63455" lon="4.84102">
        <ele>169.6</ele>
        <time>2025-06-20T08:48:22Z</time>
      </trkpt>
      <trkpt lat="49.63445" lon="4.84083">
        <ele>170</ele>
        <time>2025-06-20T08:48:26Z</time>
      </trkpt>
      <trkpt lat="49.63434" lon="4.84061">
        <ele>170.4</ele>
        <time>2025-06-20T08:48:30Z</time>
      </trkpt>
      <trkpt lat="49.63426" lon="4.84035">
        <ele>170.2</ele>
        <time>2025-06-20T08:48:34Z</time>
      </trkpt>
      <trkpt lat="49.63423" lon="4.84005">
        <ele>169.8</ele>
        <time>2025-06-20T08:48:38Z</time>
      </trkpt>
      <trkpt lat="49.63421" lon="4.83975">
        <ele>169.8</ele>
        <time>2025-06-20T08:48:42Z</time>
      </trkpt>
      <trkpt lat="49.63422" lon="4.83941">
        <ele>168.8</ele>
        <time>2025-06-20T08:48:46Z</time>
      </trkpt>
      <trkpt lat="49.63427" lon="4.83904">
        <ele>168.3</ele>
        <time>2025-06-20T08:48:50Z</time>
      </trkpt>
      <trkpt lat="49.63432" lon="4.83865">
        <ele>167.5</ele>
        <time>2025-06-20T08:48:54Z</time>
      </trkpt>
      <trkpt lat="49.63435" lon="4.83822">
        <ele>166.6</ele>
        <time>2025-06-20T08:48:58Z</time>
      </trkpt>
      <trkpt lat="49.63431" lon="4.83773">
        <ele>164.8</ele>
        <time>2025-06-20T08:49:02Z</time>
      </trkpt>
      <trkpt lat="49.63416" lon="4.83724">
        <ele>163</ele>
        <time>2025-06-20T08:49:06Z</time>
      </trkpt>
      <trkpt lat="49.63389" lon="4.83675">
        <ele>159.3</ele>
        <time>2025-06-20T08:49:10Z</time>
      </trkpt>
      <trkpt lat="49.63354" lon="4.83635">
        <ele>157.6</ele>
        <time>2025-06-20T08:49:14Z</time>
      </trkpt>
      <trkpt lat="49.63315" lon="4.83611">
        <ele>157</ele>
        <time>2025-06-20T08:49:18Z</time>
      </trkpt>
      <trkpt lat="49.63277" lon="4.83592">
        <ele>156</ele>
        <time>2025-06-20T08:49:22Z</time>
      </trkpt>
      <trkpt lat="49.6325" lon="4.83556">
        <ele>156</ele>
        <time>2025-06-20T08:49:26Z</time>
      </trkpt>
      <trkpt lat="49.63232" lon="4.83511">
        <ele>156</ele>
        <time>2025-06-20T08:49:30Z</time>
      </trkpt>
      <trkpt lat="49.63219" lon="4.83469">
        <ele>156.8</ele>
        <time>2025-06-20T08:49:34Z</time>
      </trkpt>
      <trkpt lat="49.6321" lon="4.83435">
        <ele>155</ele>
        <time>2025-06-20T08:49:38Z</time>
      </trkpt>
      <trkpt lat="49.63204" lon="4.83406">
        <ele>156.5</ele>
        <time>2025-06-20T08:49:42Z</time>
      </trkpt>
      <trkpt lat="49.63198" lon="4.83383">
        <ele>158.7</ele>
        <time>2025-06-20T08:49:46Z</time>
      </trkpt>
      <trkpt lat="49.63194" lon="4.83362">
        <ele>159</ele>
        <time>2025-06-20T08:49:50Z</time>
      </trkpt>
      <trkpt lat="49.63188" lon="4.83345">
        <ele>158.2</ele>
        <time>2025-06-20T08:49:54Z</time>
      </trkpt>
      <trkpt lat="49.6319" lon="4.83327">
        <ele>158</ele>
        <time>2025-06-20T08:49:58Z</time>
      </trkpt>
      <trkpt lat="49.6321" lon="4.83315">
        <ele>157.4</ele>
        <time>2025-06-20T08:50:02Z</time>
      </trkpt>
      <trkpt lat="49.63238" lon="4.83304">
        <ele>157</ele>
        <time>2025-06-20T08:50:06Z</time>
      </trkpt>
      <trkpt lat="49.63263" lon="4.83292">
        <ele>157</ele>
        <time>2025-06-20T08:50:10Z</time>
      </trkpt>
      <trkpt lat="49.63287" lon="4.8328">
        <ele>157</ele>
        <time>2025-06-20T08:50:14Z</time>
      </trkpt>
      <trkpt lat="49.63309" lon="4.83269">
        <ele>156.7</ele>
        <time>2025-06-20T08:50:18Z</time>
      </trkpt>
      <trkpt lat="49.63329" lon="4.83258">
        <ele>156.9</ele>
        <time>2025-06-20T08:50:22Z</time>
      </trkpt>
      <trkpt lat="49.6335" lon="4.83248">
        <ele>156.9</ele>
        <time>2025-06-20T08:50:26Z</time>
      </trkpt>
      <trkpt lat="49.6337" lon="4.83238">
        <ele>156.7</ele>
        <time>2025-06-20T08:50:30Z</time>
      </trkpt>
      <trkpt lat="49.63393" lon="4.83226">
        <ele>157</ele>
        <time>2025-06-20T08:50:34Z</time>
      </trkpt>
      <trkpt lat="49.63415" lon="4.83216">
        <ele>156.8</ele>
        <time>2025-06-20T08:50:38Z</time>
      </trkpt>
      <trkpt lat="49.63439" lon="4.83205">
        <ele>156.9</ele>
        <time>2025-06-20T08:50:42Z</time>
      </trkpt>
      <trkpt lat="49.63461" lon="4.83196">
        <ele>157</ele>
        <time>2025-06-20T08:50:46Z</time>
      </trkpt>
      <trkpt lat="49.63485" lon="4.83188">
        <ele>157</ele>
        <time>2025-06-20T08:50:50Z</time>
      </trkpt>
      <trkpt lat="49.63508" lon="4.8318">
        <ele>157</ele>
        <time>2025-06-20T08:50:54Z</time>
      </trkpt>
      <trkpt lat="49.63532" lon="4.83176">
        <ele>157</ele>
        <time>2025-06-20T08:50:58Z</time>
      </trkpt>
      <trkpt lat="49.63555" lon="4.83173">
        <ele>157</ele>
        <time>2025-06-20T08:51:02Z</time>
      </trkpt>
      <trkpt lat="49.63578" lon="4.83171">
        <ele>157.7</ele>
        <time>2025-06-20T08:51:06Z</time>
      </trkpt>
      <trkpt lat="49.63601" lon="4.8317">
        <ele>157.9</ele>
        <time>2025-06-20T08:51:10Z</time>
      </trkpt>
      <trkpt lat="49.63624" lon="4.83171">
        <ele>157.8</ele>
        <time>2025-06-20T08:51:14Z</time>
      </trkpt>
      <trkpt lat="49.63647" lon="4.83173">
        <ele>157.5</ele>
        <time>2025-06-20T08:51:18Z</time>
      </trkpt>
      <trkpt lat="49.6367" lon="4.83177">
        <ele>157.1</ele>
        <time>2025-06-20T08:51:22Z</time>
      </trkpt>
      <trkpt lat="49.63694" lon="4.83182">
        <ele>157.4</ele>
        <time>2025-06-20T08:51:26Z</time>
      </trkpt>
      <trkpt lat="49.63716" lon="4.83188">
        <ele>157.2</ele>
        <time>2025-06-20T08:51:30Z</time>
      </trkpt>
      <trkpt lat="49.63739" lon="4.83196">
        <ele>157.6</ele>
        <time>2025-06-20T08:51:34Z</time>
      </trkpt>
      <trkpt lat="49.63762" lon="4.83205">
        <ele>157.4</ele>
        <time>2025-06-20T08:51:38Z</time>
      </trkpt>
      <trkpt lat="49.63785" lon="4.83214">
        <ele>157.3</ele>
        <time>2025-06-20T08:51:42Z</time>
      </trkpt>
      <trkpt lat="49.63808" lon="4.83226">
        <ele>157.8</ele>
        <time>2025-06-20T08:51:46Z</time>
      </trkpt>
      <trkpt lat="49.63831" lon="4.83238">
        <ele>157</ele>
        <time>2025-06-20T08:51:50Z</time>
      </trkpt>
      <trkpt lat="49.63852" lon="4.83252">
        <ele>157</ele>
        <time>2025-06-20T08:51:54Z</time>
      </trkpt>
      <trkpt lat="49.63873" lon="4.83266">
        <ele>157</ele>
        <time>2025-06-20T08:51:58Z</time>
      </trkpt>
      <trkpt lat="49.63893" lon="4.83281">
        <ele>157</ele>
        <time>2025-06-20T08:52:02Z</time>
      </trkpt>
      <trkpt lat="49.63913" lon="4.83298">
        <ele>157</ele>
        <time>2025-06-20T08:52:06Z</time>
      </trkpt>
      <trkpt lat="49.63932" lon="4.83316">
        <ele>156.7</ele>
        <time>2025-06-20T08:52:10Z</time>
      </trkpt>
      <trkpt lat="49.63951" lon="4.83334">
        <ele>156.8</ele>
        <time>2025-06-20T08:52:14Z</time>
      </trkpt>
      <trkpt lat="49.63969" lon="4.83353">
        <ele>156.7</ele>
        <time>2025-06-20T08:52:18Z</time>
      </trkpt>
      <trkpt lat="49.63987" lon="4.83374">
        <ele>156.7</ele>
        <time>2025-06-20T08:52:22Z</time>
      </trkpt>
      <trkpt lat="49.64004" lon="4.83396">
        <ele>156.7</ele>
        <time>2025-06-20T08:52:26Z</time>
      </trkpt>
      <trkpt lat="49.64022" lon="4.83417">
        <ele>156.2</ele>
        <time>2025-06-20T08:52:30Z</time>
      </trkpt>
      <trkpt lat="49.64039" lon="4.83433">
        <ele>156.4</ele>
        <time>2025-06-20T08:52:34Z</time>
      </trkpt>
      <trkpt lat="49.64056" lon="4.83452">
        <ele>156.3</ele>
        <time>2025-06-20T08:52:38Z</time>
      </trkpt>
      <trkpt lat="49.64074" lon="4.83472">
        <ele>156.3</ele>
        <time>2025-06-20T08:52:42Z</time>
      </trkpt>
      <trkpt lat="49.64091" lon="4.83493">
        <ele>156.8</ele>
        <time>2025-06-20T08:52:46Z</time>
      </trkpt>
      <trkpt lat="49.64109" lon="4.83514">
        <ele>157</ele>
        <time>2025-06-20T08:52:50Z</time>
      </trkpt>
      <trkpt lat="49.64126" lon="4.83536">
        <ele>157</ele>
        <time>2025-06-20T08:52:54Z</time>
      </trkpt>
      <trkpt lat="49.64144" lon="4.83557">
        <ele>157</ele>
        <time>2025-06-20T08:52:58Z</time>
      </trkpt>
      <trkpt lat="49.64162" lon="4.8358">
        <ele>157</ele>
        <time>2025-06-20T08:53:02Z</time>
      </trkpt>
      <trkpt lat="49.64178" lon="4.83603">
        <ele>156.8</ele>
        <time>2025-06-20T08:53:06Z</time>
      </trkpt>
      <trkpt lat="49.64194" lon="4.83628">
        <ele>156.6</ele>
        <time>2025-06-20T08:53:10Z</time>
      </trkpt>
      <trkpt lat="49.64209" lon="4.83654">
        <ele>157.2</ele>
        <time>2025-06-20T08:53:14Z</time>
      </trkpt>
      <trkpt lat="49.64223" lon="4.83681">
        <ele>157.1</ele>
        <time>2025-06-20T08:53:18Z</time>
      </trkpt>
      <trkpt lat="49.64237" lon="4.83709">
        <ele>157.3</ele>
        <time>2025-06-20T08:53:22Z</time>
      </trkpt>
      <trkpt lat="49.6425" lon="4.83738">
        <ele>157</ele>
        <time>2025-06-20T08:53:26Z</time>
      </trkpt>
      <trkpt lat="49.64262" lon="4.83767">
        <ele>157.2</ele>
        <time>2025-06-20T08:53:30Z</time>
      </trkpt>
      <trkpt lat="49.64273" lon="4.83797">
        <ele>157</ele>
        <time>2025-06-20T08:53:34Z</time>
      </trkpt>
      <trkpt lat="49.64284" lon="4.83827">
        <ele>157.1</ele>
        <time>2025-06-20T08:53:38Z</time>
      </trkpt>
      <trkpt lat="49.64294" lon="4.83859">
        <ele>156.5</ele>
        <time>2025-06-20T08:53:42Z</time>
      </trkpt>
      <trkpt lat="49.64304" lon="4.8389">
        <ele>157</ele>
        <time>2025-06-20T08:53:46Z</time>
      </trkpt>
      <trkpt lat="49.64314" lon="4.83921">
        <ele>157</ele>
        <time>2025-06-20T08:53:50Z</time>
      </trkpt>
      <trkpt lat="49.64323" lon="4.83951">
        <ele>156.5</ele>
        <time>2025-06-20T08:53:54Z</time>
      </trkpt>
      <trkpt lat="49.64332" lon="4.8398">
        <ele>157</ele>
        <time>2025-06-20T08:53:58Z</time>
      </trkpt>
      <trkpt lat="49.64342" lon="4.8401">
        <ele>157.2</ele>
        <time>2025-06-20T08:54:02Z</time>
      </trkpt>
      <trkpt lat="49.6435" lon="4.84037">
        <ele>157.2</ele>
        <time>2025-06-20T08:54:06Z</time>
      </trkpt>
      <trkpt lat="49.64357" lon="4.84064">
        <ele>157.9</ele>
        <time>2025-06-20T08:54:10Z</time>
      </trkpt>
      <trkpt lat="49.64365" lon="4.84085">
        <ele>158.5</ele>
        <time>2025-06-20T08:54:14Z</time>
      </trkpt>
      <trkpt lat="49.64378" lon="4.84108">
        <ele>159</ele>
        <time>2025-06-20T08:54:18Z</time>
      </trkpt>
      <trkpt lat="49.64394" lon="4.84134">
        <ele>158.7</ele>
        <time>2025-06-20T08:54:22Z</time>
      </trkpt>
      <trkpt lat="49.64413" lon="4.84153">
        <ele>158.8</ele>
        <time>2025-06-20T08:54:26Z</time>
      </trkpt>
      <trkpt lat="49.64431" lon="4.84162">
        <ele>160.5</ele>
        <time>2025-06-20T08:54:30Z</time>
      </trkpt>
      <trkpt lat="49.64451" lon="4.84169">
        <ele>162.7</ele>
        <time>2025-06-20T08:54:34Z</time>
      </trkpt>
      <trkpt lat="49.64473" lon="4.84177">
        <ele>163.4</ele>
        <time>2025-06-20T08:54:38Z</time>
      </trkpt>
      <trkpt lat="49.6449" lon="4.8418">
        <ele>164.2</ele>
        <time>2025-06-20T08:54:42Z</time>
      </trkpt>
      <trkpt lat="49.64507" lon="4.84181">
        <ele>165.5</ele>
        <time>2025-06-20T08:54:46Z</time>
      </trkpt>
      <trkpt lat="49.64522" lon="4.84184">
        <ele>165.8</ele>
        <time>2025-06-20T08:54:50Z</time>
      </trkpt>
      <trkpt lat="49.64543" lon="4.84208">
        <ele>176.2</ele>
        <time>2025-06-20T08:54:54Z</time>
      </trkpt>
      <trkpt lat="49.64543" lon="4.84208">
        <ele>176.2</ele>
        <time>2025-06-20T08:54:58Z</time>
      </trkpt>
      <trkpt lat="49.64543" lon="4.84208">
        <ele>176.2</ele>
        <time>2025-06-20T08:55:22Z</time>
      </trkpt>
      <trkpt lat="49.64727" lon="4.84177">
        <ele>162.3</ele>
        <time>2025-06-20T08:55:26Z</time>
      </trkpt>
      <trkpt lat="49.64742" lon="4.84178">
        <ele>159.9</ele>
        <time>2025-06-20T08:55:30Z</time>
      </trkpt>
      <trkpt lat="49.64758" lon="4.84179">
        <ele>158.2</ele>
        <time>2025-06-20T08:55:34Z</time>
      </trkpt>
      <trkpt lat="49.64775" lon="4.84177">
        <ele>157.4</ele>
        <time>2025-06-20T08:55:38Z</time>
      </trkpt>
      <trkpt lat="49.64791" lon="4.84174">
        <ele>157.5</ele>
        <time>2025-06-20T08:55:42Z</time>
      </trkpt>
      <trkpt lat="49.64805" lon="4.84169">
        <ele>157.8</ele>
        <time>2025-06-20T08:55:46Z</time>
      </trkpt>
      <trkpt lat="49.64811" lon="4.84166">
        <ele>157.6</ele>
        <time>2025-06-20T08:55:50Z</time>
      </trkpt>
      <trkpt lat="49.64822" lon="4.84165">
        <ele>156.8</ele>
        <time>2025-06-20T08:55:54Z</time>
      </trkpt>
      <trkpt lat="49.64845" lon="4.84166">
        <ele>155.6</ele>
        <time>2025-06-20T08:55:58Z</time>
      </trkpt>
      <trkpt lat="49.64869" lon="4.84148">
        <ele>155</ele>
        <time>2025-06-20T08:56:02Z</time>
      </trkpt>
      <trkpt lat="49.64885" lon="4.84115">
        <ele>155.1</ele>
        <time>2025-06-20T08:56:06Z</time>
      </trkpt>
      <trkpt lat="49.64891" lon="4.84078">
        <ele>154.7</ele>
        <time>2025-06-20T08:56:10Z</time>
      </trkpt>
      <trkpt lat="49.64894" lon="4.84044">
        <ele>154</ele>
        <time>2025-06-20T08:56:14Z</time>
      </trkpt>
      <trkpt lat="49.64895" lon="4.84012">
        <ele>153.6</ele>
        <time>2025-06-20T08:56:18Z</time>
      </trkpt>
      <trkpt lat="49.64896" lon="4.8398">
        <ele>152.5</ele>
        <time>2025-06-20T08:56:22Z</time>
      </trkpt>
      <trkpt lat="49.64899" lon="4.83939">
        <ele>152</ele>
        <time>2025-06-20T08:56:26Z</time>
      </trkpt>
      <trkpt lat="49.64902" lon="4.83902">
        <ele>152</ele>
        <time>2025-06-20T08:56:30Z</time>
      </trkpt>
      <trkpt lat="49.64904" lon="4.8388">
        <ele>152</ele>
        <time>2025-06-20T08:56:34Z</time>
      </trkpt>
      <trkpt lat="49.64906" lon="4.83866">
        <ele>152</ele>
        <time>2025-06-20T08:56:38Z</time>
      </trkpt>
      <trkpt lat="49.64907" lon="4.8385">
        <ele>152</ele>
        <time>2025-06-20T08:56:42Z</time>
      </trkpt>
      <trkpt lat="49.6491" lon="4.83825">
        <ele>152</ele>
        <time>2025-06-20T08:56:46Z</time>
      </trkpt>
      <trkpt lat="49.64915" lon="4.83797">
        <ele>152</ele>
        <time>2025-06-20T08:56:50Z</time>
      </trkpt>
      <trkpt lat="49.64921" lon="4.83766">
        <ele>152</ele>
        <time>2025-06-20T08:56:54Z</time>
      </trkpt>
      <trkpt lat="49.64928" lon="4.83735">
        <ele>152</ele>
        <time>2025-06-20T08:56:58Z</time>
      </trkpt>
      <trkpt lat="49.64936" lon="4.83704">
        <ele>152</ele>
        <time>2025-06-20T08:57:02Z</time>
      </trkpt>
      <trkpt lat="49.64945" lon="4.83672">
        <ele>152</ele>
        <time>2025-06-20T08:57:06Z</time>
      </trkpt>
      <trkpt lat="49.64954" lon="4.83641">
        <ele>152</ele>
        <time>2025-06-20T08:57:10Z</time>
      </trkpt>
      <trkpt lat="49.64964" lon="4.8361">
        <ele>152</ele>
        <time>2025-06-20T08:57:14Z</time>
      </trkpt>
      <trkpt lat="49.64977" lon="4.83581">
        <ele>151.8</ele>
        <time>2025-06-20T08:57:18Z</time>
      </trkpt>
      <trkpt lat="49.64988" lon="4.8355">
        <ele>152</ele>
        <time>2025-06-20T08:57:22Z</time>
      </trkpt>
      <trkpt lat="49.65" lon="4.83518">
        <ele>152</ele>
        <time>2025-06-20T08:57:26Z</time>
      </trkpt>
      <trkpt lat="49.65011" lon="4.83485">
        <ele>152</ele>
        <time>2025-06-20T08:57:30Z</time>
      </trkpt>
      <trkpt lat="49.65023" lon="4.83455">
        <ele>152</ele>
        <time>2025-06-20T08:57:34Z</time>
      </trkpt>
      <trkpt lat="49.65033" lon="4.83425">
        <ele>151.9</ele>
        <time>2025-06-20T08:57:38Z</time>
      </trkpt>
      <trkpt lat="49.65046" lon="4.83395">
        <ele>152</ele>
        <time>2025-06-20T08:57:42Z</time>
      </trkpt>
      <trkpt lat="49.65061" lon="4.83365">
        <ele>152</ele>
        <time>2025-06-20T08:57:46Z</time>
      </trkpt>
      <trkpt lat="49.65077" lon="4.83338">
        <ele>152</ele>
        <time>2025-06-20T08:57:50Z</time>
      </trkpt>
      <trkpt lat="49.65093" lon="4.83312">
        <ele>152</ele>
        <time>2025-06-20T08:57:54Z</time>
      </trkpt>
      <trkpt lat="49.65111" lon="4.83288">
        <ele>152</ele>
        <time>2025-06-20T08:57:58Z</time>
      </trkpt>
      <trkpt lat="49.6513" lon="4.83266">
        <ele>152</ele>
        <time>2025-06-20T08:58:02Z</time>
      </trkpt>
      <trkpt lat="49.6515" lon="4.83245">
        <ele>152</ele>
        <time>2025-06-20T08:58:06Z</time>
      </trkpt>
      <trkpt lat="49.65168" lon="4.83225">
        <ele>152</ele>
        <time>2025-06-20T08:58:10Z</time>
      </trkpt>
      <trkpt lat="49.65188" lon="4.83207">
        <ele>152</ele>
        <time>2025-06-20T08:58:14Z</time>
      </trkpt>
      <trkpt lat="49.65209" lon="4.8319">
        <ele>152</ele>
        <time>2025-06-20T08:58:18Z</time>
      </trkpt>
      <trkpt lat="49.65229" lon="4.83176">
        <ele>152</ele>
        <time>2025-06-20T08:58:22Z</time>
      </trkpt>
      <trkpt lat="49.65251" lon="4.83163">
        <ele>152</ele>
        <time>2025-06-20T08:58:26Z</time>
      </trkpt>
      <trkpt lat="49.65272" lon="4.83153">
        <ele>151.6</ele>
        <time>2025-06-20T08:58:30Z</time>
      </trkpt>
      <trkpt lat="49.65295" lon="4.83145">
        <ele>151.7</ele>
        <time>2025-06-20T08:58:34Z</time>
      </trkpt>
      <trkpt lat="49.65319" lon="4.8314">
        <ele>152</ele>
        <time>2025-06-20T08:58:38Z</time>
      </trkpt>
      <trkpt lat="49.65342" lon="4.83136">
        <ele>151.9</ele>
        <time>2025-06-20T08:58:42Z</time>
      </trkpt>
      <trkpt lat="49.65365" lon="4.83135">
        <ele>151.9</ele>
        <time>2025-06-20T08:58:46Z</time>
      </trkpt>
      <trkpt lat="49.65389" lon="4.83133">
        <ele>151.8</ele>
        <time>2025-06-20T08:58:50Z</time>
      </trkpt>
      <trkpt lat="49.65412" lon="4.83133">
        <ele>151.8</ele>
        <time>2025-06-20T08:58:54Z</time>
      </trkpt>
      <trkpt lat="49.65435" lon="4.83131">
        <ele>151.7</ele>
        <time>2025-06-20T08:58:58Z</time>
      </trkpt>
      <trkpt lat="49.65458" lon="4.83131">
        <ele>151.7</ele>
        <time>2025-06-20T08:59:02Z</time>
      </trkpt>
      <trkpt lat="49.6548" lon="4.83131">
        <ele>151.7</ele>
        <time>2025-06-20T08:59:06Z</time>
      </trkpt>
      <trkpt lat="49.65502" lon="4.8313">
        <ele>151.7</ele>
        <time>2025-06-20T08:59:10Z</time>
      </trkpt>
      <trkpt lat="49.65524" lon="4.83129">
        <ele>151.6</ele>
        <time>2025-06-20T08:59:14Z</time>
      </trkpt>
      <trkpt lat="49.65546" lon="4.83129">
        <ele>151.6</ele>
        <time>2025-06-20T08:59:18Z</time>
      </trkpt>
      <trkpt lat="49.65567" lon="4.83127">
        <ele>151.6</ele>
        <time>2025-06-20T08:59:22Z</time>
      </trkpt>
      <trkpt lat="49.65589" lon="4.83127">
        <ele>151.6</ele>
        <time>2025-06-20T08:59:26Z</time>
      </trkpt>
      <trkpt lat="49.65612" lon="4.83126">
        <ele>151.5</ele>
        <time>2025-06-20T08:59:30Z</time>
      </trkpt>
      <trkpt lat="49.65634" lon="4.83124">
        <ele>151.5</ele>
        <time>2025-06-20T08:59:34Z</time>
      </trkpt>
      <trkpt lat="49.65657" lon="4.83123">
        <ele>151.4</ele>
        <time>2025-06-20T08:59:38Z</time>
      </trkpt>
      <trkpt lat="49.6568" lon="4.83122">
        <ele>151.4</ele>
        <time>2025-06-20T08:59:42Z</time>
      </trkpt>
      <trkpt lat="49.65703" lon="4.8312">
        <ele>151.3</ele>
        <time>2025-06-20T08:59:46Z</time>
      </trkpt>
      <trkpt lat="49.65724" lon="4.83119">
        <ele>151.3</ele>
        <time>2025-06-20T08:59:50Z</time>
      </trkpt>
      <trkpt lat="49.65748" lon="4.83118">
        <ele>151.9</ele>
        <time>2025-06-20T08:59:54Z</time>
      </trkpt>
      <trkpt lat="49.65769" lon="4.83118">
        <ele>152</ele>
        <time>2025-06-20T08:59:58Z</time>
      </trkpt>
      <trkpt lat="49.65792" lon="4.83117">
        <ele>152</ele>
        <time>2025-06-20T09:00:02Z</time>
      </trkpt>
      <trkpt lat="49.65815" lon="4.83117">
        <ele>151.7</ele>
        <time>2025-06-20T09:00:06Z</time>
      </trkpt>
      <trkpt lat="49.65837" lon="4.83115">
        <ele>151.1</ele>
        <time>2025-06-20T09:00:10Z</time>
      </trkpt>
      <trkpt lat="49.65859" lon="4.83113">
        <ele>151.1</ele>
        <time>2025-06-20T09:00:14Z</time>
      </trkpt>
      <trkpt lat="49.65882" lon="4.83113">
        <ele>151.1</ele>
        <time>2025-06-20T09:00:18Z</time>
      </trkpt>
      <trkpt lat="49.65905" lon="4.83114">
        <ele>151.1</ele>
        <time>2025-06-20T09:00:22Z</time>
      </trkpt>
      <trkpt lat="49.65927" lon="4.83116">
        <ele>151.2</ele>
        <time>2025-06-20T09:00:26Z</time>
      </trkpt>
      <trkpt lat="49.6595" lon="4.83116">
        <ele>151.2</ele>
        <time>2025-06-20T09:00:30Z</time>
      </trkpt>
      <trkpt lat="49.65973" lon="4.83119">
        <ele>151.3</ele>
        <time>2025-06-20T09:00:34Z</time>
      </trkpt>
      <trkpt lat="49.65995" lon="4.83122">
        <ele>150.9</ele>
        <time>2025-06-20T09:00:38Z</time>
      </trkpt>
      <trkpt lat="49.66018" lon="4.83125">
        <ele>151</ele>
        <time>2025-06-20T09:00:42Z</time>
      </trkpt>
      <trkpt lat="49.6604" lon="4.8313">
        <ele>151.5</ele>
        <time>2025-06-20T09:00:46Z</time>
      </trkpt>
      <trkpt lat="49.6606" lon="4.83137">
        <ele>151.8</ele>
        <time>2025-06-20T09:00:50Z</time>
      </trkpt>
      <trkpt lat="49.66081" lon="4.83145">
        <ele>151.3</ele>
        <time>2025-06-20T09:00:54Z</time>
      </trkpt>
      <trkpt lat="49.66101" lon="4.83154">
        <ele>151.8</ele>
        <time>2025-06-20T09:00:58Z</time>
      </trkpt>
      <trkpt lat="49.66121" lon="4.83162">
        <ele>152</ele>
        <time>2025-06-20T09:01:02Z</time>
      </trkpt>
      <trkpt lat="49.6614" lon="4.8317">
        <ele>152</ele>
        <time>2025-06-20T09:01:06Z</time>
      </trkpt>
      <trkpt lat="49.6616" lon="4.8318">
        <ele>151.6</ele>
        <time>2025-06-20T09:01:10Z</time>
      </trkpt>
      <trkpt lat="49.66181" lon="4.83191">
        <ele>151.9</ele>
        <time>2025-06-20T09:01:14Z</time>
      </trkpt>
      <trkpt lat="49.66203" lon="4.832">
        <ele>151.8</ele>
        <time>2025-06-20T09:01:18Z</time>
      </trkpt>
      <trkpt lat="49.66225" lon="4.8321">
        <ele>151.6</ele>
        <time>2025-06-20T09:01:22Z</time>
      </trkpt>
      <trkpt lat="49.66249" lon="4.83221">
        <ele>152</ele>
        <time>2025-06-20T09:01:26Z</time>
      </trkpt>
      <trkpt lat="49.66273" lon="4.83232">
        <ele>152</ele>
        <time>2025-06-20T09:01:30Z</time>
      </trkpt>
      <trkpt lat="49.66296" lon="4.83244">
        <ele>151.9</ele>
        <time>2025-06-20T09:01:34Z</time>
      </trkpt>
      <trkpt lat="49.6632" lon="4.83256">
        <ele>151.6</ele>
        <time>2025-06-20T09:01:38Z</time>
      </trkpt>
      <trkpt lat="49.66343" lon="4.83266">
        <ele>151.6</ele>
        <time>2025-06-20T09:01:42Z</time>
      </trkpt>
      <trkpt lat="49.66365" lon="4.83277">
        <ele>151.7</ele>
        <time>2025-06-20T09:01:46Z</time>
      </trkpt>
      <trkpt lat="49.66388" lon="4.83288">
        <ele>150.8</ele>
        <time>2025-06-20T09:01:50Z</time>
      </trkpt>
      <trkpt lat="49.66411" lon="4.83298">
        <ele>151.7</ele>
        <time>2025-06-20T09:01:54Z</time>
      </trkpt>
      <trkpt lat="49.66433" lon="4.83308">
        <ele>151.5</ele>
        <time>2025-06-20T09:01:58Z</time>
      </trkpt>
      <trkpt lat="49.66455" lon="4.83318">
        <ele>151.4</ele>
        <time>2025-06-20T09:02:02Z</time>
      </trkpt>
      <trkpt lat="49.66476" lon="4.83327">
        <ele>151.8</ele>
        <time>2025-06-20T09:02:06Z</time>
      </trkpt>
      <trkpt lat="49.66498" lon="4.83337">
        <ele>152</ele>
        <time>2025-06-20T09:02:10Z</time>
      </trkpt>
      <trkpt lat="49.6652" lon="4.83347">
        <ele>151.6</ele>
        <time>2025-06-20T09:02:14Z</time>
      </trkpt>
      <trkpt lat="49.66542" lon="4.83358">
        <ele>151.9</ele>
        <time>2025-06-20T09:02:18Z</time>
      </trkpt>
      <trkpt lat="49.66564" lon="4.83369">
        <ele>151.6</ele>
        <time>2025-06-20T09:02:22Z</time>
      </trkpt>
      <trkpt lat="49.66587" lon="4.83379">
        <ele>151.2</ele>
        <time>2025-06-20T09:02:26Z</time>
      </trkpt>
      <trkpt lat="49.66609" lon="4.8339">
        <ele>151.1</ele>
        <time>2025-06-20T09:02:30Z</time>
      </trkpt>
      <trkpt lat="49.66631" lon="4.83401">
        <ele>151</ele>
        <time>2025-06-20T09:02:34Z</time>
      </trkpt>
      <trkpt lat="49.66653" lon="4.83411">
        <ele>151.7</ele>
        <time>2025-06-20T09:02:38Z</time>
      </trkpt>
      <trkpt lat="49.66676" lon="4.83421">
        <ele>151.7</ele>
        <time>2025-06-20T09:02:42Z</time>
      </trkpt>
      <trkpt lat="49.66698" lon="4.83432">
        <ele>151.5</ele>
        <time>2025-06-20T09:02:46Z</time>
      </trkpt>
      <trkpt lat="49.66719" lon="4.83442">
        <ele>151.8</ele>
        <time>2025-06-20T09:02:50Z</time>
      </trkpt>
      <trkpt lat="49.6674" lon="4.83452">
        <ele>151.1</ele>
        <time>2025-06-20T09:02:54Z</time>
      </trkpt>
      <trkpt lat="49.66762" lon="4.83462">
        <ele>151.1</ele>
        <time>2025-06-20T09:02:58Z</time>
      </trkpt>
      <trkpt lat="49.66784" lon="4.83473">
        <ele>151.5</ele>
        <time>2025-06-20T09:03:02Z</time>
      </trkpt>
      <trkpt lat="49.66806" lon="4.83483">
        <ele>150.8</ele>
        <time>2025-06-20T09:03:06Z</time>
      </trkpt>
      <trkpt lat="49.66828" lon="4.83493">
        <ele>151.5</ele>
        <time>2025-06-20T09:03:10Z</time>
      </trkpt>
      <trkpt lat="49.66849" lon="4.83504">
        <ele>151</ele>
        <time>2025-06-20T09:03:14Z</time>
      </trkpt>
      <trkpt lat="49.6687" lon="4.83514">
        <ele>151</ele>
        <time>2025-06-20T09:03:18Z</time>
      </trkpt>
      <trkpt lat="49.66891" lon="4.83525">
        <ele>151.8</ele>
        <time>2025-06-20T09:03:22Z</time>
      </trkpt>
      <trkpt lat="49.66914" lon="4.83535">
        <ele>152</ele>
        <time>2025-06-20T09:03:26Z</time>
      </trkpt>
      <trkpt lat="49.66936" lon="4.83543">
        <ele>151.4</ele>
        <time>2025-06-20T09:03:30Z</time>
      </trkpt>
      <trkpt lat="49.66959" lon="4.83552">
        <ele>151.4</ele>
        <time>2025-06-20T09:03:34Z</time>
      </trkpt>
      <trkpt lat="49.66981" lon="4.83563">
        <ele>151</ele>
        <time>2025-06-20T09:03:38Z</time>
      </trkpt>
      <trkpt lat="49.67002" lon="4.83573">
        <ele>151.2</ele>
        <time>2025-06-20T09:03:42Z</time>
      </trkpt>
      <trkpt lat="49.67024" lon="4.83582">
        <ele>151.1</ele>
        <time>2025-06-20T09:03:46Z</time>
      </trkpt>
      <trkpt lat="49.67046" lon="4.83592">
        <ele>151.3</ele>
        <time>2025-06-20T09:03:50Z</time>
      </trkpt>
      <trkpt lat="49.67067" lon="4.83602">
        <ele>151.7</ele>
        <time>2025-06-20T09:03:54Z</time>
      </trkpt>
      <trkpt lat="49.67088" lon="4.83612">
        <ele>151.8</ele>
        <time>2025-06-20T09:03:58Z</time>
      </trkpt>
      <trkpt lat="49.67108" lon="4.83622">
        <ele>151.5</ele>
        <time>2025-06-20T09:04:02Z</time>
      </trkpt>
      <trkpt lat="49.67129" lon="4.83632">
        <ele>151.8</ele>
        <time>2025-06-20T09:04:06Z</time>
      </trkpt>
      <trkpt lat="49.67149" lon="4.83641">
        <ele>152</ele>
        <time>2025-06-20T09:04:10Z</time>
      </trkpt>
      <trkpt lat="49.67169" lon="4.83653">
        <ele>152.2</ele>
        <time>2025-06-20T09:04:14Z</time>
      </trkpt>
      <trkpt lat="49.67189" lon="4.83664">
        <ele>153</ele>
        <time>2025-06-20T09:04:18Z</time>
      </trkpt>
      <trkpt lat="49.6721" lon="4.8367">
        <ele>152.9</ele>
        <time>2025-06-20T09:04:22Z</time>
      </trkpt>
      <trkpt lat="49.67231" lon="4.83674">
        <ele>152.3</ele>
        <time>2025-06-20T09:04:26Z</time>
      </trkpt>
      <trkpt lat="49.67252" lon="4.83679">
        <ele>151.4</ele>
        <time>2025-06-20T09:04:30Z</time>
      </trkpt>
      <trkpt lat="49.67274" lon="4.83685">
        <ele>151.7</ele>
        <time>2025-06-20T09:04:34Z</time>
      </trkpt>
      <trkpt lat="49.67296" lon="4.83689">
        <ele>151.8</ele>
        <time>2025-06-20T09:04:38Z</time>
      </trkpt>
      <trkpt lat="49.67318" lon="4.83693">
        <ele>151.9</ele>
        <time>2025-06-20T09:04:42Z</time>
      </trkpt>
      <trkpt lat="49.67341" lon="4.83695">
        <ele>152</ele>
        <time>2025-06-20T09:04:46Z</time>
      </trkpt>
      <trkpt lat="49.67364" lon="4.83697">
        <ele>152</ele>
        <time>2025-06-20T09:04:50Z</time>
      </trkpt>
      <trkpt lat="49.67387" lon="4.83695">
        <ele>152</ele>
        <time>2025-06-20T09:04:54Z</time>
      </trkpt>
      <trkpt lat="49.6741" lon="4.83693">
        <ele>152</ele>
        <time>2025-06-20T09:04:58Z</time>
      </trkpt>
      <trkpt lat="49.67433" lon="4.8369">
        <ele>152</ele>
        <time>2025-06-20T09:05:02Z</time>
      </trkpt>
      <trkpt lat="49.67455" lon="4.83685">
        <ele>152</ele>
        <time>2025-06-20T09:05:06Z</time>
      </trkpt>
      <trkpt lat="49.67479" lon="4.83679">
        <ele>152</ele>
        <time>2025-06-20T09:05:10Z</time>
      </trkpt>
      <trkpt lat="49.67502" lon="4.8367">
        <ele>152</ele>
        <time>2025-06-20T09:05:14Z</time>
      </trkpt>
      <trkpt lat="49.67524" lon="4.83661">
        <ele>152</ele>
        <time>2025-06-20T09:05:18Z</time>
      </trkpt>
      <trkpt lat="49.67547" lon="4.83651">
        <ele>152</ele>
        <time>2025-06-20T09:05:22Z</time>
      </trkpt>
      <trkpt lat="49.67568" lon="4.83642">
        <ele>152</ele>
        <time>2025-06-20T09:05:26Z</time>
      </trkpt>
      <trkpt lat="49.6759" lon="4.83634">
        <ele>152</ele>
        <time>2025-06-20T09:05:30Z</time>
      </trkpt>
      <trkpt lat="49.67611" lon="4.83624">
        <ele>152.5</ele>
        <time>2025-06-20T09:05:34Z</time>
      </trkpt>
      <trkpt lat="49.67635" lon="4.83615">
        <ele>152.1</ele>
        <time>2025-06-20T09:05:38Z</time>
      </trkpt>
      <trkpt lat="49.67657" lon="4.83606">
        <ele>152.3</ele>
        <time>2025-06-20T09:05:42Z</time>
      </trkpt>
      <trkpt lat="49.67678" lon="4.83597">
        <ele>152.8</ele>
        <time>2025-06-20T09:05:46Z</time>
      </trkpt>
      <trkpt lat="49.67699" lon="4.83588">
        <ele>152.8</ele>
        <time>2025-06-20T09:05:50Z</time>
      </trkpt>
      <trkpt lat="49.6772" lon="4.83583">
        <ele>153</ele>
        <time>2025-06-20T09:05:54Z</time>
      </trkpt>
      <trkpt lat="49.67745" lon="4.83578">
        <ele>152.5</ele>
        <time>2025-06-20T09:05:58Z</time>
      </trkpt>
      <trkpt lat="49.67768" lon="4.83574">
        <ele>152.7</ele>
        <time>2025-06-20T09:06:02Z</time>
      </trkpt>
      <trkpt lat="49.67786" lon="4.83571">
        <ele>153</ele>
        <time>2025-06-20T09:06:06Z</time>
      </trkpt>
      <trkpt lat="49.67806" lon="4.83568">
        <ele>153.6</ele>
        <time>2025-06-20T09:06:10Z</time>
      </trkpt>
      <trkpt lat="49.67826" lon="4.83566">
        <ele>153</ele>
        <time>2025-06-20T09:06:14Z</time>
      </trkpt>
      <trkpt lat="49.67855" lon="4.83566">
        <ele>152.1</ele>
        <time>2025-06-20T09:06:18Z</time>
      </trkpt>
      <trkpt lat="49.67881" lon="4.83567">
        <ele>152</ele>
        <time>2025-06-20T09:06:22Z</time>
      </trkpt>
      <trkpt lat="49.67906" lon="4.8357">
        <ele>152</ele>
        <time>2025-06-20T09:06:26Z</time>
      </trkpt>
      <trkpt lat="49.67931" lon="4.83574">
        <ele>152</ele>
        <time>2025-06-20T09:06:30Z</time>
      </trkpt>
      <trkpt lat="49.67955" lon="4.83578">
        <ele>151.9</ele>
        <time>2025-06-20T09:06:34Z</time>
      </trkpt>
      <trkpt lat="49.67978" lon="4.83584">
        <ele>151.8</ele>
        <time>2025-06-20T09:06:38Z</time>
      </trkpt>
      <trkpt lat="49.68001" lon="4.83591">
        <ele>151.3</ele>
        <time>2025-06-20T09:06:42Z</time>
      </trkpt>
      <trkpt lat="49.68023" lon="4.83598">
        <ele>151.5</ele>
        <time>2025-06-20T09:06:46Z</time>
      </trkpt>
      <trkpt lat="49.68046" lon="4.83609">
        <ele>152.1</ele>
        <time>2025-06-20T09:06:50Z</time>
      </trkpt>
      <trkpt lat="49.68068" lon="4.8362">
        <ele>152</ele>
        <time>2025-06-20T09:06:54Z</time>
      </trkpt>
      <trkpt lat="49.6809" lon="4.83631">
        <ele>152</ele>
        <time>2025-06-20T09:06:58Z</time>
      </trkpt>
      <trkpt lat="49.68111" lon="4.83644">
        <ele>152</ele>
        <time>2025-06-20T09:07:02Z</time>
      </trkpt>
      <trkpt lat="49.68132" lon="4.8366">
        <ele>152.2</ele>
        <time>2025-06-20T09:07:06Z</time>
      </trkpt>
      <trkpt lat="49.68152" lon="4.83675">
        <ele>152.3</ele>
        <time>2025-06-20T09:07:10Z</time>
      </trkpt>
      <trkpt lat="49.68171" lon="4.83691">
        <ele>152.3</ele>
        <time>2025-06-20T09:07:14Z</time>
      </trkpt>
      <trkpt lat="49.68191" lon="4.83709">
        <ele>152.4</ele>
        <time>2025-06-20T09:07:18Z</time>
      </trkpt>
      <trkpt lat="49.68209" lon="4.83729">
        <ele>152.8</ele>
        <time>2025-06-20T09:07:22Z</time>
      </trkpt>
      <trkpt lat="49.68227" lon="4.83748">
        <ele>152.5</ele>
        <time>2025-06-20T09:07:26Z</time>
      </trkpt>
      <trkpt lat="49.68246" lon="4.83768">
        <ele>152.6</ele>
        <time>2025-06-20T09:07:30Z</time>
      </trkpt>
      <trkpt lat="49.68265" lon="4.8379">
        <ele>152.6</ele>
        <time>2025-06-20T09:07:34Z</time>
      </trkpt>
      <trkpt lat="49.68284" lon="4.83811">
        <ele>152.7</ele>
        <time>2025-06-20T09:07:38Z</time>
      </trkpt>
      <trkpt lat="49.68303" lon="4.83831">
        <ele>152.3</ele>
        <time>2025-06-20T09:07:42Z</time>
      </trkpt>
      <trkpt lat="49.68322" lon="4.83851">
        <ele>152.4</ele>
        <time>2025-06-20T09:07:46Z</time>
      </trkpt>
      <trkpt lat="49.68341" lon="4.83871">
        <ele>152.4</ele>
        <time>2025-06-20T09:07:50Z</time>
      </trkpt>
      <trkpt lat="49.68361" lon="4.8389">
        <ele>152</ele>
        <time>2025-06-20T09:07:54Z</time>
      </trkpt>
      <trkpt lat="49.68382" lon="4.83906">
        <ele>152.3</ele>
        <time>2025-06-20T09:07:58Z</time>
      </trkpt>
      <trkpt lat="49.68401" lon="4.83922">
        <ele>151.3</ele>
        <time>2025-06-20T09:08:02Z</time>
      </trkpt>
      <trkpt lat="49.68422" lon="4.83937">
        <ele>151.6</ele>
        <time>2025-06-20T09:08:06Z</time>
      </trkpt>
      <trkpt lat="49.68443" lon="4.83948">
        <ele>152</ele>
        <time>2025-06-20T09:08:10Z</time>
      </trkpt>
      <trkpt lat="49.68464" lon="4.83958">
        <ele>151.3</ele>
        <time>2025-06-20T09:08:14Z</time>
      </trkpt>
      <trkpt lat="49.68485" lon="4.83967">
        <ele>151.6</ele>
        <time>2025-06-20T09:08:18Z</time>
      </trkpt>
      <trkpt lat="49.68506" lon="4.83974">
        <ele>152</ele>
        <time>2025-06-20T09:08:22Z</time>
      </trkpt>
      <trkpt lat="49.68528" lon="4.8398">
        <ele>152</ele>
        <time>2025-06-20T09:08:26Z</time>
      </trkpt>
      <trkpt lat="49.68549" lon="4.83984">
        <ele>151.1</ele>
        <time>2025-06-20T09:08:30Z</time>
      </trkpt>
      <trkpt lat="49.68572" lon="4.83987">
        <ele>151.1</ele>
        <time>2025-06-20T09:08:34Z</time>
      </trkpt>
      <trkpt lat="49.68594" lon="4.8399">
        <ele>151.3</ele>
        <time>2025-06-20T09:08:38Z</time>
      </trkpt>
      <trkpt lat="49.68616" lon="4.83992">
        <ele>151.5</ele>
        <time>2025-06-20T09:08:42Z</time>
      </trkpt>
      <trkpt lat="49.68637" lon="4.83989">
        <ele>151.6</ele>
        <time>2025-06-20T09:08:46Z</time>
      </trkpt>
      <trkpt lat="49.68659" lon="4.83988">
        <ele>151.6</ele>
        <time>2025-06-20T09:08:50Z</time>
      </trkpt>
      <trkpt lat="49.68683" lon="4.83986">
        <ele>151.8</ele>
        <time>2025-06-20T09:08:54Z</time>
      </trkpt>
      <trkpt lat="49.68707" lon="4.83983">
        <ele>152.3</ele>
        <time>2025-06-20T09:08:58Z</time>
      </trkpt>
      <trkpt lat="49.68729" lon="4.83978">
        <ele>152.8</ele>
        <time>2025-06-20T09:09:02Z</time>
      </trkpt>
      <trkpt lat="49.68752" lon="4.83975">
        <ele>152.9</ele>
        <time>2025-06-20T09:09:06Z</time>
      </trkpt>
      <trkpt lat="49.68775" lon="4.83972">
        <ele>153</ele>
        <time>2025-06-20T09:09:10Z</time>
      </trkpt>
      <trkpt lat="49.68799" lon="4.83971">
        <ele>153</ele>
        <time>2025-06-20T09:09:14Z</time>
      </trkpt>
      <trkpt lat="49.68823" lon="4.83967">
        <ele>152.8</ele>
        <time>2025-06-20T09:09:18Z</time>
      </trkpt>
      <trkpt lat="49.68847" lon="4.83964">
        <ele>152.9</ele>
        <time>2025-06-20T09:09:22Z</time>
      </trkpt>
      <trkpt lat="49.6887" lon="4.83961">
        <ele>153.2</ele>
        <time>2025-06-20T09:09:26Z</time>
      </trkpt>
      <trkpt lat="49.68892" lon="4.83958">
        <ele>153.5</ele>
        <time>2025-06-20T09:09:30Z</time>
      </trkpt>
      <trkpt lat="49.68916" lon="4.83956">
        <ele>153.2</ele>
        <time>2025-06-20T09:09:34Z</time>
      </trkpt>
      <trkpt lat="49.68939" lon="4.83953">
        <ele>152.8</ele>
        <time>2025-06-20T09:09:38Z</time>
      </trkpt>
      <trkpt lat="49.68961" lon="4.83949">
        <ele>152.3</ele>
        <time>2025-06-20T09:09:42Z</time>
      </trkpt>
      <trkpt lat="49.68982" lon="4.83946">
        <ele>152</ele>
        <time>2025-06-20T09:09:46Z</time>
      </trkpt>
      <trkpt lat="49.69004" lon="4.83945">
        <ele>152</ele>
        <time>2025-06-20T09:09:50Z</time>
      </trkpt>
      <trkpt lat="49.6902" lon="4.8394">
        <ele>152.1</ele>
        <time>2025-06-20T09:09:54Z</time>
      </trkpt>
      <trkpt lat="49.69027" lon="4.83936">
        <ele>152.3</ele>
        <time>2025-06-20T09:09:58Z</time>
      </trkpt>
      <trkpt lat="49.69029" lon="4.83936">
        <ele>152.2</ele>
        <time>2025-06-20T09:10:02Z</time>
      </trkpt>
      <trkpt lat="49.69037" lon="4.83932">
        <ele>151.6</ele>
        <time>2025-06-20T09:10:06Z</time>
      </trkpt>
      <trkpt lat="49.69048" lon="4.83919">
        <ele>151.4</ele>
        <time>2025-06-20T09:10:10Z</time>
      </trkpt>
      <trkpt lat="49.69068" lon="4.83916">
        <ele>150.6</ele>
        <time>2025-06-20T09:10:14Z</time>
      </trkpt>
      <trkpt lat="49.69093" lon="4.83915">
        <ele>150</ele>
        <time>2025-06-20T09:10:18Z</time>
      </trkpt>
      <trkpt lat="49.69119" lon="4.83912">
        <ele>149.8</ele>
        <time>2025-06-20T09:10:22Z</time>
      </trkpt>
      <trkpt lat="49.69141" lon="4.83899">
        <ele>149.6</ele>
        <time>2025-06-20T09:10:26Z</time>
      </trkpt>
      <trkpt lat="49.69156" lon="4.83876">
        <ele>149.2</ele>
        <time>2025-06-20T09:10:30Z</time>
      </trkpt>
      <trkpt lat="49.69165" lon="4.83846">
        <ele>149.5</ele>
        <time>2025-06-20T09:10:34Z</time>
      </trkpt>
      <trkpt lat="49.69172" lon="4.83815">
        <ele>150.1</ele>
        <time>2025-06-20T09:10:38Z</time>
      </trkpt>
      <trkpt lat="49.69178" lon="4.83783">
        <ele>148.7</ele>
        <time>2025-06-20T09:10:42Z</time>
      </trkpt>
      <trkpt lat="49.69186" lon="4.83751">
        <ele>148.4</ele>
        <time>2025-06-20T09:10:46Z</time>
      </trkpt>
      <trkpt lat="49.69193" lon="4.83718">
        <ele>149.8</ele>
        <time>2025-06-20T09:10:50Z</time>
      </trkpt>
      <trkpt lat="49.692" lon="4.83684">
        <ele>149.8</ele>
        <time>2025-06-20T09:10:54Z</time>
      </trkpt>
      <trkpt lat="49.69207" lon="4.8365">
        <ele>148.9</ele>
        <time>2025-06-20T09:10:58Z</time>
      </trkpt>
      <trkpt lat="49.69214" lon="4.83617">
        <ele>149</ele>
        <time>2025-06-20T09:11:02Z</time>
      </trkpt>
      <trkpt lat="49.6922" lon="4.83584">
        <ele>149.8</ele>
        <time>2025-06-20T09:11:06Z</time>
      </trkpt>
      <trkpt lat="49.69226" lon="4.83552">
        <ele>150</ele>
        <time>2025-06-20T09:11:10Z</time>
      </trkpt>
      <trkpt lat="49.69233" lon="4.83519">
        <ele>149.1</ele>
        <time>2025-06-20T09:11:14Z</time>
      </trkpt>
      <trkpt lat="49.6924" lon="4.83486">
        <ele>148.8</ele>
        <time>2025-06-20T09:11:18Z</time>
      </trkpt>
      <trkpt lat="49.69247" lon="4.83451">
        <ele>149.7</ele>
        <time>2025-06-20T09:11:22Z</time>
      </trkpt>
      <trkpt lat="49.69254" lon="4.83418">
        <ele>149.2</ele>
        <time>2025-06-20T09:11:26Z</time>
      </trkpt>
      <trkpt lat="49.69261" lon="4.83384">
        <ele>149.3</ele>
        <time>2025-06-20T09:11:30Z</time>
      </trkpt>
      <trkpt lat="49.69268" lon="4.83349">
        <ele>149.1</ele>
        <time>2025-06-20T09:11:34Z</time>
      </trkpt>
      <trkpt lat="49.69275" lon="4.83314">
        <ele>149.7</ele>
        <time>2025-06-20T09:11:38Z</time>
      </trkpt>
      <trkpt lat="49.69282" lon="4.8328">
        <ele>149.2</ele>
        <time>2025-06-20T09:11:42Z</time>
      </trkpt>
      <trkpt lat="49.69289" lon="4.83247">
        <ele>148.7</ele>
        <time>2025-06-20T09:11:46Z</time>
      </trkpt>
      <trkpt lat="49.69295" lon="4.83216">
        <ele>148.9</ele>
        <time>2025-06-20T09:11:50Z</time>
      </trkpt>
      <trkpt lat="49.69301" lon="4.83186">
        <ele>149.5</ele>
        <time>2025-06-20T09:11:54Z</time>
      </trkpt>
      <trkpt lat="49.69308" lon="4.83153">
        <ele>149.6</ele>
        <time>2025-06-20T09:11:58Z</time>
      </trkpt>
      <trkpt lat="49.69313" lon="4.83122">
        <ele>148.8</ele>
        <time>2025-06-20T09:12:02Z</time>
      </trkpt>
      <trkpt lat="49.69319" lon="4.8309">
        <ele>148.6</ele>
        <time>2025-06-20T09:12:06Z</time>
      </trkpt>
      <trkpt lat="49.69327" lon="4.83058">
        <ele>149.5</ele>
        <time>2025-06-20T09:12:10Z</time>
      </trkpt>
      <trkpt lat="49.69333" lon="4.83026">
        <ele>150.9</ele>
        <time>2025-06-20T09:12:14Z</time>
      </trkpt>
      <trkpt lat="49.6934" lon="4.82994">
        <ele>149.4</ele>
        <time>2025-06-20T09:12:18Z</time>
      </trkpt>
      <trkpt lat="49.69346" lon="4.8296">
        <ele>148.7</ele>
        <time>2025-06-20T09:12:22Z</time>
      </trkpt>
      <trkpt lat="49.6935" lon="4.82933">
        <ele>149.4</ele>
        <time>2025-06-20T09:12:26Z</time>
      </trkpt>
      <trkpt lat="49.69353" lon="4.82921">
        <ele>149.8</ele>
        <time>2025-06-20T09:12:30Z</time>
      </trkpt>
      <trkpt lat="49.69354" lon="4.8291">
        <ele>149.9</ele>
        <time>2025-06-20T09:12:34Z</time>
      </trkpt>
      <trkpt lat="49.69359" lon="4.82888">
        <ele>149.9</ele>
        <time>2025-06-20T09:12:38Z</time>
      </trkpt>
      <trkpt lat="49.69358" lon="4.82855">
        <ele>148.7</ele>
        <time>2025-06-20T09:12:42Z</time>
      </trkpt>
      <trkpt lat="49.69355" lon="4.82815">
        <ele>147</ele>
        <time>2025-06-20T09:12:46Z</time>
      </trkpt>
      <trkpt lat="49.69351" lon="4.82774">
        <ele>146.8</ele>
        <time>2025-06-20T09:12:50Z</time>
      </trkpt>
      <trkpt lat="49.69348" lon="4.82733">
        <ele>146.9</ele>
        <time>2025-06-20T09:12:54Z</time>
      </trkpt>
      <trkpt lat="49.69345" lon="4.82695">
        <ele>147.1</ele>
        <time>2025-06-20T09:12:58Z</time>
      </trkpt>
      <trkpt lat="49.69342" lon="4.82661">
        <ele>147.4</ele>
        <time>2025-06-20T09:13:02Z</time>
      </trkpt>
      <trkpt lat="49.69338" lon="4.82626">
        <ele>147.7</ele>
        <time>2025-06-20T09:13:06Z</time>
      </trkpt>
      <trkpt lat="49.69336" lon="4.8259">
        <ele>147.1</ele>
        <time>2025-06-20T09:13:10Z</time>
      </trkpt>
      <trkpt lat="49.69332" lon="4.82553">
        <ele>147</ele>
        <time>2025-06-20T09:13:14Z</time>
      </trkpt>
      <trkpt lat="49.69329" lon="4.82516">
        <ele>147.2</ele>
        <time>2025-06-20T09:13:18Z</time>
      </trkpt>
      <trkpt lat="49.69326" lon="4.82479">
        <ele>147.3</ele>
        <time>2025-06-20T09:13:22Z</time>
      </trkpt>
      <trkpt lat="49.69323" lon="4.82442">
        <ele>146.7</ele>
        <time>2025-06-20T09:13:26Z</time>
      </trkpt>
      <trkpt lat="49.6932" lon="4.82405">
        <ele>147</ele>
        <time>2025-06-20T09:13:30Z</time>
      </trkpt>
      <trkpt lat="49.69318" lon="4.82367">
        <ele>147.1</ele>
        <time>2025-06-20T09:13:34Z</time>
      </trkpt>
      <trkpt lat="49.69316" lon="4.82331">
        <ele>147.2</ele>
        <time>2025-06-20T09:13:38Z</time>
      </trkpt>
      <trkpt lat="49.69316" lon="4.82294">
        <ele>147.2</ele>
        <time>2025-06-20T09:13:42Z</time>
      </trkpt>
      <trkpt lat="49.69316" lon="4.82257">
        <ele>147.2</ele>
        <time>2025-06-20T09:13:46Z</time>
      </trkpt>
      <trkpt lat="49.69316" lon="4.82219">
        <ele>147.2</ele>
        <time>2025-06-20T09:13:50Z</time>
      </trkpt>
      <trkpt lat="49.69317" lon="4.82181">
        <ele>147.2</ele>
        <time>2025-06-20T09:13:54Z</time>
      </trkpt>
      <trkpt lat="49.69316" lon="4.82144">
        <ele>147.2</ele>
        <time>2025-06-20T09:13:58Z</time>
      </trkpt>
      <trkpt lat="49.69318" lon="4.82107">
        <ele>147.1</ele>
        <time>2025-06-20T09:14:02Z</time>
      </trkpt>
      <trkpt lat="49.69319" lon="4.82071">
        <ele>147</ele>
        <time>2025-06-20T09:14:06Z</time>
      </trkpt>
      <trkpt lat="49.69321" lon="4.82035">
        <ele>146.6</ele>
        <time>2025-06-20T09:14:10Z</time>
      </trkpt>
      <trkpt lat="49.69322" lon="4.82">
        <ele>146.4</ele>
        <time>2025-06-20T09:14:14Z</time>
      </trkpt>
      <trkpt lat="49.69325" lon="4.81965">
        <ele>146.3</ele>
        <time>2025-06-20T09:14:18Z</time>
      </trkpt>
      <trkpt lat="49.69327" lon="4.8193">
        <ele>146.6</ele>
        <time>2025-06-20T09:14:22Z</time>
      </trkpt>
      <trkpt lat="49.69329" lon="4.81894">
        <ele>147.7</ele>
        <time>2025-06-20T09:14:26Z</time>
      </trkpt>
      <trkpt lat="49.69332" lon="4.81857">
        <ele>148.8</ele>
        <time>2025-06-20T09:14:30Z</time>
      </trkpt>
      <trkpt lat="49.69337" lon="4.81819">
        <ele>147.7</ele>
        <time>2025-06-20T09:14:34Z</time>
      </trkpt>
      <trkpt lat="49.69342" lon="4.81782">
        <ele>146.8</ele>
        <time>2025-06-20T09:14:38Z</time>
      </trkpt>
      <trkpt lat="49.69347" lon="4.81745">
        <ele>146.5</ele>
        <time>2025-06-20T09:14:42Z</time>
      </trkpt>
      <trkpt lat="49.69351" lon="4.81706">
        <ele>146.7</ele>
        <time>2025-06-20T09:14:46Z</time>
      </trkpt>
      <trkpt lat="49.69356" lon="4.8167">
        <ele>148.4</ele>
        <time>2025-06-20T09:14:50Z</time>
      </trkpt>
      <trkpt lat="49.69362" lon="4.81637">
        <ele>148.9</ele>
        <time>2025-06-20T09:14:54Z</time>
      </trkpt>
      <trkpt lat="49.69367" lon="4.81604">
        <ele>148.2</ele>
        <time>2025-06-20T09:14:58Z</time>
      </trkpt>
      <trkpt lat="49.69373" lon="4.81569">
        <ele>147.1</ele>
        <time>2025-06-20T09:15:02Z</time>
      </trkpt>
      <trkpt lat="49.69378" lon="4.81533">
        <ele>147.3</ele>
        <time>2025-06-20T09:15:06Z</time>
      </trkpt>
      <trkpt lat="49.69385" lon="4.81498">
        <ele>147.3</ele>
        <time>2025-06-20T09:15:10Z</time>
      </trkpt>
      <trkpt lat="49.69393" lon="4.81464">
        <ele>148.3</ele>
        <time>2025-06-20T09:15:14Z</time>
      </trkpt>
      <trkpt lat="49.69404" lon="4.8143">
        <ele>147.2</ele>
        <time>2025-06-20T09:15:18Z</time>
      </trkpt>
      <trkpt lat="49.69415" lon="4.81399">
        <ele>148.2</ele>
        <time>2025-06-20T09:15:22Z</time>
      </trkpt>
      <trkpt lat="49.69428" lon="4.81371">
        <ele>147.3</ele>
        <time>2025-06-20T09:15:26Z</time>
      </trkpt>
      <trkpt lat="49.69442" lon="4.81343">
        <ele>148.1</ele>
        <time>2025-06-20T09:15:30Z</time>
      </trkpt>
      <trkpt lat="49.69457" lon="4.81314">
        <ele>147.2</ele>
        <time>2025-06-20T09:15:34Z</time>
      </trkpt>
      <trkpt lat="49.69473" lon="4.81285">
        <ele>148.4</ele>
        <time>2025-06-20T09:15:38Z</time>
      </trkpt>
      <trkpt lat="49.69486" lon="4.81255">
        <ele>147.5</ele>
        <time>2025-06-20T09:15:42Z</time>
      </trkpt>
      <trkpt lat="49.69498" lon="4.81225">
        <ele>147.9</ele>
        <time>2025-06-20T09:15:46Z</time>
      </trkpt>
      <trkpt lat="49.69509" lon="4.81192">
        <ele>147.3</ele>
        <time>2025-06-20T09:15:50Z</time>
      </trkpt>
      <trkpt lat="49.69519" lon="4.81157">
        <ele>147.2</ele>
        <time>2025-06-20T09:15:54Z</time>
      </trkpt>
      <trkpt lat="49.69528" lon="4.81121">
        <ele>148</ele>
        <time>2025-06-20T09:15:58Z</time>
      </trkpt>
      <trkpt lat="49.69536" lon="4.81085">
        <ele>147.4</ele>
        <time>2025-06-20T09:16:02Z</time>
      </trkpt>
      <trkpt lat="49.69544" lon="4.81052">
        <ele>146.6</ele>
        <time>2025-06-20T09:16:06Z</time>
      </trkpt>
      <trkpt lat="49.69551" lon="4.81021">
        <ele>148.1</ele>
        <time>2025-06-20T09:16:10Z</time>
      </trkpt>
      <trkpt lat="49.69559" lon="4.80985">
        <ele>148.9</ele>
        <time>2025-06-20T09:16:14Z</time>
      </trkpt>
      <trkpt lat="49.69563" lon="4.80946">
        <ele>147.8</ele>
        <time>2025-06-20T09:16:18Z</time>
      </trkpt>
      <trkpt lat="49.69564" lon="4.80906">
        <ele>147</ele>
        <time>2025-06-20T09:16:22Z</time>
      </trkpt>
      <trkpt lat="49.69566" lon="4.80867">
        <ele>147.2</ele>
        <time>2025-06-20T09:16:26Z</time>
      </trkpt>
      <trkpt lat="49.69567" lon="4.80829">
        <ele>147.1</ele>
        <time>2025-06-20T09:16:30Z</time>
      </trkpt>
      <trkpt lat="49.69567" lon="4.80792">
        <ele>146.6</ele>
        <time>2025-06-20T09:16:34Z</time>
      </trkpt>
      <trkpt lat="49.69566" lon="4.80754">
        <ele>146.6</ele>
        <time>2025-06-20T09:16:38Z</time>
      </trkpt>
      <trkpt lat="49.69564" lon="4.80717">
        <ele>146.4</ele>
        <time>2025-06-20T09:16:42Z</time>
      </trkpt>
      <trkpt lat="49.69559" lon="4.80679">
        <ele>146.8</ele>
        <time>2025-06-20T09:16:46Z</time>
      </trkpt>
      <trkpt lat="49.69554" lon="4.80644">
        <ele>147</ele>
        <time>2025-06-20T09:16:50Z</time>
      </trkpt>
      <trkpt lat="49.69548" lon="4.80609">
        <ele>146.3</ele>
        <time>2025-06-20T09:16:54Z</time>
      </trkpt>
      <trkpt lat="49.69542" lon="4.80574">
        <ele>146.3</ele>
        <time>2025-06-20T09:16:58Z</time>
      </trkpt>
      <trkpt lat="49.69537" lon="4.80537">
        <ele>146.3</ele>
        <time>2025-06-20T09:17:02Z</time>
      </trkpt>
      <trkpt lat="49.69533" lon="4.805">
        <ele>146.8</ele>
        <time>2025-06-20T09:17:06Z</time>
      </trkpt>
      <trkpt lat="49.69527" lon="4.80463">
        <ele>146</ele>
        <time>2025-06-20T09:17:10Z</time>
      </trkpt>
      <trkpt lat="49.69519" lon="4.80428">
        <ele>145.9</ele>
        <time>2025-06-20T09:17:14Z</time>
      </trkpt>
      <trkpt lat="49.69512" lon="4.80393">
        <ele>146.1</ele>
        <time>2025-06-20T09:17:18Z</time>
      </trkpt>
      <trkpt lat="49.69507" lon="4.80357">
        <ele>146.5</ele>
        <time>2025-06-20T09:17:22Z</time>
      </trkpt>
      <trkpt lat="49.69503" lon="4.80321">
        <ele>146.9</ele>
        <time>2025-06-20T09:17:26Z</time>
      </trkpt>
      <trkpt lat="49.69499" lon="4.80283">
        <ele>147</ele>
        <time>2025-06-20T09:17:30Z</time>
      </trkpt>
      <trkpt lat="49.69498" lon="4.80245">
        <ele>147</ele>
        <time>2025-06-20T09:17:34Z</time>
      </trkpt>
      <trkpt lat="49.69498" lon="4.80208">
        <ele>147</ele>
        <time>2025-06-20T09:17:38Z</time>
      </trkpt>
      <trkpt lat="49.69497" lon="4.80171">
        <ele>147</ele>
        <time>2025-06-20T09:17:42Z</time>
      </trkpt>
      <trkpt lat="49.69495" lon="4.80134">
        <ele>146.2</ele>
        <time>2025-06-20T09:17:46Z</time>
      </trkpt>
      <trkpt lat="49.69493" lon="4.80096">
        <ele>146.3</ele>
        <time>2025-06-20T09:17:50Z</time>
      </trkpt>
      <trkpt lat="49.69493" lon="4.80057">
        <ele>146.3</ele>
        <time>2025-06-20T09:17:54Z</time>
      </trkpt>
      <trkpt lat="49.69494" lon="4.80018">
        <ele>146.2</ele>
        <time>2025-06-20T09:17:58Z</time>
      </trkpt>
      <trkpt lat="49.69497" lon="4.7998">
        <ele>146.1</ele>
        <time>2025-06-20T09:18:02Z</time>
      </trkpt>
      <trkpt lat="49.69501" lon="4.79942">
        <ele>147</ele>
        <time>2025-06-20T09:18:06Z</time>
      </trkpt>
      <trkpt lat="49.69503" lon="4.79903">
        <ele>146.9</ele>
        <time>2025-06-20T09:18:10Z</time>
      </trkpt>
      <trkpt lat="49.69504" lon="4.79865">
        <ele>146.9</ele>
        <time>2025-06-20T09:18:14Z</time>
      </trkpt>
      <trkpt lat="49.69505" lon="4.79829">
        <ele>146.8</ele>
        <time>2025-06-20T09:18:18Z</time>
      </trkpt>
      <trkpt lat="49.69505" lon="4.79792">
        <ele>146.8</ele>
        <time>2025-06-20T09:18:22Z</time>
      </trkpt>
      <trkpt lat="49.69505" lon="4.79753">
        <ele>146.8</ele>
        <time>2025-06-20T09:18:26Z</time>
      </trkpt>
      <trkpt lat="49.69507" lon="4.79714">
        <ele>146.7</ele>
        <time>2025-06-20T09:18:30Z</time>
      </trkpt>
      <trkpt lat="49.69509" lon="4.79674">
        <ele>146.4</ele>
        <time>2025-06-20T09:18:34Z</time>
      </trkpt>
      <trkpt lat="49.69512" lon="4.79634">
        <ele>146.1</ele>
        <time>2025-06-20T09:18:38Z</time>
      </trkpt>
      <trkpt lat="49.69515" lon="4.79595">
        <ele>146.2</ele>
        <time>2025-06-20T09:18:42Z</time>
      </trkpt>
      <trkpt lat="49.69521" lon="4.79556">
        <ele>146.2</ele>
        <time>2025-06-20T09:18:46Z</time>
      </trkpt>
      <trkpt lat="49.69527" lon="4.79519">
        <ele>147</ele>
        <time>2025-06-20T09:18:50Z</time>
      </trkpt>
      <trkpt lat="49.69531" lon="4.79484">
        <ele>146.9</ele>
        <time>2025-06-20T09:18:54Z</time>
      </trkpt>
      <trkpt lat="49.69535" lon="4.79451">
        <ele>146.7</ele>
        <time>2025-06-20T09:18:58Z</time>
      </trkpt>
      <trkpt lat="49.69539" lon="4.79416">
        <ele>146.6</ele>
        <time>2025-06-20T09:19:02Z</time>
      </trkpt>
      <trkpt lat="49.69542" lon="4.7938">
        <ele>146.5</ele>
        <time>2025-06-20T09:19:06Z</time>
      </trkpt>
      <trkpt lat="49.69545" lon="4.79343">
        <ele>146.4</ele>
        <time>2025-06-20T09:19:10Z</time>
      </trkpt>
      <trkpt lat="49.69549" lon="4.79306">
        <ele>146.2</ele>
        <time>2025-06-20T09:19:14Z</time>
      </trkpt>
      <trkpt lat="49.69553" lon="4.79269">
        <ele>146.1</ele>
        <time>2025-06-20T09:19:18Z</time>
      </trkpt>
      <trkpt lat="49.69556" lon="4.79234">
        <ele>146.6</ele>
        <time>2025-06-20T09:19:22Z</time>
      </trkpt>
      <trkpt lat="49.69559" lon="4.79201">
        <ele>146.9</ele>
        <time>2025-06-20T09:19:26Z</time>
      </trkpt>
      <trkpt lat="49.69549" lon="4.79179">
        <ele>147.6</ele>
        <time>2025-06-20T09:19:30Z</time>
      </trkpt>
      <trkpt lat="49.69538" lon="4.79168">
        <ele>148</ele>
        <time>2025-06-20T09:19:34Z</time>
      </trkpt>
      <trkpt lat="49.69529" lon="4.7916">
        <ele>148.5</ele>
        <time>2025-06-20T09:19:38Z</time>
      </trkpt>
      <trkpt lat="49.69521" lon="4.79151">
        <ele>148.7</ele>
        <time>2025-06-20T09:19:42Z</time>
      </trkpt>
      <trkpt lat="49.69517" lon="4.7914">
        <ele>149.2</ele>
        <time>2025-06-20T09:19:46Z</time>
      </trkpt>
      <trkpt lat="49.69517" lon="4.7914">
        <ele>149.2</ele>
        <time>2025-06-20T09:19:50Z</time>
      </trkpt>
      <trkpt lat="49.69518" lon="4.79133">
        <ele>149</ele>
        <time>2025-06-20T09:19:54Z</time>
      </trkpt>
      <trkpt lat="49.69523" lon="4.79134">
        <ele>149.2</ele>
        <time>2025-06-20T09:19:58Z</time>
      </trkpt>
      <trkpt lat="49.6953" lon="4.79138">
        <ele>149.7</ele>
        <time>2025-06-20T09:20:02Z</time>
      </trkpt>
      <trkpt lat="49.69543" lon="4.79146">
        <ele>148.7</ele>
        <time>2025-06-20T09:20:06Z</time>
      </trkpt>
      <trkpt lat="49.69558" lon="4.79156">
        <ele>147.8</ele>
        <time>2025-06-20T09:20:10Z</time>
      </trkpt>
      <trkpt lat="49.69573" lon="4.79167">
        <ele>146.7</ele>
        <time>2025-06-20T09:20:14Z</time>
      </trkpt>
      <trkpt lat="49.69589" lon="4.79179">
        <ele>146</ele>
        <time>2025-06-20T09:20:18Z</time>
      </trkpt>
      <trkpt lat="49.69606" lon="4.7919">
        <ele>146</ele>
        <time>2025-06-20T09:20:22Z</time>
      </trkpt>
      <trkpt lat="49.69623" lon="4.79204">
        <ele>146.9</ele>
        <time>2025-06-20T09:20:26Z</time>
      </trkpt>
      <trkpt lat="49.69644" lon="4.79215">
        <ele>149.4</ele>
        <time>2025-06-20T09:20:30Z</time>
      </trkpt>
      <trkpt lat="49.69667" lon="4.79216">
        <ele>150.1</ele>
        <time>2025-06-20T09:20:34Z</time>
      </trkpt>
      <trkpt lat="49.69688" lon="4.79206">
        <ele>150.6</ele>
        <time>2025-06-20T09:20:38Z</time>
      </trkpt>
      <trkpt lat="49.69706" lon="4.79199">
        <ele>151.9</ele>
        <time>2025-06-20T09:20:42Z</time>
      </trkpt>
      <trkpt lat="49.69723" lon="4.79195">
        <ele>153</ele>
        <time>2025-06-20T09:20:46Z</time>
      </trkpt>
      <trkpt lat="49.69739" lon="4.79193">
        <ele>154</ele>
        <time>2025-06-20T09:20:50Z</time>
      </trkpt>
      <trkpt lat="49.69754" lon="4.79193">
        <ele>153.8</ele>
        <time>2025-06-20T09:20:54Z</time>
      </trkpt>
      <trkpt lat="49.6977" lon="4.792">
        <ele>149.8</ele>
        <time>2025-06-20T09:20:58Z</time>
      </trkpt>
      <trkpt lat="49.69786" lon="4.79211">
        <ele>149.6</ele>
        <time>2025-06-20T09:21:02Z</time>
      </trkpt>
      <trkpt lat="49.69801" lon="4.79221">
        <ele>153</ele>
        <time>2025-06-20T09:21:06Z</time>
      </trkpt>
      <trkpt lat="49.69821" lon="4.79236">
        <ele>152.5</ele>
        <time>2025-06-20T09:21:10Z</time>
      </trkpt>
      <trkpt lat="49.69849" lon="4.79256">
        <ele>152.8</ele>
        <time>2025-06-20T09:21:14Z</time>
      </trkpt>
      <trkpt lat="49.6988" lon="4.79273">
        <ele>152.1</ele>
        <time>2025-06-20T09:21:18Z</time>
      </trkpt>
      <trkpt lat="49.69903" lon="4.793">
        <ele>151.1</ele>
        <time>2025-06-20T09:21:22Z</time>
      </trkpt>
      <trkpt lat="49.69921" lon="4.79327">
        <ele>150.9</ele>
        <time>2025-06-20T09:21:26Z</time>
      </trkpt>
      <trkpt lat="49.69927" lon="4.79356">
        <ele>150.9</ele>
        <time>2025-06-20T09:21:30Z</time>
      </trkpt>
      <trkpt lat="49.69913" lon="4.79377">
        <ele>150.4</ele>
        <time>2025-06-20T09:21:34Z</time>
      </trkpt>
      <trkpt lat="49.69896" lon="4.79396">
        <ele>150.1</ele>
        <time>2025-06-20T09:21:38Z</time>
      </trkpt>
      <trkpt lat="49.6988" lon="4.79413">
        <ele>150.3</ele>
        <time>2025-06-20T09:21:42Z</time>
      </trkpt>
      <trkpt lat="49.69862" lon="4.79427">
        <ele>151</ele>
        <time>2025-06-20T09:21:46Z</time>
      </trkpt>
      <trkpt lat="49.69847" lon="4.79445">
        <ele>151</ele>
        <time>2025-06-20T09:21:50Z</time>
      </trkpt>
      <trkpt lat="49.69841" lon="4.79472">
        <ele>152</ele>
        <time>2025-06-20T09:21:54Z</time>
      </trkpt>
      <trkpt lat="49.69835" lon="4.79499">
        <ele>152</ele>
        <time>2025-06-20T09:21:58Z</time>
      </trkpt>
      <trkpt lat="49.69822" lon="4.79519">
        <ele>152.4</ele>
        <time>2025-06-20T09:22:02Z</time>
      </trkpt>
      <trkpt lat="49.69811" lon="4.79542">
        <ele>152.3</ele>
        <time>2025-06-20T09:22:06Z</time>
      </trkpt>
      <trkpt lat="49.69803" lon="4.79571">
        <ele>152.9</ele>
        <time>2025-06-20T09:22:10Z</time>
      </trkpt>
      <trkpt lat="49.69796" lon="4.796">
        <ele>153.7</ele>
        <time>2025-06-20T09:22:14Z</time>
      </trkpt>
      <trkpt lat="49.69789" lon="4.7963">
        <ele>153.6</ele>
        <time>2025-06-20T09:22:18Z</time>
      </trkpt>
      <trkpt lat="49.69783" lon="4.79659">
        <ele>153.4</ele>
        <time>2025-06-20T09:22:22Z</time>
      </trkpt>
      <trkpt lat="49.69777" lon="4.79688">
        <ele>153</ele>
        <time>2025-06-20T09:22:26Z</time>
      </trkpt>
      <trkpt lat="49.69771" lon="4.79717">
        <ele>152.6</ele>
        <time>2025-06-20T09:22:30Z</time>
      </trkpt>
      <trkpt lat="49.69766" lon="4.79748">
        <ele>152.9</ele>
        <time>2025-06-20T09:22:34Z</time>
      </trkpt>
      <trkpt lat="49.69761" lon="4.79778">
        <ele>153.4</ele>
        <time>2025-06-20T09:22:38Z</time>
      </trkpt>
      <trkpt lat="49.69757" lon="4.79809">
        <ele>153.3</ele>
        <time>2025-06-20T09:22:42Z</time>
      </trkpt>
      <trkpt lat="49.69753" lon="4.79839">
        <ele>154</ele>
        <time>2025-06-20T09:22:46Z</time>
      </trkpt>
      <trkpt lat="49.69748" lon="4.7987">
        <ele>153.9</ele>
        <time>2025-06-20T09:22:50Z</time>
      </trkpt>
      <trkpt lat="49.69744" lon="4.79901">
        <ele>153.8</ele>
        <time>2025-06-20T09:22:54Z</time>
      </trkpt>
      <trkpt lat="49.6974" lon="4.79933">
        <ele>154</ele>
        <time>2025-06-20T09:22:58Z</time>
      </trkpt>
      <trkpt lat="49.69735" lon="4.79964">
        <ele>153.9</ele>
        <time>2025-06-20T09:23:02Z</time>
      </trkpt>
      <trkpt lat="49.69731" lon="4.79996">
        <ele>153.4</ele>
        <time>2025-06-20T09:23:06Z</time>
      </trkpt>
      <trkpt lat="49.69727" lon="4.80028">
        <ele>153.2</ele>
        <time>2025-06-20T09:23:10Z</time>
      </trkpt>
      <trkpt lat="49.69723" lon="4.80059">
        <ele>153.1</ele>
        <time>2025-06-20T09:23:14Z</time>
      </trkpt>
      <trkpt lat="49.69719" lon="4.80087">
        <ele>152.7</ele>
        <time>2025-06-20T09:23:18Z</time>
      </trkpt>
      <trkpt lat="49.69716" lon="4.80112">
        <ele>152.6</ele>
        <time>2025-06-20T09:23:22Z</time>
      </trkpt>
      <trkpt lat="49.69712" lon="4.80133">
        <ele>152.3</ele>
        <time>2025-06-20T09:23:26Z</time>
      </trkpt>
      <trkpt lat="49.69711" lon="4.80144">
        <ele>152.3</ele>
        <time>2025-06-20T09:23:30Z</time>
      </trkpt>
      <trkpt lat="49.69711" lon="4.80144">
        <ele>152.3</ele>
        <time>2025-06-20T09:23:34Z</time>
      </trkpt>
      <trkpt lat="49.69711" lon="4.80144">
        <ele>152.3</ele>
        <time>2025-06-20T09:23:38Z</time>
      </trkpt>
      <trkpt lat="49.69711" lon="4.80144">
        <ele>152.3</ele>
        <time>2025-06-20T09:23:42Z</time>
      </trkpt>
      <trkpt lat="49.69711" lon="4.80144">
        <ele>152.3</ele>
        <time>2025-06-20T09:23:46Z</time>
      </trkpt>
      <trkpt lat="49.69711" lon="4.80144">
        <ele>152.3</ele>
        <time>2025-06-20T09:23:50Z</time>
      </trkpt>
      <trkpt lat="49.69711" lon="4.80144">
        <ele>152.3</ele>
        <time>2025-06-20T09:23:54Z</time>
      </trkpt>
      <trkpt lat="49.69711" lon="4.80144">
        <ele>152.3</ele>
        <time>2025-06-20T09:23:58Z</time>
      </trkpt>
      <trkpt lat="49.69711" lon="4.80144">
        <ele>152.3</ele>
        <time>2025-06-20T09:24:02Z</time>
      </trkpt>
      <trkpt lat="49.69711" lon="4.80144">
        <ele>152.3</ele>
        <time>2025-06-20T09:24:06Z</time>
      </trkpt>
      <trkpt lat="49.69711" lon="4.80152">
        <ele>152.5</ele>
        <time>2025-06-20T09:24:10Z</time>
      </trkpt>
      <trkpt lat="49.6971" lon="4.80163">
        <ele>152.6</ele>
        <time>2025-06-20T09:24:14Z</time>
      </trkpt>
      <trkpt lat="49.69707" lon="4.80182">
        <ele>152.4</ele>
        <time>2025-06-20T09:24:18Z</time>
      </trkpt>
      <trkpt lat="49.69705" lon="4.80208">
        <ele>152.1</ele>
        <time>2025-06-20T09:24:22Z</time>
      </trkpt>
      <trkpt lat="49.69703" lon="4.80238">
        <ele>152.5</ele>
        <time>2025-06-20T09:24:26Z</time>
      </trkpt>
      <trkpt lat="49.697" lon="4.80267">
        <ele>152.5</ele>
        <time>2025-06-20T09:24:30Z</time>
      </trkpt>
      <trkpt lat="49.69699" lon="4.80298">
        <ele>151.7</ele>
        <time>2025-06-20T09:24:34Z</time>
      </trkpt>
      <trkpt lat="49.69698" lon="4.8033">
        <ele>151.4</ele>
        <time>2025-06-20T09:24:38Z</time>
      </trkpt>
      <trkpt lat="49.69697" lon="4.80364">
        <ele>151.3</ele>
        <time>2025-06-20T09:24:42Z</time>
      </trkpt>
      <trkpt lat="49.69697" lon="4.804">
        <ele>151.1</ele>
        <time>2025-06-20T09:24:46Z</time>
      </trkpt>
      <trkpt lat="49.69696" lon="4.80436">
        <ele>151.1</ele>
        <time>2025-06-20T09:24:50Z</time>
      </trkpt>
      <trkpt lat="49.69696" lon="4.8047">
        <ele>151.1</ele>
        <time>2025-06-20T09:24:54Z</time>
      </trkpt>
      <trkpt lat="49.69696" lon="4.80505">
        <ele>151.1</ele>
        <time>2025-06-20T09:24:58Z</time>
      </trkpt>
      <trkpt lat="49.69696" lon="4.8054">
        <ele>151.1</ele>
        <time>2025-06-20T09:25:02Z</time>
      </trkpt>
      <trkpt lat="49.69696" lon="4.80574">
        <ele>151.1</ele>
        <time>2025-06-20T09:25:06Z</time>
      </trkpt>
      <trkpt lat="49.69696" lon="4.8061">
        <ele>151.1</ele>
        <time>2025-06-20T09:25:10Z</time>
      </trkpt>
      <trkpt lat="49.69696" lon="4.80646">
        <ele>151.1</ele>
        <time>2025-06-20T09:25:14Z</time>
      </trkpt>
      <trkpt lat="49.69696" lon="4.8068">
        <ele>151.1</ele>
        <time>2025-06-20T09:25:18Z</time>
      </trkpt>
      <trkpt lat="49.69696" lon="4.80716">
        <ele>151</ele>
        <time>2025-06-20T09:25:22Z</time>
      </trkpt>
      <trkpt lat="49.69696" lon="4.80751">
        <ele>151</ele>
        <time>2025-06-20T09:25:26Z</time>
      </trkpt>
      <trkpt lat="49.69697" lon="4.80786">
        <ele>150.1</ele>
        <time>2025-06-20T09:25:30Z</time>
      </trkpt>
      <trkpt lat="49.69697" lon="4.80821">
        <ele>150.1</ele>
        <time>2025-06-20T09:25:34Z</time>
      </trkpt>
      <trkpt lat="49.69697" lon="4.80855">
        <ele>150.9</ele>
        <time>2025-06-20T09:25:38Z</time>
      </trkpt>
      <trkpt lat="49.69698" lon="4.80887">
        <ele>151.1</ele>
        <time>2025-06-20T09:25:42Z</time>
      </trkpt>
      <trkpt lat="49.697" lon="4.8092">
        <ele>151.4</ele>
        <time>2025-06-20T09:25:46Z</time>
      </trkpt>
      <trkpt lat="49.69701" lon="4.80952">
        <ele>151.5</ele>
        <time>2025-06-20T09:25:50Z</time>
      </trkpt>
      <trkpt lat="49.69703" lon="4.80983">
        <ele>151.6</ele>
        <time>2025-06-20T09:25:54Z</time>
      </trkpt>
      <trkpt lat="49.69705" lon="4.81014">
        <ele>152.5</ele>
        <time>2025-06-20T09:25:58Z</time>
      </trkpt>
      <trkpt lat="49.69707" lon="4.81046">
        <ele>152.8</ele>
        <time>2025-06-20T09:26:02Z</time>
      </trkpt>
      <trkpt lat="49.69709" lon="4.81077">
        <ele>153.1</ele>
        <time>2025-06-20T09:26:06Z</time>
      </trkpt>
      <trkpt lat="49.69711" lon="4.81109">
        <ele>153.4</ele>
        <time>2025-06-20T09:26:10Z</time>
      </trkpt>
      <trkpt lat="49.69713" lon="4.81141">
        <ele>153</ele>
        <time>2025-06-20T09:26:14Z</time>
      </trkpt>
      <trkpt lat="49.69715" lon="4.81173">
        <ele>153.1</ele>
        <time>2025-06-20T09:26:18Z</time>
      </trkpt>
      <trkpt lat="49.69717" lon="4.81205">
        <ele>152.6</ele>
        <time>2025-06-20T09:26:22Z</time>
      </trkpt>
      <trkpt lat="49.69719" lon="4.81238">
        <ele>152.8</ele>
        <time>2025-06-20T09:26:26Z</time>
      </trkpt>
      <trkpt lat="49.69721" lon="4.81271">
        <ele>152.9</ele>
        <time>2025-06-20T09:26:30Z</time>
      </trkpt>
      <trkpt lat="49.69724" lon="4.81304">
        <ele>152.2</ele>
        <time>2025-06-20T09:26:34Z</time>
      </trkpt>
      <trkpt lat="49.69726" lon="4.81337">
        <ele>151.6</ele>
        <time>2025-06-20T09:26:38Z</time>
      </trkpt>
      <trkpt lat="49.69729" lon="4.8137">
        <ele>152.5</ele>
        <time>2025-06-20T09:26:42Z</time>
      </trkpt>
      <trkpt lat="49.69731" lon="4.81403">
        <ele>152.1</ele>
        <time>2025-06-20T09:26:46Z</time>
      </trkpt>
      <trkpt lat="49.69734" lon="4.81436">
        <ele>151.8</ele>
        <time>2025-06-20T09:26:50Z</time>
      </trkpt>
      <trkpt lat="49.69738" lon="4.81467">
        <ele>151.7</ele>
        <time>2025-06-20T09:26:54Z</time>
      </trkpt>
      <trkpt lat="49.69742" lon="4.81497">
        <ele>151.7</ele>
        <time>2025-06-20T09:26:58Z</time>
      </trkpt>
      <trkpt lat="49.69745" lon="4.81528">
        <ele>151.8</ele>
        <time>2025-06-20T09:27:02Z</time>
      </trkpt>
      <trkpt lat="49.69749" lon="4.8156">
        <ele>152</ele>
        <time>2025-06-20T09:27:06Z</time>
      </trkpt>
      <trkpt lat="49.69753" lon="4.81593">
        <ele>151.8</ele>
        <time>2025-06-20T09:27:10Z</time>
      </trkpt>
      <trkpt lat="49.69758" lon="4.81627">
        <ele>151.4</ele>
        <time>2025-06-20T09:27:14Z</time>
      </trkpt>
      <trkpt lat="49.69762" lon="4.81661">
        <ele>151.8</ele>
        <time>2025-06-20T09:27:18Z</time>
      </trkpt>
      <trkpt lat="49.69766" lon="4.81694">
        <ele>152.2</ele>
        <time>2025-06-20T09:27:22Z</time>
      </trkpt>
      <trkpt lat="49.6977" lon="4.81727">
        <ele>151.7</ele>
        <time>2025-06-20T09:27:26Z</time>
      </trkpt>
      <trkpt lat="49.69775" lon="4.81761">
        <ele>151.8</ele>
        <time>2025-06-20T09:27:30Z</time>
      </trkpt>
      <trkpt lat="49.69779" lon="4.81795">
        <ele>151.5</ele>
        <time>2025-06-20T09:27:34Z</time>
      </trkpt>
      <trkpt lat="49.69783" lon="4.81829">
        <ele>151.6</ele>
        <time>2025-06-20T09:27:38Z</time>
      </trkpt>
      <trkpt lat="49.69788" lon="4.81863">
        <ele>151.7</ele>
        <time>2025-06-20T09:27:42Z</time>
      </trkpt>
      <trkpt lat="49.69792" lon="4.81896">
        <ele>151.5</ele>
        <time>2025-06-20T09:27:46Z</time>
      </trkpt>
      <trkpt lat="49.69796" lon="4.81929">
        <ele>151.7</ele>
        <time>2025-06-20T09:27:50Z</time>
      </trkpt>
      <trkpt lat="49.69801" lon="4.81962">
        <ele>151.7</ele>
        <time>2025-06-20T09:27:54Z</time>
      </trkpt>
      <trkpt lat="49.69805" lon="4.81995">
        <ele>152</ele>
        <time>2025-06-20T09:27:58Z</time>
      </trkpt>
      <trkpt lat="49.69809" lon="4.82029">
        <ele>152.2</ele>
        <time>2025-06-20T09:28:02Z</time>
      </trkpt>
      <trkpt lat="49.69814" lon="4.82063">
        <ele>151.6</ele>
        <time>2025-06-20T09:28:06Z</time>
      </trkpt>
      <trkpt lat="49.69818" lon="4.82096">
        <ele>151.9</ele>
        <time>2025-06-20T09:28:10Z</time>
      </trkpt>
      <trkpt lat="49.69822" lon="4.82129">
        <ele>152.2</ele>
        <time>2025-06-20T09:28:14Z</time>
      </trkpt>
      <trkpt lat="49.69827" lon="4.82162">
        <ele>152.5</ele>
        <time>2025-06-20T09:28:18Z</time>
      </trkpt>
      <trkpt lat="49.69831" lon="4.82194">
        <ele>152.8</ele>
        <time>2025-06-20T09:28:22Z</time>
      </trkpt>
      <trkpt lat="49.69835" lon="4.82226">
        <ele>152.1</ele>
        <time>2025-06-20T09:28:26Z</time>
      </trkpt>
      <trkpt lat="49.69839" lon="4.8226">
        <ele>151.7</ele>
        <time>2025-06-20T09:28:30Z</time>
      </trkpt>
      <trkpt lat="49.69843" lon="4.82294">
        <ele>151.8</ele>
        <time>2025-06-20T09:28:34Z</time>
      </trkpt>
      <trkpt lat="49.69847" lon="4.82327">
        <ele>152</ele>
        <time>2025-06-20T09:28:38Z</time>
      </trkpt>
      <trkpt lat="49.6985" lon="4.82361">
        <ele>151.6</ele>
        <time>2025-06-20T09:28:42Z</time>
      </trkpt>
      <trkpt lat="49.69854" lon="4.82394">
        <ele>151</ele>
        <time>2025-06-20T09:28:46Z</time>
      </trkpt>
      <trkpt lat="49.69859" lon="4.82427">
        <ele>151</ele>
        <time>2025-06-20T09:28:50Z</time>
      </trkpt>
      <trkpt lat="49.69863" lon="4.8246">
        <ele>151.1</ele>
        <time>2025-06-20T09:28:54Z</time>
      </trkpt>
      <trkpt lat="49.69868" lon="4.82494">
        <ele>150.5</ele>
        <time>2025-06-20T09:28:58Z</time>
      </trkpt>
      <trkpt lat="49.69873" lon="4.82529">
        <ele>150.6</ele>
        <time>2025-06-20T09:29:02Z</time>
      </trkpt>
      <trkpt lat="49.69877" lon="4.82564">
        <ele>150.3</ele>
        <time>2025-06-20T09:29:06Z</time>
      </trkpt>
      <trkpt lat="49.69882" lon="4.82598">
        <ele>150.1</ele>
        <time>2025-06-20T09:29:10Z</time>
      </trkpt>
      <trkpt lat="49.69886" lon="4.82631">
        <ele>150</ele>
        <time>2025-06-20T09:29:14Z</time>
      </trkpt>
      <trkpt lat="49.69891" lon="4.82664">
        <ele>150</ele>
        <time>2025-06-20T09:29:18Z</time>
      </trkpt>
      <trkpt lat="49.69895" lon="4.82698">
        <ele>150.1</ele>
        <time>2025-06-20T09:29:22Z</time>
      </trkpt>
      <trkpt lat="49.69899" lon="4.82731">
        <ele>150.4</ele>
        <time>2025-06-20T09:29:26Z</time>
      </trkpt>
      <trkpt lat="49.69903" lon="4.82764">
        <ele>149.7</ele>
        <time>2025-06-20T09:29:30Z</time>
      </trkpt>
      <trkpt lat="49.69908" lon="4.82798">
        <ele>149.3</ele>
        <time>2025-06-20T09:29:34Z</time>
      </trkpt>
      <trkpt lat="49.69912" lon="4.82833">
        <ele>149.2</ele>
        <time>2025-06-20T09:29:38Z</time>
      </trkpt>
      <trkpt lat="49.69917" lon="4.82867">
        <ele>149.2</ele>
        <time>2025-06-20T09:29:42Z</time>
      </trkpt>
      <trkpt lat="49.69921" lon="4.829">
        <ele>150</ele>
        <time>2025-06-20T09:29:46Z</time>
      </trkpt>
      <trkpt lat="49.69925" lon="4.82933">
        <ele>149.8</ele>
        <time>2025-06-20T09:29:50Z</time>
      </trkpt>
      <trkpt lat="49.69929" lon="4.82965">
        <ele>150</ele>
        <time>2025-06-20T09:29:54Z</time>
      </trkpt>
      <trkpt lat="49.69933" lon="4.82998">
        <ele>149.8</ele>
        <time>2025-06-20T09:29:58Z</time>
      </trkpt>
      <trkpt lat="49.69937" lon="4.83031">
        <ele>149.4</ele>
        <time>2025-06-20T09:30:02Z</time>
      </trkpt>
      <trkpt lat="49.69941" lon="4.83063">
        <ele>150</ele>
        <time>2025-06-20T09:30:06Z</time>
      </trkpt>
      <trkpt lat="49.69945" lon="4.83095">
        <ele>149.6</ele>
        <time>2025-06-20T09:30:10Z</time>
      </trkpt>
      <trkpt lat="49.69948" lon="4.83127">
        <ele>149.6</ele>
        <time>2025-06-20T09:30:14Z</time>
      </trkpt>
      <trkpt lat="49.69952" lon="4.83158">
        <ele>150</ele>
        <time>2025-06-20T09:30:18Z</time>
      </trkpt>
      <trkpt lat="49.69957" lon="4.83189">
        <ele>150.4</ele>
        <time>2025-06-20T09:30:22Z</time>
      </trkpt>
      <trkpt lat="49.69962" lon="4.83219">
        <ele>150</ele>
        <time>2025-06-20T09:30:26Z</time>
      </trkpt>
      <trkpt lat="49.69968" lon="4.83249">
        <ele>150</ele>
        <time>2025-06-20T09:30:30Z</time>
      </trkpt>
      <trkpt lat="49.69975" lon="4.83279">
        <ele>150.1</ele>
        <time>2025-06-20T09:30:34Z</time>
      </trkpt>
      <trkpt lat="49.69982" lon="4.83309">
        <ele>151</ele>
        <time>2025-06-20T09:30:38Z</time>
      </trkpt>
      <trkpt lat="49.69989" lon="4.83339">
        <ele>151</ele>
        <time>2025-06-20T09:30:42Z</time>
      </trkpt>
      <trkpt lat="49.69994" lon="4.83369">
        <ele>150.7</ele>
        <time>2025-06-20T09:30:46Z</time>
      </trkpt>
      <trkpt lat="49.69998" lon="4.834">
        <ele>150</ele>
        <time>2025-06-20T09:30:50Z</time>
      </trkpt>
      <trkpt lat="49.70002" lon="4.8343">
        <ele>150.5</ele>
        <time>2025-06-20T09:30:54Z</time>
      </trkpt>
      <trkpt lat="49.70006" lon="4.83461">
        <ele>151.1</ele>
        <time>2025-06-20T09:30:58Z</time>
      </trkpt>
      <trkpt lat="49.7001" lon="4.83493">
        <ele>151.4</ele>
        <time>2025-06-20T09:31:02Z</time>
      </trkpt>
      <trkpt lat="49.70014" lon="4.83525">
        <ele>151.1</ele>
        <time>2025-06-20T09:31:06Z</time>
      </trkpt>
      <trkpt lat="49.70018" lon="4.83556">
        <ele>151</ele>
        <time>2025-06-20T09:31:10Z</time>
      </trkpt>
      <trkpt lat="49.70022" lon="4.83588">
        <ele>151</ele>
        <time>2025-06-20T09:31:14Z</time>
      </trkpt>
      <trkpt lat="49.70026" lon="4.8362">
        <ele>151</ele>
        <time>2025-06-20T09:31:18Z</time>
      </trkpt>
      <trkpt lat="49.7003" lon="4.83653">
        <ele>151.1</ele>
        <time>2025-06-20T09:31:22Z</time>
      </trkpt>
      <trkpt lat="49.70034" lon="4.83685">
        <ele>151.2</ele>
        <time>2025-06-20T09:31:26Z</time>
      </trkpt>
      <trkpt lat="49.70038" lon="4.83718">
        <ele>151.1</ele>
        <time>2025-06-20T09:31:30Z</time>
      </trkpt>
      <trkpt lat="49.70042" lon="4.8375">
        <ele>151.5</ele>
        <time>2025-06-20T09:31:34Z</time>
      </trkpt>
      <trkpt lat="49.70046" lon="4.83782">
        <ele>151.7</ele>
        <time>2025-06-20T09:31:38Z</time>
      </trkpt>
      <trkpt lat="49.70049" lon="4.83815">
        <ele>151.5</ele>
        <time>2025-06-20T09:31:42Z</time>
      </trkpt>
      <trkpt lat="49.70052" lon="4.83847">
        <ele>151</ele>
        <time>2025-06-20T09:31:46Z</time>
      </trkpt>
      <trkpt lat="49.70054" lon="4.83879">
        <ele>151</ele>
        <time>2025-06-20T09:31:50Z</time>
      </trkpt>
      <trkpt lat="49.70057" lon="4.8391">
        <ele>151.1</ele>
        <time>2025-06-20T09:31:54Z</time>
      </trkpt>
      <trkpt lat="49.70061" lon="4.83941">
        <ele>151</ele>
        <time>2025-06-20T09:31:58Z</time>
      </trkpt>
      <trkpt lat="49.70063" lon="4.83973">
        <ele>151</ele>
        <time>2025-06-20T09:32:02Z</time>
      </trkpt>
      <trkpt lat="49.70068" lon="4.84006">
        <ele>151</ele>
        <time>2025-06-20T09:32:06Z</time>
      </trkpt>
      <trkpt lat="49.70071" lon="4.84038">
        <ele>151</ele>
        <time>2025-06-20T09:32:10Z</time>
      </trkpt>
      <trkpt lat="49.70075" lon="4.8407">
        <ele>151</ele>
        <time>2025-06-20T09:32:14Z</time>
      </trkpt>
      <trkpt lat="49.7008" lon="4.84101">
        <ele>151</ele>
        <time>2025-06-20T09:32:18Z</time>
      </trkpt>
      <trkpt lat="49.70084" lon="4.84133">
        <ele>151</ele>
        <time>2025-06-20T09:32:22Z</time>
      </trkpt>
      <trkpt lat="49.70089" lon="4.84164">
        <ele>151.4</ele>
        <time>2025-06-20T09:32:26Z</time>
      </trkpt>
      <trkpt lat="49.70093" lon="4.84196">
        <ele>151.7</ele>
        <time>2025-06-20T09:32:30Z</time>
      </trkpt>
      <trkpt lat="49.70098" lon="4.84226">
        <ele>152.1</ele>
        <time>2025-06-20T09:32:34Z</time>
      </trkpt>
      <trkpt lat="49.70104" lon="4.84256">
        <ele>152.3</ele>
        <time>2025-06-20T09:32:38Z</time>
      </trkpt>
      <trkpt lat="49.70112" lon="4.84287">
        <ele>152.1</ele>
        <time>2025-06-20T09:32:42Z</time>
      </trkpt>
      <trkpt lat="49.7012" lon="4.84317">
        <ele>152</ele>
        <time>2025-06-20T09:32:46Z</time>
      </trkpt>
      <trkpt lat="49.70129" lon="4.84345">
        <ele>152</ele>
        <time>2025-06-20T09:32:50Z</time>
      </trkpt>
      <trkpt lat="49.70138" lon="4.84373">
        <ele>152</ele>
        <time>2025-06-20T09:32:54Z</time>
      </trkpt>
      <trkpt lat="49.70148" lon="4.84402">
        <ele>152.3</ele>
        <time>2025-06-20T09:32:58Z</time>
      </trkpt>
      <trkpt lat="49.70161" lon="4.84429">
        <ele>151.9</ele>
        <time>2025-06-20T09:33:02Z</time>
      </trkpt>
      <trkpt lat="49.70175" lon="4.84452">
        <ele>152</ele>
        <time>2025-06-20T09:33:06Z</time>
      </trkpt>
      <trkpt lat="49.70191" lon="4.84476">
        <ele>152</ele>
        <time>2025-06-20T09:33:10Z</time>
      </trkpt>
      <trkpt lat="49.70206" lon="4.845">
        <ele>152.8</ele>
        <time>2025-06-20T09:33:14Z</time>
      </trkpt>
      <trkpt lat="49.70218" lon="4.84524">
        <ele>152.2</ele>
        <time>2025-06-20T09:33:18Z</time>
      </trkpt>
      <trkpt lat="49.70234" lon="4.84548">
        <ele>151.8</ele>
        <time>2025-06-20T09:33:22Z</time>
      </trkpt>
      <trkpt lat="49.7025" lon="4.84569">
        <ele>151</ele>
        <time>2025-06-20T09:33:26Z</time>
      </trkpt>
      <trkpt lat="49.70266" lon="4.8458">
        <ele>151.1</ele>
        <time>2025-06-20T09:33:30Z</time>
      </trkpt>
      <trkpt lat="49.70283" lon="4.84592">
        <ele>151.3</ele>
        <time>2025-06-20T09:33:34Z</time>
      </trkpt>
      <trkpt lat="49.703" lon="4.84605">
        <ele>152</ele>
        <time>2025-06-20T09:33:38Z</time>
      </trkpt>
      <trkpt lat="49.70316" lon="4.84616">
        <ele>152.7</ele>
        <time>2025-06-20T09:33:42Z</time>
      </trkpt>
      <trkpt lat="49.70332" lon="4.84628">
        <ele>153.3</ele>
        <time>2025-06-20T09:33:46Z</time>
      </trkpt>
      <trkpt lat="49.7035" lon="4.8464">
        <ele>153</ele>
        <time>2025-06-20T09:33:50Z</time>
      </trkpt>
      <trkpt lat="49.70368" lon="4.84652">
        <ele>153.4</ele>
        <time>2025-06-20T09:33:54Z</time>
      </trkpt>
      <trkpt lat="49.70387" lon="4.84661">
        <ele>154.1</ele>
        <time>2025-06-20T09:33:58Z</time>
      </trkpt>
      <trkpt lat="49.70406" lon="4.84669">
        <ele>153.9</ele>
        <time>2025-06-20T09:34:02Z</time>
      </trkpt>
      <trkpt lat="49.70426" lon="4.84672">
        <ele>153.7</ele>
        <time>2025-06-20T09:34:06Z</time>
      </trkpt>
      <trkpt lat="49.70446" lon="4.84672">
        <ele>153.6</ele>
        <time>2025-06-20T09:34:10Z</time>
      </trkpt>
      <trkpt lat="49.70468" lon="4.8467">
        <ele>153.8</ele>
        <time>2025-06-20T09:34:14Z</time>
      </trkpt>
      <trkpt lat="49.7049" lon="4.84667">
        <ele>153.3</ele>
        <time>2025-06-20T09:34:18Z</time>
      </trkpt>
      <trkpt lat="49.70512" lon="4.84663">
        <ele>153.2</ele>
        <time>2025-06-20T09:34:22Z</time>
      </trkpt>
      <trkpt lat="49.70533" lon="4.8466">
        <ele>153.2</ele>
        <time>2025-06-20T09:34:26Z</time>
      </trkpt>
      <trkpt lat="49.70555" lon="4.84655">
        <ele>153</ele>
        <time>2025-06-20T09:34:30Z</time>
      </trkpt>
      <trkpt lat="49.70577" lon="4.84651">
        <ele>153.4</ele>
        <time>2025-06-20T09:34:34Z</time>
      </trkpt>
      <trkpt lat="49.70598" lon="4.84647">
        <ele>153.7</ele>
        <time>2025-06-20T09:34:38Z</time>
      </trkpt>
      <trkpt lat="49.70619" lon="4.84643">
        <ele>153.9</ele>
        <time>2025-06-20T09:34:42Z</time>
      </trkpt>
      <trkpt lat="49.70639" lon="4.8464">
        <ele>154</ele>
        <time>2025-06-20T09:34:46Z</time>
      </trkpt>
      <trkpt lat="49.7066" lon="4.84636">
        <ele>155</ele>
        <time>2025-06-20T09:34:50Z</time>
      </trkpt>
      <trkpt lat="49.7068" lon="4.84633">
        <ele>155.5</ele>
        <time>2025-06-20T09:34:54Z</time>
      </trkpt>
      <trkpt lat="49.707" lon="4.84629">
        <ele>156.2</ele>
        <time>2025-06-20T09:34:58Z</time>
      </trkpt>
      <trkpt lat="49.7072" lon="4.84626">
        <ele>156.9</ele>
        <time>2025-06-20T09:35:02Z</time>
      </trkpt>
      <trkpt lat="49.7074" lon="4.84623">
        <ele>156.4</ele>
        <time>2025-06-20T09:35:06Z</time>
      </trkpt>
      <trkpt lat="49.70759" lon="4.84621">
        <ele>156.1</ele>
        <time>2025-06-20T09:35:10Z</time>
      </trkpt>
      <trkpt lat="49.70779" lon="4.8462">
        <ele>156.4</ele>
        <time>2025-06-20T09:35:14Z</time>
      </trkpt>
      <trkpt lat="49.708" lon="4.8462">
        <ele>156.4</ele>
        <time>2025-06-20T09:35:18Z</time>
      </trkpt>
      <trkpt lat="49.7082" lon="4.8462">
        <ele>156.2</ele>
        <time>2025-06-20T09:35:22Z</time>
      </trkpt>
      <trkpt lat="49.70839" lon="4.84621">
        <ele>156.1</ele>
        <time>2025-06-20T09:35:26Z</time>
      </trkpt>
      <trkpt lat="49.70859" lon="4.84623">
        <ele>156.2</ele>
        <time>2025-06-20T09:35:30Z</time>
      </trkpt>
      <trkpt lat="49.70876" lon="4.84624">
        <ele>156.6</ele>
        <time>2025-06-20T09:35:34Z</time>
      </trkpt>
      <trkpt lat="49.70894" lon="4.84624">
        <ele>157.2</ele>
        <time>2025-06-20T09:35:38Z</time>
      </trkpt>
      <trkpt lat="49.70914" lon="4.84622">
        <ele>157.8</ele>
        <time>2025-06-20T09:35:42Z</time>
      </trkpt>
      <trkpt lat="49.70935" lon="4.84618">
        <ele>158.4</ele>
        <time>2025-06-20T09:35:46Z</time>
      </trkpt>
      <trkpt lat="49.70957" lon="4.84615">
        <ele>158.7</ele>
        <time>2025-06-20T09:35:50Z</time>
      </trkpt>
      <trkpt lat="49.70979" lon="4.84613">
        <ele>158.9</ele>
        <time>2025-06-20T09:35:54Z</time>
      </trkpt>
      <trkpt lat="49.71002" lon="4.8461">
        <ele>159.1</ele>
        <time>2025-06-20T09:35:58Z</time>
      </trkpt>
      <trkpt lat="49.71025" lon="4.84607">
        <ele>159.2</ele>
        <time>2025-06-20T09:36:02Z</time>
      </trkpt>
      <trkpt lat="49.71049" lon="4.84605">
        <ele>158.3</ele>
        <time>2025-06-20T09:36:06Z</time>
      </trkpt>
      <trkpt lat="49.71073" lon="4.84604">
        <ele>157.4</ele>
        <time>2025-06-20T09:36:10Z</time>
      </trkpt>
      <trkpt lat="49.71102" lon="4.84602">
        <ele>155.9</ele>
        <time>2025-06-20T09:36:14Z</time>
      </trkpt>
      <trkpt lat="49.71135" lon="4.84597">
        <ele>153.8</ele>
        <time>2025-06-20T09:36:18Z</time>
      </trkpt>
      <trkpt lat="49.7117" lon="4.84588">
        <ele>153.6</ele>
        <time>2025-06-20T09:36:22Z</time>
      </trkpt>
      <trkpt lat="49.71201" lon="4.84575">
        <ele>153.7</ele>
        <time>2025-06-20T09:36:26Z</time>
      </trkpt>
      <trkpt lat="49.71225" lon="4.84564">
        <ele>154</ele>
        <time>2025-06-20T09:36:30Z</time>
      </trkpt>
      <trkpt lat="49.71248" lon="4.84553">
        <ele>154.1</ele>
        <time>2025-06-20T09:36:34Z</time>
      </trkpt>
      <trkpt lat="49.71269" lon="4.84542">
        <ele>154.2</ele>
        <time>2025-06-20T09:36:38Z</time>
      </trkpt>
      <trkpt lat="49.71291" lon="4.84532">
        <ele>154.3</ele>
        <time>2025-06-20T09:36:42Z</time>
      </trkpt>
      <trkpt lat="49.71312" lon="4.84522">
        <ele>154.8</ele>
        <time>2025-06-20T09:36:46Z</time>
      </trkpt>
      <trkpt lat="49.71334" lon="4.84512">
        <ele>154</ele>
        <time>2025-06-20T09:36:50Z</time>
      </trkpt>
      <trkpt lat="49.71355" lon="4.84501">
        <ele>154.8</ele>
        <time>2025-06-20T09:36:54Z</time>
      </trkpt>
      <trkpt lat="49.71374" lon="4.84489">
        <ele>154.8</ele>
        <time>2025-06-20T09:36:58Z</time>
      </trkpt>
      <trkpt lat="49.71394" lon="4.84478">
        <ele>155</ele>
        <time>2025-06-20T09:37:02Z</time>
      </trkpt>
      <trkpt lat="49.71414" lon="4.84467">
        <ele>155</ele>
        <time>2025-06-20T09:37:06Z</time>
      </trkpt>
      <trkpt lat="49.71435" lon="4.84455">
        <ele>155.3</ele>
        <time>2025-06-20T09:37:10Z</time>
      </trkpt>
      <trkpt lat="49.71456" lon="4.84442">
        <ele>155</ele>
        <time>2025-06-20T09:37:14Z</time>
      </trkpt>
      <trkpt lat="49.71477" lon="4.84429">
        <ele>154.6</ele>
        <time>2025-06-20T09:37:18Z</time>
      </trkpt>
      <trkpt lat="49.71498" lon="4.84415">
        <ele>154</ele>
        <time>2025-06-20T09:37:22Z</time>
      </trkpt>
      <trkpt lat="49.71518" lon="4.84398">
        <ele>154.2</ele>
        <time>2025-06-20T09:37:26Z</time>
      </trkpt>
      <trkpt lat="49.71539" lon="4.84382">
        <ele>154</ele>
        <time>2025-06-20T09:37:30Z</time>
      </trkpt>
      <trkpt lat="49.71559" lon="4.84365">
        <ele>154.1</ele>
        <time>2025-06-20T09:37:34Z</time>
      </trkpt>
      <trkpt lat="49.71578" lon="4.8435">
        <ele>154.8</ele>
        <time>2025-06-20T09:37:38Z</time>
      </trkpt>
      <trkpt lat="49.71597" lon="4.84334">
        <ele>155</ele>
        <time>2025-06-20T09:37:42Z</time>
      </trkpt>
      <trkpt lat="49.71616" lon="4.84319">
        <ele>155</ele>
        <time>2025-06-20T09:37:46Z</time>
      </trkpt>
      <trkpt lat="49.71635" lon="4.84303">
        <ele>155</ele>
        <time>2025-06-20T09:37:50Z</time>
      </trkpt>
      <trkpt lat="49.71654" lon="4.84288">
        <ele>155</ele>
        <time>2025-06-20T09:37:54Z</time>
      </trkpt>
      <trkpt lat="49.71673" lon="4.84272">
        <ele>155</ele>
        <time>2025-06-20T09:37:58Z</time>
      </trkpt>
      <trkpt lat="49.71692" lon="4.84255">
        <ele>155</ele>
        <time>2025-06-20T09:38:02Z</time>
      </trkpt>
      <trkpt lat="49.71712" lon="4.84239">
        <ele>155</ele>
        <time>2025-06-20T09:38:06Z</time>
      </trkpt>
      <trkpt lat="49.71732" lon="4.84222">
        <ele>155</ele>
        <time>2025-06-20T09:38:10Z</time>
      </trkpt>
      <trkpt lat="49.71753" lon="4.84205">
        <ele>155</ele>
        <time>2025-06-20T09:38:14Z</time>
      </trkpt>
      <trkpt lat="49.71772" lon="4.84189">
        <ele>155.2</ele>
        <time>2025-06-20T09:38:18Z</time>
      </trkpt>
      <trkpt lat="49.71792" lon="4.84174">
        <ele>155.9</ele>
        <time>2025-06-20T09:38:22Z</time>
      </trkpt>
      <trkpt lat="49.71813" lon="4.8416">
        <ele>155.9</ele>
        <time>2025-06-20T09:38:26Z</time>
      </trkpt>
      <trkpt lat="49.71833" lon="4.84147">
        <ele>155.3</ele>
        <time>2025-06-20T09:38:30Z</time>
      </trkpt>
      <trkpt lat="49.71854" lon="4.84134">
        <ele>155.8</ele>
        <time>2025-06-20T09:38:34Z</time>
      </trkpt>
      <trkpt lat="49.71874" lon="4.84122">
        <ele>156</ele>
        <time>2025-06-20T09:38:38Z</time>
      </trkpt>
      <trkpt lat="49.71895" lon="4.84109">
        <ele>156.1</ele>
        <time>2025-06-20T09:38:42Z</time>
      </trkpt>
      <trkpt lat="49.71914" lon="4.84096">
        <ele>156.1</ele>
        <time>2025-06-20T09:38:46Z</time>
      </trkpt>
      <trkpt lat="49.71935" lon="4.84083">
        <ele>156.7</ele>
        <time>2025-06-20T09:38:50Z</time>
      </trkpt>
      <trkpt lat="49.71953" lon="4.8407">
        <ele>157</ele>
        <time>2025-06-20T09:38:54Z</time>
      </trkpt>
      <trkpt lat="49.71972" lon="4.84058">
        <ele>157</ele>
        <time>2025-06-20T09:38:58Z</time>
      </trkpt>
      <trkpt lat="49.71991" lon="4.84044">
        <ele>157</ele>
        <time>2025-06-20T09:39:02Z</time>
      </trkpt>
      <trkpt lat="49.7201" lon="4.84029">
        <ele>157</ele>
        <time>2025-06-20T09:39:06Z</time>
      </trkpt>
      <trkpt lat="49.72028" lon="4.84014">
        <ele>157</ele>
        <time>2025-06-20T09:39:10Z</time>
      </trkpt>
      <trkpt lat="49.72047" lon="4.83997">
        <ele>157</ele>
        <time>2025-06-20T09:39:14Z</time>
      </trkpt>
      <trkpt lat="49.72066" lon="4.83981">
        <ele>157</ele>
        <time>2025-06-20T09:39:18Z</time>
      </trkpt>
      <trkpt lat="49.72085" lon="4.83964">
        <ele>157</ele>
        <time>2025-06-20T09:39:22Z</time>
      </trkpt>
      <trkpt lat="49.72104" lon="4.83947">
        <ele>157</ele>
        <time>2025-06-20T09:39:26Z</time>
      </trkpt>
      <trkpt lat="49.72123" lon="4.8393">
        <ele>157.2</ele>
        <time>2025-06-20T09:39:30Z</time>
      </trkpt>
      <trkpt lat="49.72143" lon="4.83914">
        <ele>157.1</ele>
        <time>2025-06-20T09:39:34Z</time>
      </trkpt>
      <trkpt lat="49.72162" lon="4.83897">
        <ele>157.8</ele>
        <time>2025-06-20T09:39:38Z</time>
      </trkpt>
      <trkpt lat="49.72181" lon="4.83881">
        <ele>158</ele>
        <time>2025-06-20T09:39:42Z</time>
      </trkpt>
      <trkpt lat="49.72198" lon="4.83866">
        <ele>158.1</ele>
        <time>2025-06-20T09:39:46Z</time>
      </trkpt>
      <trkpt lat="49.72216" lon="4.83852">
        <ele>158.6</ele>
        <time>2025-06-20T09:39:50Z</time>
      </trkpt>
      <trkpt lat="49.72234" lon="4.83839">
        <ele>158.5</ele>
        <time>2025-06-20T09:39:54Z</time>
      </trkpt>
      <trkpt lat="49.72253" lon="4.83832">
        <ele>159</ele>
        <time>2025-06-20T09:39:58Z</time>
      </trkpt>
      <trkpt lat="49.72272" lon="4.83831">
        <ele>159</ele>
        <time>2025-06-20T09:40:02Z</time>
      </trkpt>
      <trkpt lat="49.72284" lon="4.83808">
        <ele>159</ele>
        <time>2025-06-20T09:40:06Z</time>
      </trkpt>
      <trkpt lat="49.72298" lon="4.83788">
        <ele>159.6</ele>
        <time>2025-06-20T09:40:10Z</time>
      </trkpt>
      <trkpt lat="49.72316" lon="4.83773">
        <ele>159.9</ele>
        <time>2025-06-20T09:40:14Z</time>
      </trkpt>
      <trkpt lat="49.72334" lon="4.83757">
        <ele>160</ele>
        <time>2025-06-20T09:40:18Z</time>
      </trkpt>
      <trkpt lat="49.72351" lon="4.83742">
        <ele>160</ele>
        <time>2025-06-20T09:40:22Z</time>
      </trkpt>
      <trkpt lat="49.7237" lon="4.83728">
        <ele>160</ele>
        <time>2025-06-20T09:40:26Z</time>
      </trkpt>
      <trkpt lat="49.72388" lon="4.83712">
        <ele>160</ele>
        <time>2025-06-20T09:40:30Z</time>
      </trkpt>
      <trkpt lat="49.72407" lon="4.83697">
        <ele>160</ele>
        <time>2025-06-20T09:40:34Z</time>
      </trkpt>
      <trkpt lat="49.72426" lon="4.83682">
        <ele>160</ele>
        <time>2025-06-20T09:40:38Z</time>
      </trkpt>
      <trkpt lat="49.72446" lon="4.83669">
        <ele>160.1</ele>
        <time>2025-06-20T09:40:42Z</time>
      </trkpt>
      <trkpt lat="49.72465" lon="4.83654">
        <ele>160.9</ele>
        <time>2025-06-20T09:40:46Z</time>
      </trkpt>
      <trkpt lat="49.72484" lon="4.8364">
        <ele>161</ele>
        <time>2025-06-20T09:40:50Z</time>
      </trkpt>
      <trkpt lat="49.72504" lon="4.83628">
        <ele>161.3</ele>
        <time>2025-06-20T09:40:54Z</time>
      </trkpt>
      <trkpt lat="49.72524" lon="4.83617">
        <ele>161.5</ele>
        <time>2025-06-20T09:40:58Z</time>
      </trkpt>
      <trkpt lat="49.72545" lon="4.83608">
        <ele>163</ele>
        <time>2025-06-20T09:41:02Z</time>
      </trkpt>
      <trkpt lat="49.72564" lon="4.83607">
        <ele>163.8</ele>
        <time>2025-06-20T09:41:06Z</time>
      </trkpt>
      <trkpt lat="49.72583" lon="4.83591">
        <ele>162.3</ele>
        <time>2025-06-20T09:41:10Z</time>
      </trkpt>
      <trkpt lat="49.72605" lon="4.8358">
        <ele>161.4</ele>
        <time>2025-06-20T09:41:14Z</time>
      </trkpt>
      <trkpt lat="49.72626" lon="4.83572">
        <ele>162</ele>
        <time>2025-06-20T09:41:18Z</time>
      </trkpt>
      <trkpt lat="49.72648" lon="4.83567">
        <ele>162.1</ele>
        <time>2025-06-20T09:41:22Z</time>
      </trkpt>
      <trkpt lat="49.72671" lon="4.83564">
        <ele>161.3</ele>
        <time>2025-06-20T09:41:26Z</time>
      </trkpt>
      <trkpt lat="49.72694" lon="4.83564">
        <ele>161</ele>
        <time>2025-06-20T09:41:30Z</time>
      </trkpt>
      <trkpt lat="49.72716" lon="4.83568">
        <ele>160.2</ele>
        <time>2025-06-20T09:41:34Z</time>
      </trkpt>
      <trkpt lat="49.72738" lon="4.83575">
        <ele>159.6</ele>
        <time>2025-06-20T09:41:38Z</time>
      </trkpt>
      <trkpt lat="49.72759" lon="4.83585">
        <ele>159.3</ele>
        <time>2025-06-20T09:41:42Z</time>
      </trkpt>
      <trkpt lat="49.72782" lon="4.83596">
        <ele>159.6</ele>
        <time>2025-06-20T09:41:46Z</time>
      </trkpt>
      <trkpt lat="49.72803" lon="4.83611">
        <ele>159.9</ele>
        <time>2025-06-20T09:41:50Z</time>
      </trkpt>
      <trkpt lat="49.72823" lon="4.83626">
        <ele>159.8</ele>
        <time>2025-06-20T09:41:54Z</time>
      </trkpt>
      <trkpt lat="49.72841" lon="4.83645">
        <ele>160.2</ele>
        <time>2025-06-20T09:41:58Z</time>
      </trkpt>
      <trkpt lat="49.72857" lon="4.83666">
        <ele>161</ele>
        <time>2025-06-20T09:42:02Z</time>
      </trkpt>
      <trkpt lat="49.72871" lon="4.83689">
        <ele>161.4</ele>
        <time>2025-06-20T09:42:06Z</time>
      </trkpt>
      <trkpt lat="49.72874" lon="4.83717">
        <ele>162.3</ele>
        <time>2025-06-20T09:42:10Z</time>
      </trkpt>
      <trkpt lat="49.72878" lon="4.83747">
        <ele>162.6</ele>
        <time>2025-06-20T09:42:14Z</time>
      </trkpt>
      <trkpt lat="49.72892" lon="4.83769">
        <ele>163.1</ele>
        <time>2025-06-20T09:42:18Z</time>
      </trkpt>
      <trkpt lat="49.72912" lon="4.83772">
        <ele>163.8</ele>
        <time>2025-06-20T09:42:22Z</time>
      </trkpt>
      <trkpt lat="49.72932" lon="4.83774">
        <ele>164.1</ele>
        <time>2025-06-20T09:42:26Z</time>
      </trkpt>
      <trkpt lat="49.7295" lon="4.83792">
        <ele>164.7</ele>
        <time>2025-06-20T09:42:30Z</time>
      </trkpt>
      <trkpt lat="49.72965" lon="4.83813">
        <ele>165.1</ele>
        <time>2025-06-20T09:42:34Z</time>
      </trkpt>
      <trkpt lat="49.7298" lon="4.83835">
        <ele>165.3</ele>
        <time>2025-06-20T09:42:38Z</time>
      </trkpt>
      <trkpt lat="49.72995" lon="4.83858">
        <ele>166</ele>
        <time>2025-06-20T09:42:42Z</time>
      </trkpt>
      <trkpt lat="49.73008" lon="4.83883">
        <ele>166.1</ele>
        <time>2025-06-20T09:42:46Z</time>
      </trkpt>
      <trkpt lat="49.7302" lon="4.83908">
        <ele>166.2</ele>
        <time>2025-06-20T09:42:50Z</time>
      </trkpt>
      <trkpt lat="49.73032" lon="4.83935">
        <ele>166.1</ele>
        <time>2025-06-20T09:42:54Z</time>
      </trkpt>
      <trkpt lat="49.73042" lon="4.83962">
        <ele>166</ele>
        <time>2025-06-20T09:42:58Z</time>
      </trkpt>
      <trkpt lat="49.73051" lon="4.83992">
        <ele>165.3</ele>
        <time>2025-06-20T09:43:02Z</time>
      </trkpt>
      <trkpt lat="49.73061" lon="4.84023">
        <ele>165</ele>
        <time>2025-06-20T09:43:06Z</time>
      </trkpt>
      <trkpt lat="49.73068" lon="4.84054">
        <ele>165</ele>
        <time>2025-06-20T09:43:10Z</time>
      </trkpt>
      <trkpt lat="49.73074" lon="4.84086">
        <ele>165</ele>
        <time>2025-06-20T09:43:14Z</time>
      </trkpt>
      <trkpt lat="49.73079" lon="4.84118">
        <ele>164.8</ele>
        <time>2025-06-20T09:43:18Z</time>
      </trkpt>
      <trkpt lat="49.73083" lon="4.84151">
        <ele>164.6</ele>
        <time>2025-06-20T09:43:22Z</time>
      </trkpt>
      <trkpt lat="49.73086" lon="4.84185">
        <ele>164</ele>
        <time>2025-06-20T09:43:26Z</time>
      </trkpt>
      <trkpt lat="49.73089" lon="4.84218">
        <ele>163.3</ele>
        <time>2025-06-20T09:43:30Z</time>
      </trkpt>
      <trkpt lat="49.73093" lon="4.84252">
        <ele>163.3</ele>
        <time>2025-06-20T09:43:34Z</time>
      </trkpt>
      <trkpt lat="49.73096" lon="4.84287">
        <ele>163</ele>
        <time>2025-06-20T09:43:38Z</time>
      </trkpt>
      <trkpt lat="49.73099" lon="4.84322">
        <ele>162.7</ele>
        <time>2025-06-20T09:43:42Z</time>
      </trkpt>
      <trkpt lat="49.73103" lon="4.84357">
        <ele>162.1</ele>
        <time>2025-06-20T09:43:46Z</time>
      </trkpt>
      <trkpt lat="49.73109" lon="4.84391">
        <ele>162</ele>
        <time>2025-06-20T09:43:50Z</time>
      </trkpt>
      <trkpt lat="49.73116" lon="4.84424">
        <ele>161.8</ele>
        <time>2025-06-20T09:43:54Z</time>
      </trkpt>
      <trkpt lat="49.73124" lon="4.84455">
        <ele>161.7</ele>
        <time>2025-06-20T09:43:58Z</time>
      </trkpt>
      <trkpt lat="49.73134" lon="4.84485">
        <ele>161.9</ele>
        <time>2025-06-20T09:44:02Z</time>
      </trkpt>
      <trkpt lat="49.73144" lon="4.84514">
        <ele>161.9</ele>
        <time>2025-06-20T09:44:06Z</time>
      </trkpt>
      <trkpt lat="49.73155" lon="4.84541">
        <ele>161.8</ele>
        <time>2025-06-20T09:44:10Z</time>
      </trkpt>
      <trkpt lat="49.73168" lon="4.84566">
        <ele>162</ele>
        <time>2025-06-20T09:44:14Z</time>
      </trkpt>
      <trkpt lat="49.73181" lon="4.84591">
        <ele>161.9</ele>
        <time>2025-06-20T09:44:18Z</time>
      </trkpt>
      <trkpt lat="49.73196" lon="4.84614">
        <ele>162.1</ele>
        <time>2025-06-20T09:44:22Z</time>
      </trkpt>
      <trkpt lat="49.73212" lon="4.84636">
        <ele>162.1</ele>
        <time>2025-06-20T09:44:26Z</time>
      </trkpt>
      <trkpt lat="49.73227" lon="4.84657">
        <ele>162.2</ele>
        <time>2025-06-20T09:44:30Z</time>
      </trkpt>
      <trkpt lat="49.73244" lon="4.84677">
        <ele>162.8</ele>
        <time>2025-06-20T09:44:34Z</time>
      </trkpt>
      <trkpt lat="49.7326" lon="4.84697">
        <ele>162.9</ele>
        <time>2025-06-20T09:44:38Z</time>
      </trkpt>
      <trkpt lat="49.73276" lon="4.84716">
        <ele>163</ele>
        <time>2025-06-20T09:44:42Z</time>
      </trkpt>
      <trkpt lat="49.73291" lon="4.84735">
        <ele>162.8</ele>
        <time>2025-06-20T09:44:46Z</time>
      </trkpt>
      <trkpt lat="49.73307" lon="4.84755">
        <ele>163</ele>
        <time>2025-06-20T09:44:50Z</time>
      </trkpt>
      <trkpt lat="49.73323" lon="4.84774">
        <ele>163</ele>
        <time>2025-06-20T09:44:54Z</time>
      </trkpt>
      <trkpt lat="49.73339" lon="4.84794">
        <ele>163.1</ele>
        <time>2025-06-20T09:44:58Z</time>
      </trkpt>
      <trkpt lat="49.73355" lon="4.84814">
        <ele>163</ele>
        <time>2025-06-20T09:45:02Z</time>
      </trkpt>
      <trkpt lat="49.73371" lon="4.84835">
        <ele>163</ele>
        <time>2025-06-20T09:45:06Z</time>
      </trkpt>
      <trkpt lat="49.73388" lon="4.84856">
        <ele>163</ele>
        <time>2025-06-20T09:45:10Z</time>
      </trkpt>
      <trkpt lat="49.73404" lon="4.84878">
        <ele>163.2</ele>
        <time>2025-06-20T09:45:14Z</time>
      </trkpt>
      <trkpt lat="49.73419" lon="4.84901">
        <ele>163.1</ele>
        <time>2025-06-20T09:45:18Z</time>
      </trkpt>
      <trkpt lat="49.73434" lon="4.84924">
        <ele>163.5</ele>
        <time>2025-06-20T09:45:22Z</time>
      </trkpt>
      <trkpt lat="49.73449" lon="4.84946">
        <ele>163.2</ele>
        <time>2025-06-20T09:45:26Z</time>
      </trkpt>
      <trkpt lat="49.73462" lon="4.84969">
        <ele>163.6</ele>
        <time>2025-06-20T09:45:30Z</time>
      </trkpt>
      <trkpt lat="49.73476" lon="4.84991">
        <ele>163.4</ele>
        <time>2025-06-20T09:45:34Z</time>
      </trkpt>
      <trkpt lat="49.73491" lon="4.85013">
        <ele>163.7</ele>
        <time>2025-06-20T09:45:38Z</time>
      </trkpt>
      <trkpt lat="49.73505" lon="4.85035">
        <ele>163.6</ele>
        <time>2025-06-20T09:45:42Z</time>
      </trkpt>
      <trkpt lat="49.7352" lon="4.85057">
        <ele>163</ele>
        <time>2025-06-20T09:45:46Z</time>
      </trkpt>
      <trkpt lat="49.73535" lon="4.85078">
        <ele>163</ele>
        <time>2025-06-20T09:45:50Z</time>
      </trkpt>
      <trkpt lat="49.73548" lon="4.85099">
        <ele>163</ele>
        <time>2025-06-20T09:45:54Z</time>
      </trkpt>
      <trkpt lat="49.73539" lon="4.85122">
        <ele>163</ele>
        <time>2025-06-20T09:45:58Z</time>
      </trkpt>
      <trkpt lat="49.73523" lon="4.85141">
        <ele>163</ele>
        <time>2025-06-20T09:46:02Z</time>
      </trkpt>
      <trkpt lat="49.73505" lon="4.85159">
        <ele>163</ele>
        <time>2025-06-20T09:46:06Z</time>
      </trkpt>
      <trkpt lat="49.73487" lon="4.8518">
        <ele>163</ele>
        <time>2025-06-20T09:46:10Z</time>
      </trkpt>
      <trkpt lat="49.7347" lon="4.85197">
        <ele>162.9</ele>
        <time>2025-06-20T09:46:14Z</time>
      </trkpt>
      <trkpt lat="49.7345" lon="4.85211">
        <ele>162.9</ele>
        <time>2025-06-20T09:46:18Z</time>
      </trkpt>
      <trkpt lat="49.7343" lon="4.85225">
        <ele>162.5</ele>
        <time>2025-06-20T09:46:22Z</time>
      </trkpt>
      <trkpt lat="49.7341" lon="4.85238">
        <ele>162</ele>
        <time>2025-06-20T09:46:26Z</time>
      </trkpt>
      <trkpt lat="49.73406" lon="4.85264">
        <ele>161.8</ele>
        <time>2025-06-20T09:46:30Z</time>
      </trkpt>
      <trkpt lat="49.73421" lon="4.85283">
        <ele>161.8</ele>
        <time>2025-06-20T09:46:34Z</time>
      </trkpt>
      <trkpt lat="49.73436" lon="4.85304">
        <ele>161.7</ele>
        <time>2025-06-20T09:46:38Z</time>
      </trkpt>
      <trkpt lat="49.73453" lon="4.85324">
        <ele>161.5</ele>
        <time>2025-06-20T09:46:42Z</time>
      </trkpt>
      <trkpt lat="49.73469" lon="4.85344">
        <ele>161.9</ele>
        <time>2025-06-20T09:46:46Z</time>
      </trkpt>
      <trkpt lat="49.73485" lon="4.85364">
        <ele>161.9</ele>
        <time>2025-06-20T09:46:50Z</time>
      </trkpt>
      <trkpt lat="49.73501" lon="4.85384">
        <ele>162</ele>
        <time>2025-06-20T09:46:54Z</time>
      </trkpt>
      <trkpt lat="49.73514" lon="4.85402">
        <ele>161.5</ele>
        <time>2025-06-20T09:46:58Z</time>
      </trkpt>
      <trkpt lat="49.73531" lon="4.8542">
        <ele>161.9</ele>
        <time>2025-06-20T09:47:02Z</time>
      </trkpt>
      <trkpt lat="49.73547" lon="4.85434">
        <ele>161.4</ele>
        <time>2025-06-20T09:47:06Z</time>
      </trkpt>
      <trkpt lat="49.73565" lon="4.85446">
        <ele>161.4</ele>
        <time>2025-06-20T09:47:10Z</time>
      </trkpt>
      <trkpt lat="49.73583" lon="4.85457">
        <ele>161.5</ele>
        <time>2025-06-20T09:47:14Z</time>
      </trkpt>
      <trkpt lat="49.73599" lon="4.8547">
        <ele>161.6</ele>
        <time>2025-06-20T09:47:18Z</time>
      </trkpt>
      <trkpt lat="49.73616" lon="4.85483">
        <ele>161.6</ele>
        <time>2025-06-20T09:47:22Z</time>
      </trkpt>
      <trkpt lat="49.73634" lon="4.85497">
        <ele>161.1</ele>
        <time>2025-06-20T09:47:26Z</time>
      </trkpt>
      <trkpt lat="49.7365" lon="4.85505">
        <ele>161.5</ele>
        <time>2025-06-20T09:47:30Z</time>
      </trkpt>
      <trkpt lat="49.73656" lon="4.85522">
        <ele>161.9</ele>
        <time>2025-06-20T09:47:34Z</time>
      </trkpt>
      <trkpt lat="49.73648" lon="4.85544">
        <ele>162</ele>
        <time>2025-06-20T09:47:38Z</time>
      </trkpt>
      <trkpt lat="49.73643" lon="4.85566">
        <ele>162</ele>
        <time>2025-06-20T09:47:42Z</time>
      </trkpt>
      <trkpt lat="49.73653" lon="4.85584">
        <ele>162</ele>
        <time>2025-06-20T09:47:46Z</time>
      </trkpt>
      <trkpt lat="49.73669" lon="4.85601">
        <ele>162.6</ele>
        <time>2025-06-20T09:47:50Z</time>
      </trkpt>
      <trkpt lat="49.73683" lon="4.85612">
        <ele>163</ele>
        <time>2025-06-20T09:47:54Z</time>
      </trkpt>
      <trkpt lat="49.7369" lon="4.85617">
        <ele>163.2</ele>
        <time>2025-06-20T09:47:58Z</time>
      </trkpt>
      <trkpt lat="49.73695" lon="4.85623">
        <ele>163.4</ele>
        <time>2025-06-20T09:48:02Z</time>
      </trkpt>
      <trkpt lat="49.73706" lon="4.85616">
        <ele>163</ele>
        <time>2025-06-20T09:48:06Z</time>
      </trkpt>
      <trkpt lat="49.73719" lon="4.85595">
        <ele>162.4</ele>
        <time>2025-06-20T09:48:10Z</time>
      </trkpt>
      <trkpt lat="49.73729" lon="4.85571">
        <ele>162.2</ele>
        <time>2025-06-20T09:48:14Z</time>
      </trkpt>
      <trkpt lat="49.73735" lon="4.85541">
        <ele>162.7</ele>
        <time>2025-06-20T09:48:18Z</time>
      </trkpt>
      <trkpt lat="49.73736" lon="4.85505">
        <ele>163</ele>
        <time>2025-06-20T09:48:22Z</time>
      </trkpt>
      <trkpt lat="49.73737" lon="4.85468">
        <ele>163</ele>
        <time>2025-06-20T09:48:26Z</time>
      </trkpt>
      <trkpt lat="49.73731" lon="4.85435">
        <ele>163</ele>
        <time>2025-06-20T09:48:30Z</time>
      </trkpt>
      <trkpt lat="49.73721" lon="4.85405">
        <ele>163</ele>
        <time>2025-06-20T09:48:34Z</time>
      </trkpt>
      <trkpt lat="49.7371" lon="4.85374">
        <ele>162.8</ele>
        <time>2025-06-20T09:48:38Z</time>
      </trkpt>
      <trkpt lat="49.73699" lon="4.85342">
        <ele>163</ele>
        <time>2025-06-20T09:48:42Z</time>
      </trkpt>
      <trkpt lat="49.73688" lon="4.8531">
        <ele>163</ele>
        <time>2025-06-20T09:48:46Z</time>
      </trkpt>
      <trkpt lat="49.73678" lon="4.85279">
        <ele>163</ele>
        <time>2025-06-20T09:48:50Z</time>
      </trkpt>
      <trkpt lat="49.7367" lon="4.85245">
        <ele>163.1</ele>
        <time>2025-06-20T09:48:54Z</time>
      </trkpt>
      <trkpt lat="49.73664" lon="4.85211">
        <ele>163</ele>
        <time>2025-06-20T09:48:58Z</time>
      </trkpt>
      <trkpt lat="49.73658" lon="4.85178">
        <ele>163</ele>
        <time>2025-06-20T09:49:02Z</time>
      </trkpt>
      <trkpt lat="49.73655" lon="4.85146">
        <ele>163.4</ele>
        <time>2025-06-20T09:49:06Z</time>
      </trkpt>
      <trkpt lat="49.73656" lon="4.85111">
        <ele>163.6</ele>
        <time>2025-06-20T09:49:10Z</time>
      </trkpt>
      <trkpt lat="49.73655" lon="4.85077">
        <ele>164.1</ele>
        <time>2025-06-20T09:49:14Z</time>
      </trkpt>
      <trkpt lat="49.73649" lon="4.85045">
        <ele>164.5</ele>
        <time>2025-06-20T09:49:18Z</time>
      </trkpt>
      <trkpt lat="49.73638" lon="4.85017">
        <ele>164.8</ele>
        <time>2025-06-20T09:49:22Z</time>
      </trkpt>
      <trkpt lat="49.73626" lon="4.84991">
        <ele>165.9</ele>
        <time>2025-06-20T09:49:26Z</time>
      </trkpt>
      <trkpt lat="49.73613" lon="4.84965">
        <ele>165.7</ele>
        <time>2025-06-20T09:49:30Z</time>
      </trkpt>
      <trkpt lat="49.73601" lon="4.84939">
        <ele>166.9</ele>
        <time>2025-06-20T09:49:34Z</time>
      </trkpt>
      <trkpt lat="49.73591" lon="4.8491">
        <ele>166.8</ele>
        <time>2025-06-20T09:49:38Z</time>
      </trkpt>
      <trkpt lat="49.73582" lon="4.84881">
        <ele>166.2</ele>
        <time>2025-06-20T09:49:42Z</time>
      </trkpt>
      <trkpt lat="49.73573" lon="4.84851">
        <ele>166.8</ele>
        <time>2025-06-20T09:49:46Z</time>
      </trkpt>
      <trkpt lat="49.73564" lon="4.84822">
        <ele>167.1</ele>
        <time>2025-06-20T09:49:50Z</time>
      </trkpt>
      <trkpt lat="49.73556" lon="4.84794">
        <ele>167</ele>
        <time>2025-06-20T09:49:54Z</time>
      </trkpt>
      <trkpt lat="49.73546" lon="4.84767">
        <ele>167</ele>
        <time>2025-06-20T09:49:58Z</time>
      </trkpt>
      <trkpt lat="49.73536" lon="4.84742">
        <ele>167.5</ele>
        <time>2025-06-20T09:50:02Z</time>
      </trkpt>
      <trkpt lat="49.73525" lon="4.84719">
        <ele>167.9</ele>
        <time>2025-06-20T09:50:06Z</time>
      </trkpt>
      <trkpt lat="49.73515" lon="4.84697">
        <ele>168</ele>
        <time>2025-06-20T09:50:10Z</time>
      </trkpt>
      <trkpt lat="49.73506" lon="4.84676">
        <ele>168.5</ele>
        <time>2025-06-20T09:50:14Z</time>
      </trkpt>
      <trkpt lat="49.73496" lon="4.84656">
        <ele>169.1</ele>
        <time>2025-06-20T09:50:18Z</time>
      </trkpt>
      <trkpt lat="49.73489" lon="4.8464">
        <ele>169.5</ele>
        <time>2025-06-20T09:50:22Z</time>
      </trkpt>
      <trkpt lat="49.73484" lon="4.84629">
        <ele>170.1</ele>
        <time>2025-06-20T09:50:26Z</time>
      </trkpt>
      <trkpt lat="49.73482" lon="4.8462">
        <ele>170.5</ele>
        <time>2025-06-20T09:50:30Z</time>
      </trkpt>
    </trkseg>
  </trk>
</gpx>